[[{"header":{"parameterUnit":"m.s-1","parameterCategory":1,"la1":30.6,"la2":28.766,"lo1":-90.7593,"lo2":-88.6598,"dy":0.0162,"dx":0.0183,"nx":116,"ny":114,"refTime":"2024-03-17T12:00:00:Z","depth":0,"parameterNumber":2,"parameterNumberName":"U-component_of_WINDS"},"data":[0.0,0.0,0.0,0.0,0.0,0.0,0.0,0.0,0.0,0.0,0.0,0.0,0.0,0.0,0.0,0.0,0.0,0.0,0.0,0.0,0.0,0.0,0.0,0.0,0.0,0.0,0.0,0.0,0.0,0.0,0.0,0.0,0.0,0.0,0.0,0.0,0.0,0.0,0.0,0.0,0.0,0.0,0.0,0.0,0.0,0.0,0.0,0.0,0.0,0.0,0.0,0.0,0.0,0.0,0.0,0.0,0.0,0.0,0.0,0.0,0.0,0.0,0.0,0.0,0.0,0.0,0.0,0.0,0.0,0.0,0.0,0.0,0.0,0.0,0.0,0.0,0.0,0.0,0.0,0.0,0.0,0.0,0.0,0.0,0.0,0.0,0.0,0.0,0.0,0.0,0.0,0.0,0.0,0.0,0.0,0.0,0.0,0.0,0.0,0.0,0.0,0.0,0.0,0.0,0.0,0.0,0.0,0.0,0.0,0.0,0.0,0.0,0.0,0.0,0.0,0.0,0.0,0.0,0.0,0.0,0.0,0.0,0.0,0.0,0.0,0.0,0.0,0.0,0.0,0.0,0.0,0.0,0.0,0.0,0.0,0.0,0.0,0.0,0.0,0.0,0.0,0.0,0.0,0.0,0.0,0.0,0.0,0.0,0.0,0.0,0.0,0.0,0.0,0.0,0.0,0.0,0.0,0.0,0.0,0.0,0.0,0.0,0.0,0.0,0.0,0.0,0.0,0.0,0.0,0.0,0.0,0.0,0.0,0.0,0.0,0.0,0.0,0.0,0.0,0.0,0.0,0.0,0.0,0.0,0.0,0.0,0.0,0.0,0.0,0.0,0.0,0.0,0.0,0.0,0.0,0.0,0.0,0.0,0.0,0.0,0.0,0.0,0.0,0.0,0.0,0.0,0.0,0.0,0.0,0.0,0.0,0.0,0.0,0.0,0.0,0.0,0.0,0.0,0.0,0.0,0.0,0.0,0.0,0.0,0.0,0.0,0.0,0.0,0.0,0.0,0.0,0.0,0.0,0.0,0.0,0.0,0.0,0.0,0.0,0.0,0.0,0.0,0.0,0.0,0.0,0.0,0.0,0.0,0.0,0.0,0.0,0.0,0.0,0.0,0.0,0.0,0.0,0.0,0.0,0.0,0.0,0.0,0.0,0.0,0.0,0.0,0.0,0.0,0.0,0.0,0.0,0.0,0.0,0.0,0.0,0.0,0.0,0.0,0.0,0.0,0.0,0.0,0.0,0.0,0.0,0.0,0.0,0.0,0.0,0.0,0.0,0.0,0.0,0.0,0.0,0.0,0.0,0.0,0.0,0.0,0.0,0.0,0.0,0.0,0.0,0.0,0.0,0.0,0.0,0.0,0.0,0.0,0.0,0.0,0.0,0.0,0.0,0.0,0.0,0.0,0.0,0.0,0.0,0.0,0.0,0.0,0.0,0.0,0.0,0.0,0.0,0.0,0.0,0.0,0.0,0.0,0.0,0.0,0.0,0.0,0.0,0.0,0.0,0.0,0.0,0.0,0.0,0.0,0.0,0.0,0.0,0.0,0.0,0.0,0.0,0.0,0.0,0.0,0.0,0.0,0.0,0.0,0.0,0.0,0.0,0.0,0.0,0.0,0.0,0.0,0.0,0.0,0.0,0.0,0.0,0.0,0.0,0.0,0.0,0.0,0.0,0.0,0.0,0.0,0.0,0.0,0.0,0.0,0.0,0.0,0.0,0.0,0.0,0.0,0.0,0.0,0.0,0.0,0.0,0.0,0.0,0.0,0.0,0.0,0.0,0.0,0.0,0.0,0.0,0.0,0.0,0.0,0.0,0.0,0.0,0.0,0.0,0.0,0.0,0.0,0.0,0.0,0.0,0.0,0.0,0.0,0.0,0.0,0.0,0.0,0.0,0.0,0.0,0.0,0.0,0.0,0.0,0.0,0.0,0.0,0.0,0.0,0.0,0.0,0.0,0.0,0.0,0.0,0.0,0.0,0.0,0.0,0.0,0.0,0.0,0.0,0.0,0.0,0.0,0.0,0.0,0.0,0.0,0.0,0.0,0.0,0.0,0.0,0.0,0.0,0.0,0.0,0.0,0.0,0.0,0.0,0.0,0.0,0.0,0.0,0.0,0.0,0.0,0.0,0.0,0.0,0.0,0.0,0.0,0.0,0.0,0.0,0.0,0.0,0.0,0.0,0.0,0.0,0.0,0.0,0.0,0.0,0.0,0.0,0.0,0.0,0.0,0.0,0.0,0.0,0.0,0.0,0.0,0.0,0.0,0.0,0.0,0.0,0.0,0.0,0.0,0.0,0.0,0.0,0.0,0.0,0.0,0.0,0.0,0.0,0.0,0.0,0.0,0.0,0.0,0.0,0.0,0.0,0.0,0.0,0.0,0.0,0.0,0.0,0.0,0.0,0.0,0.0,0.0,0.0,0.0,0.0,0.0,0.0,0.0,0.0,0.0,0.0,0.0,0.0,0.0,0.0,0.0,0.0,0.0,0.0,0.0,0.0,0.0,0.0,0.0,0.0,0.0,0.0,0.0,0.0,0.0,0.0,0.0,0.0,0.0,0.0,0.0,0.0,0.0,0.0,0.0,0.0,0.0,0.0,0.0,0.0,0.0,0.0,0.0,0.0,0.0,0.0,0.0,0.0,0.0,0.0,0.0,0.0,0.0,0.0,0.0,0.0,0.0,0.0,0.0,0.0,0.0,0.0,0.0,0.0,0.0,0.0,0.0,0.0,0.0,0.0,0.0,0.0,0.0,0.0,0.0,0.0,0.0,0.0,0.0,0.0,0.0,0.0,0.0,0.0,0.0,0.0,0.0,0.0,0.0,0.0,0.0,0.0,0.0,0.0,0.0,0.0,0.0,0.0,0.0,0.0,0.0,0.0,0.0,0.0,0.0,0.0,0.0,0.0,0.0,0.0,0.0,0.0,0.0,0.0,0.0,0.0,0.0,0.0,0.0,0.0,0.0,0.0,0.0,0.0,0.0,0.0,0.0,0.0,0.0,0.0,0.0,0.0,0.0,0.0,0.0,0.0,0.0,0.0,0.0,0.0,0.0,0.0,0.0,0.0,0.0,0.0,0.0,0.0,0.0,0.0,0.0,0.0,0.0,0.0,0.0,0.0,0.0,0.0,0.0,0.0,0.0,0.0,0.0,0.0,0.0,0.0,0.0,0.0,0.0,0.0,0.0,0.0,0.0,0.0,0.0,0.0,0.0,0.0,0.0,0.0,0.0,0.0,0.0,0.0,0.0,0.0,0.0,0.0,0.0,0.0,0.0,0.0,0.0,0.0,0.0,0.0,0.0,0.0,0.0,0.0,0.0,0.0,0.0,0.0,0.0,0.0,0.0,0.0,0.0,0.0,0.0,0.0,0.0,0.0,0.0,0.0,0.0,0.0,0.0,0.0,0.0,0.0,0.0,0.0,0.0,0.0,0.0,0.0,0.0,0.0,0.0,0.0,0.0,0.0,0.0,0.0,0.0,0.0,0.0,0.0,0.0,0.0,0.0,0.0,0.0,0.0,0.0,0.0,0.0,0.0,0.0,0.0,0.0,0.0,0.0,0.0,0.0,0.0,0.0,0.0,0.0,0.0,0.0,0.0,0.0,0.0,0.0,0.0,0.0,0.0,0.0,0.0,0.0,0.0,0.0,0.0,0.0,0.0,0.0,0.0,0.0,0.0,0.0,0.0,0.0,0.0,0.0,0.0,0.0,0.0,0.0,0.0,0.0,0.0,0.0,0.0,0.0,0.0,0.0,0.0,0.0,0.0,0.0,0.0,0.0,0.0,0.0,0.0,0.0,0.0,0.0,0.0,0.0,0.0,0.0,0.0,0.0,0.0,0.0,0.0,0.0,0.0,0.0,0.0,0.0,0.0,0.0,0.0,0.0,0.0,0.0,0.0,0.0,0.0,0.0,0.0,0.0,0.0,0.0,0.0,0.0,0.0,0.0,0.0,0.0,0.0,0.0,0.0,0.0,0.0,0.0,0.0,0.0,0.0,0.0,0.0,0.0,0.0,0.0,0.0,0.0,0.0,0.0,0.0,0.0,0.0,0.0,0.0,0.0,0.0,0.0,0.0,0.0,0.0,0.0,0.0,0.0,0.0,0.0,0.0,0.0,0.0,0.0,0.0,0.0,0.0,0.0,0.0,0.0,0.0,0.0,0.0,0.0,0.0,0.0,0.0,0.0,0.0,0.0,0.0,0.0,0.0,0.0,0.0,0.0,0.0,0.0,0.0,0.0,0.0,0.0,0.0,0.0,0.0,0.0,0.0,0.0,0.0,0.0,0.0,0.0,0.0,0.0,0.0,0.0,0.0,0.0,0.0,0.0,0.0,0.0,0.0,0.0,0.0,0.0,0.0,0.0,0.0,0.0,0.0,0.0,0.0,0.0,0.0,0.0,0.0,0.0,0.0,0.0,0.0,0.0,0.0,0.0,0.0,0.0,0.0,0.0,0.0,0.0,0.0,0.0,0.0,0.0,0.0,0.0,0.0,0.0,0.0,0.0,0.0,0.0,0.0,0.0,0.0,0.0,0.0,0.0,0.0,0.0,0.0,0.0,0.0,0.0,0.0,0.0,0.0,0.0,0.0,0.0,0.0,0.0,0.0,0.0,0.0,0.0,0.0,0.0,0.0,0.0,0.0,0.0,0.0,0.0,0.0,0.0,0.0,0.0,0.0,0.0,0.0,0.0,0.0,0.0,0.0,0.0,0.0,0.0,0.0,0.0,0.0,0.0,0.0,0.0,0.0,0.0,0.0,0.0,0.0,0.0,0.0,0.0,0.0,0.0,0.0,0.0,0.0,0.0,0.0,0.0,0.0,0.0,0.0,0.0,0.0,0.0,0.0,0.0,0.0,0.0,0.0,0.0,0.0,0.0,0.0,0.0,0.0,0.0,0.0,0.0,0.0,0.0,0.0,0.0,0.0,0.0,0.0,0.0,0.0,0.0,0.0,0.0,0.0,0.0,0.0,0.0,0.0,0.0,0.0,0.0,0.0,0.0,0.0,0.0,0.0,0.0,0.0,0.0,0.0,0.0,0.0,0.0,0.0,0.0,0.0,0.0,0.0,0.0,0.0,0.0,0.0,0.0,0.0,0.0,0.0,0.0,0.0,0.0,0.0,0.0,0.0,0.0,0.0,0.0,0.0,0.0,0.0,0.0,0.0,0.0,0.0,0.0,0.0,0.0,0.0,0.0,0.0,0.0,0.0,0.0,0.0,0.0,0.0,0.0,0.0,0.0,0.0,0.0,0.0,0.0,0.0,0.0,0.0,0.0,0.0,0.0,0.0,0.0,0.0,0.0,0.0,0.0,0.0,0.0,0.0,0.0,0.0,0.0,0.0,0.0,0.0,0.0,0.0,0.0,0.0,0.0,0.0,0.0,0.0,0.0,0.0,0.0,0.0,0.0,0.0,0.0,0.0,0.0,0.0,0.0,0.0,0.0,0.0,0.0,0.0,0.0,0.0,0.0,0.0,0.0,0.0,0.0,0.0,0.0,0.0,0.0,0.0,0.0,0.0,0.0,0.0,0.0,0.0,0.0,0.0,0.0,0.0,0.0,0.0,0.0,0.0,0.0,0.0,0.0,0.0,0.0,0.0,0.0,0.0,0.0,0.0,0.0,0.0,0.0,0.0,0.0,0.0,0.0,0.0,0.0,0.0,0.0,0.0,0.0,0.0,0.0,0.0,0.0,0.0,0.0,0.0,0.0,0.0,0.0,0.0,0.0,0.0,0.0,0.0,0.0,0.0,0.0,0.0,0.0,0.0,0.0,0.0,0.0,0.0,0.0,0.0,0.0,0.0,0.0,0.0,0.0,0.0,0.0,0.0,0.0,0.0,0.0,0.0,0.0,0.0,0.0,0.0,0.0,0.0,0.0,0.0,0.0,0.0,0.0,0.0,0.0,0.0,0.0,0.0,0.0,0.0,0.0,0.0,0.0,0.0,0.0,0.0,0.0,0.0,0.0,0.0,0.0,0.0,0.0,0.0,0.0,0.0,0.0,0.0,0.0,0.0,0.0,0.0,0.0,0.0,0.0,0.0,0.0,0.0,0.0,0.0,0.0,0.0,0.0,0.0,0.0,0.0,0.0,0.0,0.373,0.3739,0.0,0.0,0.0,0.0,0.0,0.0,0.0,0.0,0.0,0.0,0.0,0.0,0.0,0.0,0.0,0.0,0.0,0.0,0.0,0.0,0.0,0.0,0.0,0.0,0.0,0.0,0.3078,0.304,0.3068,0.2839,0.2708,0.2733,0.2459,0.2375,0.2375,0.223,0.2184,0.2184,0.2295,0.2459,0.2623,0.2459,0.2436,0.2558,0.0,0.0,0.0,0.0,0.0,0.0,0.0,0.0,0.0,0.0,0.0,0.0,0.0,0.0,0.0,0.0,0.0,0.0,0.0,0.0,0.0,0.0,0.0,0.0,0.0,0.0,0.0,0.0,0.0,0.0,0.0,0.0,0.0,0.0,0.0,0.0,0.0,0.0,0.0,0.0,0.0,0.0,0.0,0.0,0.0,0.0,0.0,0.0,0.0,0.0,0.0,0.0,0.0,0.0,0.0,0.0,0.0,0.0,0.0,0.0,0.0,0.0,0.0,0.0,0.0,0.0,0.0,0.0,0.0,0.0,0.3793,0.3844,0.0,0.0,0.0,0.0,0.0,0.0,0.0,0.0,0.0,0.0,0.0,0.0,0.0,0.0,0.0,0.0,0.0,0.0,0.0,0.0,0.0,0.0,0.0,0.3181,0.3181,0.3181,0.2987,0.291,0.2902,0.2661,0.2476,0.2461,0.2232,0.2143,0.2143,0.1893,0.1795,0.1851,0.2132,0.2244,0.2188,0.2188,0.232,0.2526,0.1935,0.0,0.0,0.0,0.0,0.0,0.0,0.0,0.0,0.0,0.0,0.0,0.0,0.0,0.0,0.0,0.0,0.0,0.0,0.0,0.0,0.0,0.0,0.0,0.0,0.0,0.0,0.0,0.0,0.0,0.0,0.0,0.0,0.0,0.0,0.0,0.0,0.0,0.0,0.0,0.0,0.0,0.0,0.0,0.0,0.0,0.0,0.0,0.0,0.0,0.0,0.0,0.0,0.0,0.0,0.0,0.0,0.0,0.0,0.0,0.0,0.0,0.0,0.0,0.3324,0.3348,0.3391,0.3391,0.3415,0.3389,0.3362,0.353,0.3877,0.3877,0.0,0.0,0.0,0.0,0.0,0.0,0.0,0.0,0.0,0.0,0.0,0.0,0.0,0.0,0.0,0.0,0.0,0.0,0.0,0.0,0.0,0.3181,0.3181,0.3181,0.3227,0.3158,0.2905,0.2724,0.2502,0.2234,0.1994,0.1844,0.1844,0.1793,0.1908,0.2132,0.2468,0.2468,0.2188,0.2188,0.2239,0.2229,0.195,0.1783,0.1783,0.0,0.0,0.0,0.0,0.0,0.0,0.0,0.0,0.0,0.0,0.0,0.0,0.0,0.0,0.0,0.0,0.0,0.0,0.0,0.0,0.0,0.0,0.0,0.0,0.0,0.0,0.0,0.0,0.0,0.0,0.0,0.0,0.0,0.0,0.0,0.0,0.0,0.0,0.0,0.0,0.0,0.33,0.3643,0.0,0.0,0.0,0.0,0.0,0.0,0.0,0.0,0.0,0.0,0.0,0.0,0.0,0.3487,0.2583,0.2619,0.2207,0.1348,0.1348,0.135,0.1352,0.1352,0.1354,0.1356,0.1351,0.0,0.3879,0.3879,0.0,0.0,0.0,0.0,0.0,0.0,0.0,0.0,0.0,0.0,0.0,0.0,0.0,0.0,0.0,0.0,0.0,0.0,0.0,0.0,0.0,0.3181,0.3181,0.3181,0.2979,0.2812,0.2685,0.2373,0.2087,0.1997,0.1844,0.1795,0.1795,0.1795,0.1908,0.2188,0.2356,0.2356,0.2188,0.2188,0.2132,0.1964,0.1851,0.1795,0.1795,0.1795,0.0,0.0,0.0,0.0,0.0,0.0,0.0,0.0,0.0,0.0,0.0,0.0,0.0,0.0,0.0,0.0,0.0,0.0,0.0,0.0,0.0,0.0,0.0,0.0,0.0,0.0,0.0,0.0,0.0,0.0,0.0,0.0,0.0,0.0,0.0,0.0,0.0,0.0,0.0,0.2597,0.2797,0.3146,0.2401,0.2294,0.0,0.0,0.0,0.0,0.0,0.0,0.0,0.0,0.0,0.2235,0.2251,0.2076,0.1586,0.1659,0.1418,0.0986,0.0986,0.0986,0.0986,0.0986,0.0986,0.0986,0.0986,0.148,0.2282,0.2282,0.2282,0.2221,0.0,0.0,0.0,0.0,0.2282,0.3086,0.0,0.0,0.0,0.0,0.0,0.0,0.0,0.0,0.0,0.0,0.0,0.0,0.3181,0.3181,0.3187,0.3149,0.2843,0.2579,0.2411,0.2072,0.1882,0.1794,0.1795,0.1795,0.1795,0.1851,0.1964,0.2076,0.2188,0.2188,0.2076,0.2076,0.1964,0.1795,0.1795,0.1795,0.1795,0.1795,0.1795,0.1795,0.0,0.0,0.0,0.0,0.0,0.0,0.0,0.0,0.0,0.0,0.0,0.0,0.0,0.0,0.0,0.0,0.0,0.0,0.0,0.0,0.0,0.0,0.0,0.0,0.0,0.0,0.0,0.0,0.0,0.0,0.0,0.0,0.0,0.0,0.0,0.0,0.0,0.217,0.2429,0.2309,0.1424,0.1309,0.0,0.0,0.0,0.0,0.0,0.0,0.0308,0.0739,0.0986,0.0986,0.0986,0.0863,0.0616,0.0616,0.0493,0.0247,0.0247,0.0247,0.0247,0.0247,0.0247,0.0247,0.0247,0.0247,0.0247,0.0802,0.0986,0.0986,0.074,0.0802,0.0986,0.074,0.1233,0.2096,0.0,0.0,0.0,0.0,0.0,0.0,0.0,0.0,0.0,0.0,0.0,0.237,0.3128,0.3181,0.3101,0.2949,0.295,0.2735,0.2237,0.222,0.2074,0.1795,0.1795,0.1795,0.1795,0.2076,0.2076,0.1795,0.2076,0.2076,0.1795,0.1795,0.1795,0.1795,0.1795,0.1795,0.1795,0.1795,0.1795,0.1795,0.1795,0.0,0.0,0.0,0.0,0.0,0.0,0.0,0.0,0.0,0.0,0.0,0.0,0.0,0.0,0.0,0.0,0.0,0.0,0.0,0.0,0.0,0.0,0.0,0.0,0.0,0.0,0.0,0.0,0.0,0.0,0.0,0.0,0.0,0.0,0.0,0.0,0.0,0.0,0.1143,0.0974,0.0,0.0,0.0,0.0,-0.0431,-0.0369,0.0,0.0924,0.0986,0.0986,0.0986,0.0986,0.0555,-0.0431,-0.0431,-0.0925,-0.1852,-0.1852,-0.1852,-0.1852,-0.1852,-0.1852,-0.1852,-0.1852,-0.1852,-0.1729,0.0185,0.0986,0.0925,-0.0062,0.0185,0.0863,-0.0062,0.0185,0.1048,0.0,0.0,0.0,0.0,0.0,0.0,0.0,0.0,0.0,0.1106,0.1665,0.2118,0.2421,0.2725,0.2949,0.29,0.2584,0.2361,0.2184,0.2057,0.1908,0.1795,0.1795,0.1795,0.1795,0.1908,0.1908,0.1795,0.1908,0.1918,0.1824,0.1824,0.1835,0.1853,0.1853,0.1853,0.1851,0.1812,0.1795,0.1795,0.1795,0.1806,0.0,0.0,0.0,0.0,0.0,0.0,0.0,0.0,0.0,0.0,0.0,0.0,0.0,0.0,0.0,0.0,0.0,0.0,0.0,0.0,0.0,0.0,0.0,0.0,0.0,0.0,0.0,0.0,0.0,0.0,0.0,0.0,0.0,0.0,0.0,0.0,0.0,-0.0794,-0.1655,0.0,-0.0862,-0.2153,-0.2829,-0.2399,-0.2216,-0.2341,-0.277,-0.2401,-0.2156,-0.2156,-0.2156,-0.2341,-0.271,-0.2712,-0.2897,-0.3207,-0.3207,-0.3022,-0.2654,-0.3022,-0.2777,-0.2038,-0.2469,-0.2407,-0.1915,-0.1235,-0.0925,-0.0987,-0.1296,-0.1234,-0.0987,-0.1357,-0.0802,0.0062,0.0,0.0,0.0,0.0,0.0,0.0,0.0,0.0,-0.0498,0.0302,0.0858,0.1211,0.131,0.1622,0.1744,0.1513,0.1116,0.0919,0.0881,0.0668,0.0784,0.1177,0.157,0.1795,0.1795,0.1795,0.1795,0.1795,0.1805,0.182,0.1783,0.1851,0.1866,0.1885,0.1885,0.1885,0.1883,0.1843,0.1825,0.1825,0.1825,0.1838,0.1855,0.0,0.0,0.0,0.0,0.0,0.0,0.0,0.0,0.0,0.0,0.0,0.0,0.0,0.0,0.0,0.0,0.0,0.0,0.0,0.0,0.0,0.0,0.0,0.0,0.0,0.0,0.0,0.0,0.0,0.0,0.0,0.0,0.0,0.0,-0.153,-0.117,-0.246,-0.3384,-0.3507,-0.2399,-0.3692,-0.437,-0.3937,-0.3753,-0.394,-0.4558,-0.4127,-0.3881,-0.3881,-0.3881,-0.3892,-0.3976,-0.3976,-0.3984,-0.4006,-0.4006,-0.3818,-0.3445,-0.3818,-0.338,-0.2383,-0.2819,-0.2632,-0.2005,-0.2005,-0.2005,-0.2004,-0.1985,-0.1982,-0.199,-0.199,-0.1622,-0.1064,0.0,0.0,0.0,0.0,0.0,0.0,0.0,-0.1598,-0.1314,-0.0555,-0.0404,-0.0303,-0.005,-0.0103,-0.0417,-0.122,-0.1351,-0.1539,-0.179,-0.1791,-0.1288,-0.0056,0.1121,0.1739,0.1795,0.1795,0.1795,0.1797,0.1825,0.1784,0.1786,0.1873,0.1888,0.1888,0.1888,0.1888,0.1888,0.1888,0.1888,0.1888,0.1887,0.1887,0.1887,0.0,0.0,0.0,0.0,0.0,0.0,0.0,0.0,0.0,0.0,0.0,0.0,0.0,0.0,0.0,0.0,0.0,0.0,0.0,0.0,0.0,0.0,0.0,0.0,0.0,0.0,0.0,0.0,0.0,0.0,0.0,0.0,0.0,-0.3937,-0.2893,-0.2524,-0.3815,-0.3937,-0.3937,-0.3935,-0.5111,-0.5605,-0.4984,-0.4923,-0.4619,-0.4007,-0.3946,-0.3948,-0.3948,-0.3948,-0.404,-0.4164,-0.4164,-0.4195,-0.4254,-0.4254,-0.4254,-0.4254,-0.4254,-0.3868,-0.3162,-0.3162,-0.2773,-0.2193,-0.2193,-0.2128,-0.2123,-0.2064,-0.1996,-0.202,-0.202,-0.2102,-0.2257,0.0,0.0,0.0,0.0,0.0,0.0,0.0,-0.1611,-0.1516,-0.1314,-0.0757,-0.0505,-0.0857,-0.0564,-0.0626,-0.1273,-0.1513,-0.1704,-0.179,-0.1791,-0.1288,-0.0056,0.0336,0.0897,0.1795,0.1795,0.1806,0.1828,0.1779,0.1805,0.1846,0.1914,0.193,0.1952,0.1952,0.1952,0.1952,0.1952,0.1952,0.1948,0.1903,0.1899,0.1918,0.0,0.0,0.0,0.0,0.0,0.0,0.0,0.0,0.0,0.0,0.0,0.0,0.0,0.0,0.0,0.0,0.0,0.0,0.0,0.0,0.0,0.0,0.0,0.0,0.0,0.0,0.0,0.0,0.0,0.0,0.0,-0.536,-0.536,-0.536,-0.4186,-0.3876,-0.5172,-0.536,-0.5334,-0.5275,-0.5632,-0.5827,-0.5577,-0.5571,-0.5571,-0.5449,-0.5452,-0.5478,-0.5597,-0.5597,-0.5608,-0.5631,-0.5635,-0.5646,-0.5665,-0.5665,-0.5411,-0.4962,-0.5411,-0.5026,-0.3932,-0.4383,-0.4254,-0.361,-0.361,-0.3288,-0.2769,-0.2302,-0.2045,-0.2116,-0.2627,-0.3147,-0.3546,0.0,0.0,0.0,0.0,0.0,0.0,0.0,-0.1768,-0.1868,-0.1617,-0.1213,-0.1215,-0.2038,-0.1917,-0.2057,-0.2844,-0.3169,-0.3324,-0.3301,-0.2854,-0.2239,-0.1512,-0.1009,-0.0448,0.028,0.028,0.0283,0.023,0.0231,0.0529,0.1085,0.1092,0.1407,0.1977,0.1977,0.1977,0.1977,0.1977,0.1977,0.1974,0.1939,0.1934,0.1949,0.1949,0.1962,0.1977,0.1977,0.1977,0.1977,0.1977,0.0,0.0,0.0,0.0,0.0,0.0,0.0,0.0,0.0,0.0,0.0,0.0,0.0,0.0,0.0,0.0,0.0,0.0,0.0,0.0,0.0,0.0,0.0,0.0,-0.5916,-0.5933,-0.597,-0.5255,-0.5049,-0.5794,-0.5916,-0.5912,-0.5896,-0.5945,-0.5965,-0.5949,-0.5998,-0.6051,-0.6104,-0.6104,-0.6129,-0.6178,-0.6182,-0.6198,-0.6235,-0.6235,-0.6255,-0.6296,-0.6296,-0.61,-0.5773,-0.6165,-0.5708,-0.4726,-0.5119,-0.4854,-0.4265,-0.4265,-0.4002,0.0,0.0,0.0,0.0,0.0,-0.3609,-0.4199,0.0,0.0,0.0,0.0,0.0,0.0,0.0,-0.217,-0.2322,-0.1768,-0.1667,-0.2134,-0.3256,-0.3476,-0.3966,-0.5126,-0.5328,-0.5382,-0.5382,-0.4424,-0.3748,-0.358,-0.2574,-0.1959,-0.1791,-0.1795,-0.1868,-0.1899,-0.193,-0.1308,-0.0242,-0.0061,0.0617,0.179,0.1915,0.1977,0.1977,0.1977,0.1977,0.1977,0.1977,0.1977,0.1977,0.1977,0.1977,0.1977,0.1977,0.1977,0.1977,0.1977,0.0,0.0,0.0,0.0,0.0,0.0,0.0,0.0,0.0,0.0,0.0,0.0,0.0,0.0,0.0,0.0,0.0,0.0,0.0,0.0,0.0,0.0,0.0,0.0,-0.5933,-0.5965,-0.5992,-0.5998,-0.5945,-0.5945,-0.5945,-0.5974,-0.5984,-0.6001,-0.6096,-0.6161,-0.6174,-0.6186,-0.6194,-0.6194,0.0,0.0,0.0,-0.6264,-0.6345,-0.6357,-0.6402,-0.6551,-0.6551,-0.6551,-0.6551,-0.6551,-0.6147,-0.5541,-0.5541,-0.5201,-0.4591,-0.4591,-0.4524,-0.4375,-0.3535,-0.2936,-0.2514,-0.308,-0.3833,-0.4638,0.0,0.0,0.0,0.0,0.0,0.0,0.0,-0.2725,-0.2876,-0.2322,-0.2221,-0.254,-0.3308,-0.3476,-0.3966,-0.5126,-0.5328,-0.5382,-0.5382,-0.5154,-0.4592,-0.3636,-0.3357,-0.2798,-0.1847,-0.1873,-0.1901,-0.1873,-0.1961,-0.1871,-0.1594,-0.0492,0.0123,0.0432,0.1543,0.1977,0.1977,0.1977,0.1977,0.1977,0.1977,0.1977,0.1977,0.1977,0.1977,0.1977,0.1977,0.1977,0.1977,0.1977,0.1977,0.1977,0.1977,0.1977,0.0,0.0,0.0,0.0,0.0,0.0,0.0,0.0,0.0,0.0,0.0,0.0,0.0,0.0,0.0,0.0,0.0,0.0,0.0,-0.5952,-0.5964,-0.5992,-0.6145,-0.6141,-0.6129,-0.6129,-0.6129,-0.6108,-0.5996,-0.6117,-0.6133,-0.6021,-0.6141,-0.6215,-0.6288,-0.6292,-0.6325,-0.6465,-0.6472,-0.6521,-0.6537,-0.6611,-0.6656,-0.6676,-0.6676,0.0,-0.6676,-0.6676,-0.6603,-0.6464,-0.6464,-0.6395,-0.6256,-0.6256,-0.5906,-0.5263,-0.4381,-0.4342,-0.469,-0.423,-0.4906,-0.5982,0.0,0.0,0.0,0.0,0.0,0.0,0.0,-0.3078,-0.343,-0.2876,-0.2847,-0.314,-0.3776,-0.3893,-0.429,-0.5194,-0.5357,-0.5382,-0.5382,-0.5382,-0.5154,-0.4536,-0.448,-0.4201,-0.3639,-0.364,-0.37,-0.3763,-0.388,-0.3577,-0.2954,-0.2276,-0.1601,-0.0985,-0.0308,0.037,0.0987,0.0987,0.1358,0.1977,0.1977,0.1977,0.1977,0.1977,0.1977,0.1977,0.1977,0.1977,0.1977,0.1977,0.1977,0.1977,0.1977,0.1977,0.1729,0.0,0.0,0.0,0.0,0.0,0.0,0.0,0.0,0.0,0.0,0.0,0.0,0.0,0.0,-0.5933,-0.5916,0.0,-0.6014,-0.61,-0.6117,-0.6149,-0.6235,-0.6247,-0.6231,-0.6186,-0.6182,-0.6182,-0.6186,-0.6223,-0.6251,-0.6255,-0.6292,-0.6357,-0.6447,-0.6451,-0.6496,-0.6586,-0.6635,-0.666,-0.666,-0.6705,-0.6725,-0.6725,-0.6725,-0.6725,-0.6725,-0.6725,-0.6725,-0.6725,-0.6725,-0.6725,-0.6725,-0.6725,-0.6516,-0.6085,-0.5656,-0.5286,-0.5012,-0.494,-0.542,-0.6039,0.0,0.0,0.0,0.0,0.0,0.0,0.0,-0.3528,-0.3984,-0.343,-0.3485,-0.3757,-0.4252,-0.4378,-0.4673,-0.5318,-0.5382,-0.5382,-0.5382,-0.5382,-0.5382,-0.5382,-0.5382,-0.5382,-0.5382,-0.548,-0.5569,-0.5584,-0.5813,-0.5354,-0.4306,-0.406,-0.3446,-0.2339,-0.2093,-0.1416,-0.037,-0.0123,0.0617,0.1605,0.1915,0.1977,0.1977,0.1977,0.1977,0.1977,0.1977,0.1977,0.1977,0.1977,0.1852,0.1605,0.1605,0.142,0.0987,-0.037,-0.0739,0.0,0.0,0.0,0.0,0.0,0.0,0.0,0.0,-0.5916,-0.5916,-0.5916,-0.5933,-0.5965,-0.5976,-0.6005,-0.6104,-0.6194,-0.6206,-0.6239,-0.6329,-0.6341,-0.6317,-0.6243,-0.6235,-0.6264,-0.6337,-0.6341,-0.6374,-0.6514,-0.6539,-0.6513,-0.6586,-0.6607,-0.6651,-0.6725,-0.6741,-0.6749,-0.6749,-0.677,-0.6778,-0.6778,-0.6778,-0.6778,-0.6778,-0.6778,-0.6778,-0.6778,-0.6778,-0.6778,-0.6778,-0.6778,-0.6778,-0.6778,-0.6778,-0.607,-0.5149,-0.5611,-0.581,-0.588,0.0,0.0,0.0,0.0,0.0,0.0,0.0,0.0,-0.4533,-0.3984,-0.4048,-0.4177,-0.4305,-0.4378,-0.4673,-0.5318,-0.5382,-0.5382,-0.5382,-0.5382,-0.5382,-0.5382,-0.5382,-0.5382,-0.5382,-0.5545,-0.5576,-0.5584,-0.6116,-0.6088,-0.5671,-0.4739,-0.4122,-0.363,-0.2522,-0.1908,-0.1724,-0.0493,0.0062,0.0308,0.1543,0.1977,0.1977,0.1977,0.1977,0.1977,0.1977,0.1977,0.1977,0.1977,0.1234,0.0247,0.0247,-0.0616,-0.1785,-0.3075,-0.3446,-0.3753,-0.5111,-0.5548,-0.5732,-0.5855,-0.5916,-0.5916,0.0,-0.5916,-0.5916,-0.5916,-0.592,-0.5976,-0.5988,-0.6117,-0.6194,-0.6288,-0.63,-0.6333,-0.6494,-0.6506,-0.6502,-0.6489,-0.6489,-0.6494,-0.6506,-0.6506,-0.651,-0.6518,-0.6529,-0.6578,-0.659,-0.6668,-0.6717,-0.6725,-0.6798,-0.691,-0.691,-0.6921,-0.6962,-0.6962,-0.6962,-0.6962,-0.6962,-0.6962,-0.6962,-0.6962,-0.6962,-0.6962,-0.6962,-0.6962,-0.6962,-0.6962,-0.6962,-0.6885,-0.6725,-0.6641,-0.6585,-0.6585,0.0,0.0,0.0,0.0,0.0,0.0,0.0,0.0,0.0,-0.4483,-0.46,-0.4752,-0.4786,-0.4909,-0.5115,-0.5377,-0.5382,-0.5382,-0.5382,-0.5382,-0.5382,-0.5382,-0.5545,-0.5656,-0.5656,-0.6014,-0.617,-0.617,-0.6552,-0.653,-0.6158,-0.5786,-0.5356,-0.5049,-0.4496,-0.3817,-0.3016,-0.1724,-0.117,-0.1047,0.0062,0.0062,-0.0616,-0.0862,-0.0924,-0.0739,0.0432,0.0864,0.0,-0.0062,-0.0677,-0.117,-0.117,-0.1539,-0.2278,-0.3507,-0.3876,-0.4183,-0.5544,-0.5916,-0.5916,-0.5916,-0.5916,-0.5916,-0.5916,-0.5957,-0.5936,-0.5936,-0.6068,-0.6145,-0.6198,-0.6235,-0.6288,-0.6382,-0.6398,-0.6411,-0.6514,-0.6522,-0.6522,-0.6522,-0.6522,-0.6522,-0.6522,-0.65,-0.6533,-0.6533,-0.6619,-0.6692,-0.6741,-0.6778,-0.6823,-0.6876,-0.6913,-0.6933,-0.6933,-0.697,-0.699,-0.699,-0.699,-0.699,-0.699,-0.699,-0.699,-0.699,-0.699,-0.699,-0.699,-0.699,-0.699,-0.699,-0.699,-0.699,-0.6982,-0.6905,-0.688,-0.688,0.0,0.0,0.0,0.0,0.0,0.0,0.0,0.0,0.0,0.0,-0.501,-0.5128,-0.5177,-0.53,-0.5382,-0.5382,-0.5382,-0.5382,-0.5382,-0.5382,-0.5437,-0.5493,-0.5712,-0.5824,-0.5935,-0.6359,-0.6584,-0.6584,-0.6914,-0.6837,-0.6526,-0.6526,-0.6346,-0.6039,-0.5916,-0.536,-0.437,-0.32,-0.2647,-0.2585,-0.1538,-0.1723,-0.2647,-0.2891,-0.3011,-0.2827,-0.1354,-0.08,-0.0924,-0.1847,-0.2401,-0.2647,-0.2524,-0.277,-0.3262,-0.4186,-0.4432,-0.4677,-0.5605,-0.5916,-0.5916,-0.5916,-0.5916,-0.5925,-0.5949,-0.5944,-0.5996,-0.6021,-0.6157,-0.6239,-0.6304,-0.6337,-0.6378,-0.651,-0.6522,-0.6522,-0.6522,-0.6543,-0.656,-0.656,-0.6513,-0.6529,-0.6529,-0.6566,-0.659,-0.659,-0.6696,-0.679,-0.6923,-0.6947,-0.6921,-0.6986,-0.699,-0.699,-0.699,-0.699,-0.699,-0.699,-0.699,-0.699,-0.699,-0.699,-0.699,-0.699,-0.699,-0.699,-0.699,-0.699,-0.699,-0.699,-0.699,-0.699,-0.699,-0.699,-0.699,-0.699,0.0,0.0,0.0,0.0,0.0,0.0,0.0,0.0,0.0,0.0,0.0,0.0,0.0,-0.5377,-0.5382,-0.5382,-0.5382,-0.5382,-0.5382,-0.5382,-0.5493,-0.5768,-0.5824,-0.5935,-0.6274,-0.6474,-0.6584,-0.6584,-0.7155,-0.7204,-0.6898,-0.6898,-0.6714,-0.6342,-0.6039,-0.5855,-0.5794,-0.4739,-0.4309,-0.4244,-0.3259,-0.2827,-0.2889,-0.2889,-0.295,-0.3011,-0.295,-0.2889,-0.2768,-0.2585,-0.3323,-0.4244,-0.3937,-0.4739,-0.5794,-0.5855,-0.5855,-0.5855,-0.5916,-0.5916,-0.5916,-0.5916,-0.5916,-0.5941,-0.5968,-0.5988,-0.6013,-0.6157,-0.6251,-0.6313,-0.6317,-0.639,-0.6518,-0.6522,-0.6522,-0.6522,-0.6522,-0.6529,-0.6586,-0.6586,-0.6664,-0.6717,-0.6717,-0.6639,-0.659,-0.659,-0.6749,-0.6923,-0.6923,-0.6937,-0.6986,-0.699,-0.699,-0.699,-0.699,-0.699,-0.699,-0.699,-0.699,-0.699,-0.699,-0.699,-0.699,-0.699,-0.699,-0.699,-0.699,-0.699,-0.699,-0.699,-0.699,-0.699,-0.699,-0.699,-0.699,-0.699,0.0,0.0,0.0,0.0,0.0,0.0,0.0,0.0,0.0,0.0,0.0,0.0,0.0,0.0,0.0,0.0,-0.5996,-0.5996,-0.5996,-0.5768,-0.5712,-0.5824,-0.5991,-0.6163,-0.6274,-0.6882,-0.7227,-0.7227,-0.7577,-0.7566,-0.7204,-0.7204,-0.7082,-0.6714,-0.6591,-0.6591,-0.6469,-0.523,-0.523,-0.5974,-0.4981,-0.5104,-0.5904,-0.6145,-0.6206,-0.6267,0.0,-0.5406,-0.4364,-0.5168,-0.5724,-0.6035,-0.5908,-0.6035,-0.6158,-0.5978,-0.5916,-0.5916,-0.5916,-0.5916,-0.5916,-0.5916,-0.5961,-0.5952,-0.5984,-0.6081,-0.6235,-0.6264,-0.6345,-0.6406,-0.6406,-0.6498,-0.6543,-0.6533,-0.6545,-0.6566,-0.6627,-0.666,-0.668,-0.668,-0.6709,-0.6725,-0.6725,-0.6749,-0.6766,-0.6766,-0.6876,-0.6945,-0.6945,-0.6974,-0.699,-0.699,-0.699,-0.7019,-0.708,-0.708,-0.7109,-0.717,-0.717,-0.717,-0.717,-0.717,-0.717,-0.717,-0.717,-0.717,-0.717,-0.717,-0.717,-0.717,-0.717,-0.717,-0.717,-0.717,-0.7133,-0.7072,0.0,0.0,0.0,0.0,0.0,0.0,0.0,0.0,0.0,0.0,0.0,0.0,0.0,0.0,0.0,0.0,0.0,-0.6274,-0.6274,-0.6102,-0.6047,-0.6102,-0.6325,-0.6492,-0.6604,-0.7127,-0.7475,-0.7519,-0.7714,-0.7773,-0.7566,-0.7449,-0.7266,-0.7082,-0.6959,-0.6903,-0.6837,-0.6088,-0.6276,-0.7021,-0.6521,-0.6827,-0.7627,-0.7811,-0.7872,0.0,-0.7872,-0.7072,-0.6084,-0.6832,-0.7021,-0.6898,-0.6775,-0.6469,-0.6158,-0.5978,-0.5916,-0.5916,-0.5916,-0.5916,-0.5925,-0.5957,-0.5948,-0.6009,-0.6069,-0.63,-0.6526,-0.6555,-0.6743,-0.6857,-0.6857,-0.6786,-0.6686,-0.6778,-0.6659,-0.6623,-0.6713,-0.6754,-0.677,-0.677,-0.6798,-0.6819,-0.6819,-0.6868,-0.696,-0.6927,-0.6937,-0.699,-0.699,-0.699,-0.7003,-0.7035,-0.7039,-0.708,-0.7174,-0.7174,-0.7207,-0.7264,-0.7264,-0.7264,-0.7264,-0.7264,-0.7264,-0.7264,-0.7264,-0.7264,-0.7264,-0.7264,-0.7264,-0.7264,-0.7264,-0.7415,-0.7486,-0.7486,-0.7523,-0.7529,0.0,0.0,0.0,0.0,0.0,0.0,0.0,0.0,0.0,0.0,0.0,0.0,0.0,0.0,0.0,0.0,0.0,0.0,-0.633,-0.633,-0.6442,-0.6715,-0.6715,-0.6826,-0.7154,-0.7274,-0.7336,-0.7508,-0.7638,-0.7758,-0.7861,-0.7566,-0.7444,-0.7388,-0.7082,-0.6959,-0.6959,-0.7266,-0.7444,-0.7449,-0.775,-0.7872,-0.7872,-0.7872,-0.7872,-0.7872,-0.7872,-0.7872,-0.7872,-0.7505,-0.7204,-0.6837,-0.6526,-0.6158,-0.5916,-0.5916,-0.5916,-0.5916,-0.5916,-0.5916,-0.5941,-0.5968,-0.5992,-0.6104,-0.628,-0.6653,-0.6946,-0.7031,-0.7254,-0.7526,-0.7531,-0.7263,-0.7027,-0.7128,-0.6808,-0.6635,-0.6729,-0.6811,-0.6931,-0.6931,-0.6937,-0.699,-0.699,-0.699,-0.6954,-0.6939,-0.6941,-0.699,-0.699,-0.6994,-0.7035,-0.7121,-0.7129,-0.7178,-0.7268,-0.7276,-0.7276,-0.7276,-0.7276,-0.7276,-0.7276,-0.7276,-0.7276,-0.7276,-0.7276,-0.7276,-0.7276,-0.7276,-0.7352,-0.7352,-0.7352,-0.7578,-0.7951,-0.7951,-0.8173,-0.8455,0.0,0.0,0.0,0.0,0.0,0.0,0.0,0.0,0.0,0.0,0.0,0.0,0.0,0.0,0.0,0.0,0.0,0.0,-0.6988,-0.6715,-0.6604,-0.6715,-0.6715,-0.6715,-0.6821,-0.7161,-0.7293,-0.7325,-0.7595,-0.7714,-0.7747,-0.7773,-0.775,-0.775,-0.7689,-0.7627,-0.7627,-0.775,-0.775,-0.7811,-0.7872,-0.7872,-0.7872,-0.7872,-0.7872,-0.7872,-0.7872,-0.7872,-0.7872,-0.7505,-0.7204,-0.6837,-0.6526,-0.6342,-0.6223,-0.5978,-0.5916,-0.5916,-0.5916,-0.5916,-0.5941,-0.5968,-0.6294,-0.6567,-0.6688,-0.7035,-0.736,-0.7388,-0.7459,-0.755,-0.7622,-0.7364,-0.715,-0.7323,-0.7068,-0.6819,-0.6909,-0.6941,-0.6954,-0.6954,-0.6974,-0.699,-0.699,-0.699,-0.6978,-0.6958,-0.6974,-0.699,-0.699,-0.7056,-0.7101,-0.7125,-0.719,-0.7268,-0.7358,-0.7423,-0.746,-0.746,-0.746,-0.746,-0.746,-0.746,-0.746,-0.746,-0.746,-0.746,-0.746,-0.746,-0.7692,-0.8006,-0.8006,-0.8238,-0.8543,-0.8543,-0.8573,-0.8574,0.0,0.0,0.0,0.0,0.0,0.0,0.0,0.0,0.0,0.0,0.0,0.0,0.0,0.0,0.0,0.0,0.0,0.0,0.0,-0.7043,-0.6937,-0.6937,-0.6937,-0.6937,-0.6937,-0.7164,-0.7285,-0.7277,-0.7475,-0.7595,-0.7703,-0.7769,-0.7823,-0.7872,-0.7872,-0.7872,-0.7872,-0.7872,-0.7872,0.0,0.0,-0.7872,-0.7872,-0.7872,-0.7872,-0.7872,-0.7872,-0.7689,-0.7444,-0.7266,-0.6959,-0.6653,-0.628,-0.6158,-0.6162,-0.5978,-0.5916,-0.5916,-0.5916,-0.5945,-0.5998,-0.6088,-0.6306,-0.6593,-0.6885,-0.7218,-0.7526,-0.7727,-0.7895,-0.8085,-0.8141,-0.7918,-0.7659,-0.7686,-0.7353,-0.7103,-0.6978,-0.699,-0.699,-0.699,-0.699,-0.699,-0.699,-0.699,-0.699,-0.699,-0.699,-0.699,-0.699,-0.7076,-0.7145,-0.7186,-0.7272,-0.7362,-0.7448,-0.7501,-0.7525,-0.7525,-0.7525,-0.7525,-0.7525,-0.7525,-0.7525,-0.7525,-0.7525,-0.7603,-0.7842,-0.7842,-0.8076,-0.8471,-0.8471,-0.87,-0.909,-0.909,-0.9128,-0.9228,0.0,0.0,0.0,0.0,0.0,0.0,0.0,0.0,0.0,0.0,0.0,0.0,0.0,0.0,0.0,0.0,0.0,0.0,0.0,0.0,0.0,-0.721,-0.721,-0.721,-0.721,-0.721,-0.7203,-0.7312,-0.7271,-0.7453,-0.7676,-0.7693,-0.7763,-0.7872,-0.7872,-0.7872,-0.7872,-0.7872,-0.7872,-0.7872,-0.7872,-0.7872,-0.7872,0.0,-0.7872,-0.7872,-0.7872,-0.7505,-0.6959,-0.6903,-0.6653,-0.628,-0.5978,-0.5916,-0.5916,-0.5916,-0.5916,-0.5916,-0.5916,-0.5924,-0.6009,-0.6157,-0.6312,-0.6473,-0.6965,-0.7321,-0.766,-0.8056,-0.8485,-0.8774,-0.8791,-0.8613,-0.8378,-0.814,-0.7732,-0.733,-0.7123,-0.7063,-0.699,-0.699,-0.699,-0.699,-0.699,-0.699,-0.699,-0.699,-0.7003,-0.7007,-0.7007,-0.7092,-0.719,-0.7297,-0.737,-0.7444,-0.7525,-0.7525,-0.7525,-0.7525,-0.7525,-0.7525,-0.7603,-0.7603,-0.7603,-0.7681,-0.7681,-0.792,-0.8315,-0.8315,-0.8549,-0.8856,-0.8856,-0.909,-0.948,-0.948,-0.9708,-1.0019,0.0,0.0,0.0,0.0,0.0,0.0,0.0,0.0,0.0,0.0,-0.6963,-0.7043,0.0,0.0,0.0,0.0,0.0,0.0,0.0,0.0,0.0,0.0,-0.721,-0.721,-0.721,-0.721,-0.7221,-0.7243,-0.7285,-0.741,-0.7551,-0.7655,-0.7763,-0.7872,-0.7872,-0.7872,-0.7872,-0.7872,-0.7872,-0.7872,-0.7872,-0.7872,-0.7872,-0.7872,0.0,0.0,-0.7872,-0.7627,-0.7266,-0.7021,-0.6469,-0.5978,-0.5916,-0.5916,-0.5916,-0.5916,-0.5916,-0.5916,-0.5916,-0.5924,-0.6009,-0.6157,-0.6506,-0.6929,-0.7298,-0.7727,-0.8123,-0.8456,-0.8687,-0.8802,-0.8899,-0.8664,-0.8495,-0.8539,-0.7977,-0.7548,-0.7494,-0.7208,-0.699,-0.699,-0.699,-0.699,-0.699,-0.699,-0.699,-0.699,-0.706,-0.7101,-0.7101,-0.719,-0.7313,-0.7476,-0.7493,-0.7509,-0.7525,-0.7525,-0.7525,-0.7525,-0.7525,-0.7686,-0.808,-0.808,-0.8232,-0.8544,-0.8544,0.0,-0.87,-0.87,-0.8934,-0.9324,-0.9324,-0.9558,-0.9864,-0.9864,-0.9942,-1.0019,0.0,0.0,0.0,0.0,0.0,0.0,0.0,-0.6725,-0.6844,-0.697,-0.7139,-0.721,-0.721,-0.721,0.0,0.0,0.0,0.0,0.0,0.0,0.0,0.0,0.0,0.0,-0.721,-0.721,-0.721,-0.721,0.0,-0.7334,-0.7519,-0.7578,-0.7698,-0.7872,-0.7872,-0.7872,-0.7872,-0.7872,-0.7872,-0.7872,-0.7872,-0.7872,-0.7872,0.0,0.0,0.0,-0.7872,-0.7689,-0.7388,-0.7204,-0.6714,-0.6162,-0.5978,-0.5916,-0.5916,-0.5916,-0.5916,-0.5916,-0.5916,-0.6014,-0.6129,-0.617,-0.648,-0.6863,-0.7379,-0.766,-0.7922,-0.8523,-0.8736,-0.8883,-0.8874,-0.8883,-0.8878,-0.8719,-0.844,-0.8073,-0.786,-0.757,-0.7276,-0.7276,-0.7135,-0.699,-0.699,-0.699,-0.699,-0.699,-0.7076,-0.7125,-0.7125,-0.7256,-0.739,-0.7521,-0.7525,-0.7525,-0.7525,-0.7764,-0.7842,-0.7842,-0.8076,-0.831,-0.8549,-0.8549,-0.8622,-0.8778,-0.8778,-0.8934,-0.909,-0.909,-0.9324,-0.9708,-0.9708,-0.9864,-1.0019,-1.0019,-1.0019,-1.0019,0.0,0.0,0.0,0.0,0.0,0.0,0.0,-0.6741,-0.6855,-0.7002,-0.7155,-0.721,-0.721,-0.721,-0.721,0.0,0.0,0.0,0.0,0.0,0.0,0.0,0.0,0.0,0.0,0.0,0.0,-0.721,-0.721,0.0,0.0,0.0,0.0,0.0,-0.7872,-0.7872,-0.7872,-0.7872,-0.7872,0.0,0.0,-0.7872,0.0,0.0,0.0,0.0,0.0,-0.775,-0.7505,-0.7449,-0.7077,-0.6526,-0.6223,-0.6039,-0.5916,-0.5916,-0.5916,-0.5921,-0.5941,-0.6059,-0.6186,-0.6206,-0.6333,-0.6656,-0.7326,-0.7526,-0.7732,-0.8488,-0.8802,-0.889,-0.8917,-0.916,-0.9235,-0.8874,-0.8729,-0.8584,-0.8295,-0.7856,-0.7566,-0.7566,-0.7276,-0.699,-0.699,-0.699,-0.699,-0.699,-0.7166,-0.7236,-0.7182,-0.7333,-0.7529,-0.7681,-0.7681,-0.7681,-0.7759,-0.8154,-0.8315,-0.8315,-0.8627,-0.8856,-0.8934,-0.8934,-0.9012,-0.909,-0.909,-0.9246,-0.9558,-0.9558,-0.9708,-1.0019,-1.0019,-1.0019,-1.0019,-1.0019,-1.0019,-1.0019,0.0,0.0,0.0,0.0,0.0,0.0,0.0,-0.6796,-0.6883,-0.7166,-0.7204,-0.721,-0.721,-0.721,-0.721,0.0,0.0,0.0,0.0,0.0,0.0,0.0,0.0,0.0,0.0,0.0,0.0,-0.721,-0.721,0.0,0.0,0.0,0.0,0.0,0.0,-0.7872,-0.7872,-0.7872,0.0,0.0,0.0,0.0,0.0,0.0,0.0,0.0,0.0,-0.7872,-0.7811,-0.7505,-0.7383,-0.7266,-0.6898,-0.6407,-0.5916,-0.5916,-0.5916,-0.5937,-0.5956,-0.6108,-0.6202,-0.6284,-0.6382,-0.6656,-0.7326,-0.7526,-0.7756,-0.8595,-0.8861,-0.8917,-0.9025,-0.922,-0.9302,-0.923,-0.8946,-0.8657,-0.8657,-0.8073,-0.7566,-0.7566,-0.7276,-0.699,-0.699,-0.699,-0.699,-0.699,-0.752,-0.7658,-0.7362,-0.746,-0.7673,-0.8159,-0.8159,-0.8315,-0.87,-0.87,-0.8778,-0.8778,-0.8778,-0.9012,-0.9324,-0.9324,-0.9558,-0.9864,-0.9864,-0.9942,0.0,-0.9942,-0.9942,-1.0019,-1.0019,-1.0019,-1.0019,-1.0019,-1.0019,-1.0019,0.0,0.0,0.0,0.0,0.0,0.0,-0.6763,-0.6801,-0.6888,-0.7177,-0.721,-0.721,-0.721,-0.721,-0.721,0.0,0.0,0.0,0.0,0.0,0.0,0.0,0.0,0.0,0.0,0.0,-0.721,-0.721,-0.721,0.0,0.0,0.0,0.0,0.0,0.0,-0.7872,-0.7872,-0.7872,0.0,0.0,0.0,0.0,0.0,0.0,0.0,0.0,0.0,0.0,-0.7872,-0.775,-0.7566,-0.7388,-0.7266,-0.6898,-0.6469,-0.6285,-0.6039,-0.5937,-0.5964,-0.6117,-0.6202,-0.6292,-0.6581,-0.692,-0.7393,-0.766,-0.8025,-0.8679,-0.8867,-0.8922,-0.9041,-0.9226,-0.9302,-0.9302,-0.9157,-0.909,-0.909,-0.8579,-0.8145,-0.7933,-0.7566,-0.728,-0.699,-0.7204,-0.7542,-0.7882,-0.8113,-0.8232,-0.8243,-0.8288,-0.8388,-0.8544,-0.8544,-0.8622,-0.8778,-0.9012,-0.9168,-0.9168,-0.9402,-0.9636,-0.9786,-0.9786,-0.9864,-1.0019,-1.0019,-1.0019,0.0,-1.0019,-1.0019,-1.0019,-1.0019,-1.0019,-1.0019,-1.0019,-1.0175,-1.033,0.0,0.0,0.0,0.0,0.0,-0.6562,-0.6768,-0.6834,-0.6926,-0.7182,-0.721,-0.721,-0.721,-0.721,-0.721,-0.721,-0.721,0.0,0.0,0.0,0.0,0.0,0.0,0.0,0.0,0.0,-0.721,-0.721,-0.7248,-0.7142,0.0,0.0,-0.6896,-0.67,0.0,0.0,0.0,0.0,0.0,0.0,0.0,0.0,0.0,0.0,0.0,0.0,0.0,0.0,0.0,0.0,0.0,-0.7566,-0.7566,-0.7327,-0.6959,-0.6526,-0.6219,-0.6064,-0.6059,-0.6133,-0.621,-0.6329,-0.6668,-0.7121,-0.7393,-0.7794,-0.8231,-0.8722,-0.8894,-0.8927,-0.9155,-0.9253,-0.9302,-0.9302,-0.9302,-0.9302,-0.9302,-0.8946,-0.8584,-0.8295,-0.786,-0.7494,-0.7353,-0.757,-0.8016,-0.8595,-0.8685,-0.8783,-0.9153,-0.9168,-0.909,-0.9012,-0.9012,-0.9012,-0.9168,-0.9397,-0.9553,-0.9553,-0.9864,-1.0019,-1.0019,-1.0019,-1.0019,-1.0019,-1.0019,-1.0019,0.0,-1.0019,-1.0019,-1.0019,-1.0019,-1.0097,-1.0175,-1.0175,-1.0408,-1.0796,0.0,0.0,0.0,0.0,0.0,0.0,-0.6785,-0.6904,-0.7024,-0.7193,-0.721,-0.721,-0.721,-0.721,-0.721,-0.721,-0.721,0.0,0.0,0.0,0.0,0.0,0.0,0.0,0.0,0.0,-0.721,-0.721,-0.7274,-0.6699,-0.5518,-0.5665,-0.509,-0.3937,0.0,0.0,0.0,0.0,0.0,0.0,0.0,0.0,0.0,0.0,0.0,0.0,0.0,0.0,0.0,0.0,0.0,0.0,0.0,-0.7689,-0.7261,-0.6587,-0.6403,-0.6386,-0.6256,-0.6178,-0.6223,-0.6473,-0.6719,-0.7121,-0.7393,-0.7794,-0.8257,-0.8761,-0.8879,-0.8954,-0.9258,-0.9302,-0.9302,-0.9302,-0.9302,-0.9302,-0.9302,-0.8946,-0.8729,-0.8729,-0.8073,-0.7711,-0.8078,-0.8078,-0.8382,-0.904,-0.906,-0.9385,-0.9931,-1.0019,-0.9786,-0.9402,-0.9402,-0.9553,-1.0019,-1.0019,-1.0019,-1.0019,-1.0019,-1.0019,-1.0019,-1.0019,-1.0019,-1.0019,-1.0019,-1.0019,0.0,-1.0019,-1.0019,-1.0019,-1.0019,-1.0253,-1.0563,-1.0563,-1.0874,-1.1262,0.0,0.0,0.0,0.0,0.0,0.0,0.0,-0.6904,-0.7024,-0.7193,-0.721,-0.721,-0.721,-0.721,-0.721,-0.721,-0.721,0.0,0.0,0.0,0.0,0.0,0.0,0.0,0.0,0.0,-0.5986,-0.5986,-0.5176,-0.4623,-0.4347,-0.4356,-0.424,-0.3876,-0.3876,-0.4122,0.0,0.0,0.0,0.0,0.0,0.0,-0.6521,0.0,0.0,0.0,0.0,0.0,0.0,0.0,0.0,0.0,0.0,0.0,0.0,-0.7199,-0.6898,-0.676,-0.6833,-0.6887,-0.6937,-0.7142,-0.7455,-0.7789,-0.7856,-0.8189,-0.8526,-0.883,-0.8884,-0.8954,-0.9258,-0.9302,-0.9302,-0.9302,-0.9302,-0.9302,-0.9302,-0.9157,-0.9018,-0.8729,-0.8222,-0.8078,-0.844,-0.8512,-0.8821,-0.9425,-0.9516,-0.9618,-1.0008,-1.0019,-0.9942,-0.9786,-0.9786,-0.9864,-1.0019,-1.0019,-1.0019,-1.0019,-1.0019,-1.0019,-1.0019,-1.0019,-1.0019,-1.0019,-1.0019,-1.0019,-1.0019,-1.0019,-1.0175,-1.0408,-1.0408,-1.0719,-1.1107,-1.1107,-1.134,-1.1727,0.0,0.0,0.0,0.0,0.0,0.0,0.0,-0.6975,-0.7128,-0.7199,-0.721,-0.721,-0.721,-0.721,-0.721,-0.721,-0.721,0.0,0.0,0.0,0.0,0.0,0.0,0.0,0.0,-0.47,-0.47,-0.47,-0.4008,-0.3434,-0.3058,-0.3125,-0.2867,-0.2401,-0.2401,-0.271,0.0,0.0,0.0,0.0,0.0,0.0,-0.523,0.0,0.0,0.0,0.0,0.0,0.0,0.0,0.0,0.0,0.0,0.0,0.0,0.0,-0.7444,-0.7249,-0.7214,-0.7207,-0.726,-0.7474,-0.7794,-0.8123,-0.8123,-0.839,-0.8655,-0.883,-0.8884,-0.8954,-0.9258,-0.9302,-0.9302,-0.9302,-0.9302,-0.9302,-0.9302,-0.9302,-0.9157,-0.8729,-0.8584,-0.8584,-0.8657,-0.8874,-0.9097,-0.9584,-0.9644,-0.9753,-0.9943,-0.9992,-1.0019,-1.0019,-1.0019,-1.0019,-1.0019,-1.0019,-1.0019,-1.0019,-1.0019,-1.0019,-1.0019,-1.0019,-1.0019,-1.0019,-1.0019,-1.0019,0.0,-1.0175,-1.0408,-1.0641,-1.0796,-1.1107,-1.1495,-1.1495,-1.1805,-1.2114,0.0,0.0,0.0,0.0,0.0,0.0,0.0,-0.7029,-0.7099,-0.721,-0.7099,-0.7099,-0.721,-0.721,-0.721,-0.721,0.0,0.0,0.0,0.0,0.0,0.0,0.0,0.0,0.0,-0.3469,-0.3471,-0.3474,-0.3532,-0.2882,-0.1651,-0.1824,-0.1172,0.0,0.0,-0.0679,0.0,0.0,0.0,0.0,-0.5107,-0.4862,0.0,0.0,0.0,0.0,0.0,0.0,0.0,0.0,0.0,0.0,0.0,0.0,0.0,0.0,0.0,0.0,0.0,-0.7271,-0.7324,-0.754,-0.7861,-0.8123,-0.8123,-0.839,0.0,-0.883,-0.8884,-0.8954,-0.9258,-0.9302,-0.9302,-0.9302,-0.9302,-0.9302,-0.9302,-0.9302,-0.9157,-0.8801,-0.909,-0.9157,-0.8801,-0.909,-0.9356,-0.9476,-0.9601,-0.972,-0.9829,-0.9954,-1.0019,-1.0019,-1.0019,-1.0019,-1.0019,-1.0019,-1.0019,-1.0019,-1.0019,-1.0019,-1.0019,-1.0019,-1.0019,0.0,-1.0019,-1.0019,-1.0097,-1.0486,-1.0641,-1.0719,-1.1184,-1.1572,-1.196,-1.196,-1.2192,-1.2501,0.0,0.0,0.0,0.0,0.0,0.0,0.0,0.0,0.0,0.0,-0.6376,-0.6149,-0.7099,-0.721,-0.721,0.0,0.0,0.0,0.0,0.0,0.0,0.0,0.0,0.0,0.0,-0.2239,-0.2196,-0.2224,-0.134,-0.0711,-0.042,-0.0428,-0.0308,0.0,0.0,-0.0185,-0.0494,0.0,0.0,0.0,-0.2773,-0.2712,0.0,0.0,0.0,0.0,-0.3999,-0.5226,0.0,0.0,0.0,0.0,0.0,0.0,0.0,0.0,-0.7999,-0.804,-0.8002,0.0,-0.8033,-0.8265,-0.839,-0.8456,0.0,-0.8523,-0.8655,-0.883,-0.8884,-0.8954,-0.9258,-0.9302,-0.9302,-0.9302,-0.9302,-0.9302,-0.9302,-0.9302,-0.923,-0.9157,-0.923,-0.923,-0.9157,-0.923,-0.9356,-0.9476,-0.9601,-0.972,-0.9829,-0.9954,-1.0019,-1.0019,-1.0019,-1.0019,-1.0019,-1.0019,-1.0019,-1.0019,-1.0019,-1.0019,-1.0019,-1.0019,-1.0019,-1.0019,-1.033,-1.0486,-1.0486,-1.0952,-1.134,-1.1572,-1.1727,-1.2037,-1.2347,-1.2347,-1.2424,-1.2501,0.0,0.0,0.0,0.0,0.0,0.0,0.0,0.0,0.0,0.0,0.0,0.0,0.0,0.0,0.0,0.0,0.0,0.0,0.0,0.0,0.0,0.0,0.0,0.0,-0.0953,-0.0953,-0.096,-0.0976,-0.0292,0.0,0.0,0.0,0.0,0.0,0.0,0.0,0.0,0.0,-0.0432,-0.1111,-0.1726,0.0,0.0,0.0,0.0,0.0,-0.3446,-0.4735,0.0,-0.7439,-0.7872,-0.7872,0.0,0.0,0.0,0.0,-0.8021,-0.8141,-0.8204,-0.8274,-0.8361,-0.8541,-0.859,-0.859,-0.859,-0.859,-0.8655,-0.883,-0.8884,-0.8954,-0.9258,-0.9302,-0.9302,-0.9302,-0.9302,-0.9302,-0.9302,-0.9302,-0.9302,-0.9302,-0.9302,-0.9302,-0.9302,-0.9302,-0.9334,-0.94,-0.9514,-0.9639,-0.9753,-0.9873,-0.9965,-1.0019,-1.0019,-1.0019,-1.0019,-1.0019,-1.0019,-1.0019,-1.0019,-1.0019,-1.0019,-1.0019,-1.0097,-1.0253,-1.0486,-1.0719,-1.0952,-1.1417,-1.1727,-1.1882,-1.2114,-1.2347,-1.2501,-1.2501,-1.2501,-1.2501,0.0,0.0,0.0,0.0,0.0,0.0,0.0,0.0,0.0,0.0,0.0,0.0,0.0,0.0,0.0,0.0,0.0,0.0,0.0,0.0,0.0,0.0,0.0,0.0,0.0,0.0,0.0,0.0,0.0,0.0,0.0,0.0,0.0,0.0,0.0,0.0,0.0,0.0,0.0,-0.0123,-0.1234,0.0,0.0,0.0,0.0,0.0,0.0,0.0,0.0,-0.7439,-0.7872,-0.7872,-0.7872,0.0,0.0,0.0,0.0,0.0,-0.8209,-0.8339,-0.847,-0.8562,-0.859,-0.859,-0.859,-0.859,-0.8655,-0.883,-0.8884,-0.8954,-0.9258,-0.9302,-0.9302,-0.9302,-0.9302,-0.9302,-0.9302,-0.9302,-0.9302,-0.9302,-0.9302,-0.9302,-0.9302,-0.9302,-0.9302,-0.9302,-0.9416,-0.953,-0.9633,-0.9764,-0.9883,-0.9987,-1.0008,-1.0019,-1.0019,-1.0019,-1.0019,-1.0019,-1.0019,-1.0019,-1.0097,-1.0097,-1.033,-1.0719,-1.0796,0.0,-1.1417,-1.1805,-1.196,-1.2037,-1.2347,-1.2501,-1.2501,-1.2501,-1.2501,-1.2501,0.0,0.0,0.0,0.0,0.0,0.0,0.0,0.0,0.0,0.0,0.0,0.0,0.0,0.0,0.0,0.0,0.0,0.0,0.0,0.0,0.0,0.0,0.0,0.0,0.0,0.0,0.0,0.0,0.0,0.0,0.0,0.0,0.0,0.0,0.0,0.0,0.0,0.0,0.0,0.0,-0.0247,0.0,0.0,0.0,0.0,0.0,0.0,0.0,0.0,-0.7439,-0.7872,-0.7872,-0.7872,0.0,0.0,0.0,0.0,0.0,-0.8167,-0.8394,-0.8568,-0.8584,-0.859,-0.859,-0.859,-0.859,-0.8655,-0.883,-0.8884,-0.8954,-0.9258,-0.9302,-0.9302,-0.9302,-0.9302,-0.9302,-0.9302,-0.9302,-0.9302,-0.9302,-0.9302,-0.9302,-0.9302,-0.9302,-0.9302,-0.9302,-0.9416,-0.9497,-0.9514,-0.972,-0.9845,-0.9867,-0.9965,-1.0019,-1.0019,-1.0019,-1.0019,-1.0019,-1.0019,-1.0175,-1.0486,-1.0486,-1.0796,-1.1184,0.0,-1.1727,-1.1805,-1.2269,-1.2424,-1.2424,-1.2501,-1.2501,-1.2501,-1.2501,-1.2501,-1.2481,0.0,0.0,0.0,0.0,0.0,0.0,0.0,0.0,0.0,0.0,0.0,0.0,0.0,0.0,0.0,0.0,0.0,0.0,0.0,0.0,0.0,-0.0056,0.0,0.0,0.0,0.0,0.0,0.0,0.0,0.0,0.0,0.0,0.0,0.0,0.0,0.0,0.0,0.0,0.0,-0.0062,0.0,0.0,0.0,0.0,0.0,0.0,0.0,0.0,0.0,0.0,-0.7872,-0.7872,-0.7872,0.0,0.0,0.0,0.0,0.0,-0.8318,-0.8459,-0.859,-0.859,-0.859,-0.859,-0.859,-0.859,-0.8655,-0.883,-0.8884,-0.8954,-0.9258,-0.9302,-0.9302,-0.9302,-0.9302,-0.9302,-0.9302,-0.9302,-0.9302,-0.9302,-0.9302,-0.9302,-0.9302,-0.9302,-0.9302,-0.9302,-0.9356,-0.9416,-0.9481,-0.959,-0.9704,-0.9835,-0.9894,-0.9954,-1.0019,-1.0253,-1.0253,-1.0019,-1.0253,-1.0408,-1.0641,-1.0874,-1.1184,-1.165,0.0,-1.2037,-1.2269,-1.2424,-1.2501,-1.2501,-1.2501,-1.2501,-1.2501,-1.2501,-1.2454,-1.2379,0.0,0.0,0.0,0.0,0.0,0.0,0.0,0.0,0.0,0.0,0.0,0.0,0.0,0.0,0.0,0.0,0.0,0.0,0.0,0.0,-0.0953,-0.0056,0.0,0.0,0.0,0.0,0.0,0.0,0.0,0.0,0.0,0.0,0.0,0.0,0.0,0.0,0.0,-0.0308,-0.0494,-0.0555,0.0,0.0,0.0,0.0,0.0,0.0,0.0,0.0,0.0,0.0,0.0,0.0,0.0,0.0,0.0,-0.8081,-0.8138,-0.8199,-0.8383,-0.8503,-0.859,-0.859,-0.859,-0.859,-0.859,-0.859,-0.8655,-0.883,-0.8884,-0.8954,-0.9258,-0.9302,-0.9302,-0.9302,-0.9302,-0.9302,-0.9302,-0.9302,-0.9302,-0.9302,-0.9302,-0.9302,-0.9302,-0.9302,-0.9302,-0.9302,-0.9302,-0.9345,-0.9438,-0.947,-0.9568,-0.9748,-0.9807,-0.9883,-1.0131,-1.0469,-1.0486,-1.0175,-1.0563,-1.0796,-1.0952,-1.1262,-1.165,-1.2037,-1.2037,-1.2192,-1.2501,-1.2501,-1.2501,-1.2501,-1.2501,-1.2501,-1.2501,-1.2501,-1.2413,-1.2284,0.0,0.0,0.0,0.0,0.0,0.0,0.0,0.0,0.0,0.0,0.0,0.0,0.0,0.0,0.0,0.0,0.0,0.0,0.0,0.0,-0.0112,0.0,0.0,0.0,0.0,0.0,0.0,0.0,0.0,0.0,0.0,0.0,0.0,0.0,0.0,0.0,-0.0062,-0.1357,-0.1849,-0.1849,-0.1973,0.0,0.0,0.0,0.0,0.0,0.0,0.0,0.0,0.0,0.0,0.0,0.0,0.0,-0.7955,-0.8081,-0.8138,-0.8199,-0.8383,-0.8503,-0.859,-0.859,-0.859,-0.859,-0.859,-0.859,-0.8655,-0.883,-0.8884,-0.8954,-0.9258,-0.9302,-0.9302,-0.9302,-0.9302,-0.9302,-0.9302,-0.9302,-0.9302,-0.9302,-0.9302,-0.9302,-0.9302,-0.9302,-0.9302,-0.9302,-0.9302,-0.9307,-0.9318,-0.9427,-0.9497,-0.9514,-0.9726,-0.9993,-1.0462,-1.0578,-1.0563,-1.0563,-1.1029,-1.1417,-1.1805,-1.1805,-1.2114,-1.2424,-1.2424,-1.2501,-1.2501,-1.2501,-1.2501,-1.2501,-1.2501,-1.2501,-1.2501,-1.2501,-1.2413,-1.2271,0.0,0.0,0.0,0.0,0.0,0.0,0.0,0.0,0.0,0.0,0.0,0.0,0.0,0.0,0.0,0.0,0.0,0.0,0.0,0.0,0.0,0.0,0.0,0.0,0.0,0.0,0.0,0.0,0.0,0.0,0.0,0.0,0.0,-0.0062,-0.0864,-0.1234,-0.1357,-0.2648,-0.3202,-0.3262,-0.4063,-0.394,0.0,0.0,0.0,0.0,0.0,0.0,0.0,0.0,-0.7872,-0.7872,-0.7872,-0.7872,-0.791,-0.8106,-0.8198,-0.828,-0.847,-0.8557,-0.859,-0.859,-0.859,-0.859,-0.859,-0.8644,-0.8747,-0.8847,-0.8944,-0.9111,-0.9275,-0.9302,-0.9302,-0.9302,-0.9302,-0.9302,-0.9302,-0.9302,-0.9302,-0.9302,-0.9302,-0.9302,-0.9302,-0.9302,-0.9302,-0.9302,-0.9302,-0.9302,-0.9302,-0.9345,-0.9551,-0.9849,-0.9945,-1.0214,-1.0832,-1.1115,-1.1337,-1.1417,-1.1572,-1.1727,-1.1882,-1.2192,-1.2347,-1.2501,-1.2501,-1.2501,-1.2501,-1.2501,-1.2501,-1.2501,-1.2501,-1.2501,-1.2501,-1.2501,-1.2413,-1.2271,0.0,0.0,0.0,0.0,0.0,0.0,0.0,0.0,0.0,0.0,0.0,0.0,0.0,0.0,0.0,0.0,0.0,0.0,0.0,0.0,0.0,0.0,0.0,0.0,0.0,0.0,0.0,0.0,0.0,0.0,0.0,-0.0432,-0.0617,-0.0679,-0.2034,-0.2587,-0.271,-0.3999,-0.4551,-0.4613,-0.5536,-0.5352,0.0,0.0,0.0,0.0,0.0,0.0,0.0,0.0,-0.7872,-0.7872,-0.7872,-0.796,-0.797,-0.8176,-0.8263,-0.8334,-0.8535,-0.859,-0.859,-0.859,-0.859,-0.8579,-0.8541,-0.8655,-0.8807,-0.8857,-0.9008,-0.9209,-0.9291,-0.9302,-0.9302,-0.9302,-0.9302,-0.9302,-0.9302,-0.9302,-0.9302,-0.9302,-0.9302,-0.9302,-0.9302,-0.9302,-0.9302,-0.9302,-0.9302,-0.9374,-0.9446,-0.9518,-0.9702,-1.0225,-1.0272,-1.0527,-1.1089,-1.1485,-1.1804,-1.2049,-1.2095,-1.2114,-1.2114,-1.2347,-1.2501,-1.2501,-1.2501,-1.2501,-1.2501,-1.2501,-1.2501,-1.2501,-1.2501,-1.2501,-1.2501,-1.2501,-1.244,-1.2338,0.0,0.0,0.0,0.0,0.0,0.0,0.0,0.0,0.0,0.0,0.0,0.0,0.0,0.0,0.0,0.0,0.0,0.0,0.0,0.0,0.0,0.0,0.0,0.0,0.0,0.0,0.0,0.0,0.0,0.0,-0.0062,-0.1357,-0.2034,-0.2096,-0.3323,-0.3937,-0.3999,-0.5352,-0.5908,-0.5908,-0.5908,-0.5908,-0.5908,0.0,0.0,0.0,0.0,0.0,0.0,0.0,-0.7872,-0.7872,-0.7872,-0.8015,-0.8141,-0.8198,-0.8323,-0.8443,-0.8557,-0.859,-0.859,-0.859,-0.8584,-0.8557,-0.8443,-0.86,-0.8807,-0.8857,-0.9139,-0.9302,-0.9302,-0.9302,-0.9302,-0.9302,-0.9302,-0.9302,-0.9302,-0.9302,-0.9302,-0.9302,-0.9302,-0.9302,-0.9302,-0.9302,-0.9302,-0.9302,-0.9302,-0.9446,-0.9879,-0.9879,-1.0095,-1.0455,-1.0584,-1.0804,-1.1317,-1.1534,-1.1911,-1.2291,-1.2433,-1.2501,-1.2501,-1.2501,-1.2501,-1.2501,-1.2501,-1.2501,-1.2501,-1.2501,-1.2501,-1.2501,-1.2501,-1.2501,-1.2501,-1.2501,-1.2501,-1.2481,0.0,0.0,0.0,0.0,0.0,0.0,0.0,0.0,0.0,0.0,0.0,0.0,0.0,0.0,0.0,0.0,0.0,0.0,0.0276,0.0111,0.0,0.0,0.0,0.0,0.0,0.0,0.0,0.0,0.0,-0.0494,-0.1419,-0.1788,-0.2466,-0.3384,-0.4739,-0.5291,-0.5414,-0.6766,-0.7317,-0.7317,-0.7317,-0.7317,-0.7317,0.0,0.0,0.0,0.0,0.0,0.0,0.0,0.0,0.0,-0.7872,-0.8015,-0.8141,-0.8198,-0.8323,-0.8443,-0.8557,-0.859,-0.859,-0.859,-0.8524,-0.8459,-0.8426,-0.86,-0.8829,-0.9035,-0.9198,-0.9302,-0.9302,-0.9302,-0.9302,-0.9302,-0.9302,-0.9302,-0.9302,-0.9302,-0.9302,-0.9302,-0.9302,-0.9302,-0.9302,-0.9302,-0.9302,-0.9302,-0.959,-0.9807,-0.9879,-1.0167,-1.0455,-1.0822,-1.0866,-1.1147,-1.1683,-1.1878,-1.2107,-1.2291,-1.2433,-1.2501,-1.2501,-1.2501,-1.2501,-1.2501,-1.2501,-1.2501,-1.2501,-1.2501,-1.2501,-1.2501,-1.2501,-1.2501,-1.2501,-1.2501,-1.2501,-1.2558,0.0,0.0,0.0,0.0,0.0,0.0,0.0,0.0,0.0,0.0,0.0673,0.0839,0.0,0.0,0.0,0.0439,0.0387,0.0,0.0221,0.0111,0.0,0.0,0.0,0.0,0.0,-0.0543,-0.0797,-0.0802,-0.0802,-0.1234,-0.2034,-0.3079,-0.394,-0.4735,-0.6088,-0.6705,-0.6766,-0.7561,-0.7872,-0.7872,-0.7872,-0.7872,-0.7872,0.0,0.0,0.0,0.0,0.0,0.0,0.0,0.0,0.0,-0.7872,-0.7986,-0.8138,-0.8214,-0.8356,-0.8497,-0.8568,-0.859,-0.859,-0.859,-0.8503,-0.8432,-0.8475,-0.8633,-0.8851,-0.9144,-0.9258,-0.9302,-0.9302,-0.9302,-0.9302,-0.9302,-0.9302,-0.9302,-0.9302,-0.9302,-0.9302,-0.9302,-0.9302,-0.9302,-0.9302,-0.9302,-0.9374,-0.9518,-0.9735,-1.0023,-1.0317,-1.0606,-1.0894,-1.126,-1.126,-1.1372,-1.1748,-1.1898,-1.2047,-1.2203,-1.2345,-1.2447,-1.2501,-1.2501,-1.2501,-1.2501,-1.2501,-1.2501,-1.2501,-1.2501,-1.2501,-1.2501,-1.2656,-1.2733,-1.2733,-1.2733,-1.2811,-1.2951,0.0,0.0,0.0,0.0,0.0,0.0,0.0,0.0,0.0,0.0391,0.0614,0.0833,0.0,0.0,0.0,0.0439,0.0384,0.0276,0.0056,0.0,0.0,0.0,0.0,-0.0057,-0.0177,-0.1375,-0.2064,-0.2157,-0.2157,-0.2219,-0.2404,-0.48,-0.597,-0.6154,-0.7378,-0.7867,-0.7856,-0.7856,-0.785,-0.7839,-0.7839,-0.7839,-0.7839,-0.785,0.0,0.0,0.0,0.0,0.0,0.0,0.0,0.0,-0.7994,-0.8103,-0.8236,-0.8236,-0.8399,-0.859,-0.859,-0.859,-0.859,-0.859,-0.8492,-0.8432,-0.8557,-0.8671,-0.8856,-0.9215,-0.9296,-0.9302,-0.9302,-0.9302,-0.9302,-0.9302,-0.9302,-0.9302,-0.9302,-0.9302,-0.9302,-0.9374,-0.9374,-0.9374,-0.9374,-0.9374,-0.9518,-0.9879,-0.9951,-1.0317,-1.0972,-1.1044,-1.1188,-1.1619,-1.1619,-1.1619,-1.1619,-1.1762,-1.1904,-1.204,-1.221,-1.2359,-1.2481,-1.2494,-1.2501,-1.2501,-1.2501,-1.2501,-1.2501,-1.2501,-1.2501,-1.2579,-1.2965,-1.312,-1.312,-1.312,-1.3351,-1.3667,0.0,0.0,0.0,0.0,0.0,0.0,0.0,0.0,0.011,0.0108,0.0162,0.0217,0.0219,0.0384,0.0,0.0384,0.0388,0.0389,0.0331,0.0111,0.0,0.0,0.0,-0.0519,-0.1529,-0.1853,-0.2487,-0.3507,-0.3507,-0.3999,-0.5046,-0.5659,-0.646,-0.75,-0.775,-0.7823,-0.7736,-0.7736,-0.7682,-0.7595,-0.7595,-0.7595,-0.7606,-0.7703,-0.7736,0.0,0.0,0.0,0.0,0.0,0.0,0.0,-0.861,-0.8664,-0.8614,-0.8614,-0.8595,-0.859,-0.859,-0.859,-0.859,-0.859,-0.8432,-0.8329,-0.8541,-0.8606,-0.8731,-0.9095,-0.9242,-0.9302,-0.9302,-0.9302,-0.9302,-0.9302,-0.9302,-0.9302,-0.9302,-0.9302,-0.9446,-0.9735,-0.9735,-0.9735,-0.9735,-1.0095,-1.0167,-0.9951,-1.0462,-1.0828,-1.0972,-1.1332,-1.1476,-1.1619,-1.1619,-1.1619,-1.1619,-1.1762,-1.1843,-1.1884,-1.2162,-1.2305,-1.2338,-1.2447,-1.2501,-1.2501,-1.2501,-1.2501,-1.2501,-1.2501,-1.2656,-1.2965,-1.3042,-1.3274,-1.3583,-1.3583,-1.366,-1.3744,0.0,0.0,0.0,0.0,0.0,0.0,0.0,0.0,0.0,0.0,0.0,0.0,0.0,0.011,0.0,0.0,0.0222,0.0223,0.0222,0.0056,0.0,0.0,0.0,-0.0632,-0.1999,-0.2607,-0.3547,-0.4858,-0.5471,-0.5843,-0.5908,-0.6582,-0.7169,-0.779,-0.779,-0.7725,-0.7616,-0.7616,-0.7578,-0.7519,-0.7519,-0.7551,-0.7611,-0.7676,-0.7736,-0.779,-0.785,0.0,0.0,0.0,0.0,0.0,0.0,0.0,-0.8945,-0.8817,-0.8841,-0.8784,-0.8651,-0.859,-0.8562,-0.8448,-0.8329,-0.8296,-0.8535,-0.859,-0.8709,-0.9128,-0.9264,-0.9302,-0.9302,-0.9302,-0.9302,-0.9302,-0.9302,-0.9302,-0.9302,-0.9446,-0.9663,-0.9879,-1.0095,-1.0167,-1.0167,-1.0383,-1.0455,-1.0462,-1.075,-1.1116,-1.126,-1.1476,-1.1619,-1.1619,-1.1619,-1.1619,-1.1619,-1.1694,-1.1762,-1.183,-1.1993,-1.2149,-1.2298,-1.2433,-1.2501,-1.2501,-1.2501,-1.2501,-1.2501,-1.2501,-1.2733,-1.312,-1.3274,-1.3667,-1.4053,-1.4053,-1.413,-1.4353,0.0,0.0,0.0,0.0,0.0,0.0,0.0,0.0,0.0,0.0,0.0,0.0,0.0,0.0,0.0,0.0,0.0,0.0,0.0,0.0,0.0,0.0,-0.0224,-0.0968,-0.2291,-0.3582,-0.4882,-0.6189,-0.7352,-0.7281,-0.6224,-0.7342,-0.778,-0.7671,-0.7671,-0.76,-0.7486,-0.7486,-0.7486,-0.7486,-0.7486,-0.7562,-0.7671,-0.7693,-0.7758,-0.7845,-0.7861,-0.7933,-0.8055,-0.8366,0.0,0.0,0.0,0.0,-0.934,-0.9092,-0.9019,-0.905,-0.8717,-0.859,-0.853,-0.8296,-0.8188,-0.8323,-0.8541,-0.8606,-0.8747,-0.9209,-0.9302,-0.9302,-0.9302,-0.9302,-0.9302,-0.9302,-0.9302,-0.9302,-0.9374,-0.9663,-0.9951,-1.0095,-1.0383,-1.0599,-1.0599,-1.0671,-1.075,-1.0972,-1.1044,-1.126,-1.1548,-1.1619,-1.1619,-1.1619,-1.1619,-1.1619,-1.1619,-1.1619,-1.1681,-1.1796,-1.1816,-1.1979,-1.2257,-1.24,-1.2481,-1.2501,-1.2501,-1.2501,-1.2501,-1.2579,-1.2811,-1.3274,-1.3667,-1.413,-1.4515,-1.4515,-1.4745,-1.4968,0.0,0.0,0.0,0.0,0.0,0.0,0.0,0.0,0.0,0.0,0.0,0.0,0.0,0.0,0.0,0.0,0.0,0.0,0.0,0.0,0.0,0.0,-0.1009,-0.2216,-0.3638,-0.4812,-0.6101,-0.7485,-0.7665,-0.7552,-0.7274,-0.7617,-0.766,-0.754,-0.754,-0.7475,-0.7304,-0.7304,-0.7304,-0.7304,-0.7304,-0.7432,-0.7557,-0.766,-0.7709,-0.7736,-0.7834,-0.8055,-0.8366,-0.8732,-0.8976,0.0,0.0,0.0,-0.9595,-0.9417,-0.9216,-0.905,-0.8717,-0.859,-0.853,-0.8296,-0.8318,-0.8426,-0.8557,-0.8671,-0.8851,-0.9226,-0.9302,-0.9302,-0.9302,-0.9302,-0.9302,-0.9302,-0.9302,-0.9446,-0.9735,-0.9879,-1.0167,-1.075,-1.09,-1.09,-1.09,-1.126,-1.1332,-1.1044,-1.1332,-1.1548,-1.1619,-1.1619,-1.1619,-1.1619,-1.1619,-1.1619,-1.1619,-1.1619,-1.1626,-1.1647,-1.1775,-1.1925,-1.2094,-1.225,-1.2386,-1.2501,-1.2501,-1.2501,-1.2501,-1.2888,-1.3274,-1.3667,-1.413,-1.4592,-1.4891,-1.4891,-1.4968,-1.4968,0.0,0.0,0.0,0.0,0.0,0.0,0.0,0.0,0.0,0.0,0.0,-0.0055,-0.0222,-0.0111,-0.0056,-0.0224,-0.0112,0.0,0.0,0.0,-0.028,-0.0953,-0.1512,-0.2715,-0.4742,-0.5326,-0.6246,-0.76,-0.76,-0.7535,-0.7415,-0.747,-0.747,-0.7415,-0.7415,-0.735,-0.7236,-0.7307,-0.7277,-0.7282,-0.741,-0.7513,-0.7627,-0.7682,-0.7741,-0.7862,-0.8099,-0.8244,-0.8488,-0.8976,-0.9214,-0.9374,-0.9975,0.0,0.0,0.0,-0.9804,-0.9588,-0.905,-0.8717,-0.8546,-0.8378,-0.8378,-0.8465,-0.8649,-0.8731,-0.8872,-0.9231,-0.9302,-0.9302,-0.9302,-0.9302,-0.9302,-0.9302,-0.9302,-0.9446,-0.9807,-1.0095,-1.0455,-1.0972,-1.1188,-1.1332,-1.1332,-1.1476,-1.1548,-1.1332,-1.1476,-1.1619,-1.1619,-1.1619,-1.1619,-1.1619,-1.1619,-1.1619,-1.1619,-1.1619,-1.1619,-1.1619,-1.1762,-1.1864,-1.1938,-1.2319,-1.2471,-1.2386,-1.2467,-1.2656,-1.2888,-1.3042,-1.3513,-1.413,-1.4284,-1.4669,-1.4968,-1.4968,-1.4968,-1.4968,0.0,0.0,0.0,0.0,0.0,0.0,0.0,0.0,0.0,0.0,0.0,-0.0227,-0.0511,0.0,0.0,0.0,-0.0398,-0.034,-0.0564,-0.0508,-0.1013,-0.2183,-0.2574,-0.3608,-0.5439,-0.5785,-0.6455,-0.747,-0.747,-0.741,-0.729,-0.7266,-0.7277,-0.7277,-0.7277,-0.7285,-0.7209,-0.7328,-0.7342,-0.7437,-0.7529,-0.7638,-0.7741,-0.7741,-0.7796,-0.7933,-0.8183,-0.8366,-0.861,-0.9037,-0.93,-0.9555,-1.0132,-1.0304,0.0,0.0,0.0,-0.9927,-0.9389,-0.9056,-0.8828,-0.8579,-0.8568,-0.8646,-0.8793,-0.8796,-0.891,-0.9237,-0.9302,-0.9302,-0.9302,-0.9302,-0.9302,-0.9446,-0.9446,-0.959,-1.0095,-1.0455,-1.075,-1.1116,-1.1404,-1.1619,-1.1619,-1.1619,-1.1619,-1.1619,-1.1619,-1.1619,-1.1619,-1.1619,-1.1619,-1.1619,-1.1619,-1.1619,-1.1619,-1.1619,-1.1619,-1.1619,-1.1728,-1.1775,-1.1782,-1.23,-1.244,-1.2333,-1.2595,-1.2853,-1.312,-1.3351,-1.3821,-1.4446,-1.4515,-1.4745,-1.4968,-1.4968,-1.4968,-1.4968,0.0,0.0,0.0,0.0,0.0,0.0,0.0,0.0,0.0,0.0,0.0,-0.0588,-0.094,-0.094,-0.094,-0.094,-0.094,-0.1284,-0.2125,-0.1892,-0.222,-0.3471,-0.4585,0.0,-0.5496,-0.6645,-0.7225,-0.7288,-0.7288,-0.7285,-0.7221,-0.7279,-0.7277,-0.7277,-0.7277,-0.7277,-0.7277,-0.7459,-0.7578,-0.7682,-0.7687,-0.7763,-0.7861,-0.7861,-0.7867,-0.7933,-0.7933,-0.836,-0.8854,-0.8915,-0.9371,-1.0004,-1.0229,-1.0371,-1.0449,0.0,0.0,0.0,-0.9661,-0.9661,-0.9498,-0.9032,-0.8959,-0.9012,-0.881,-0.8861,-0.8938,-0.9253,-0.9302,-0.9302,-0.9302,-0.9302,-0.9446,-0.9807,-0.9879,-1.0095,-1.0822,-1.0972,-1.1116,-1.1548,-1.1619,-1.1619,-1.1619,-1.1619,-1.1619,-1.1619,-1.1619,-1.1619,-1.1619,-1.1619,-1.1619,-1.1619,-1.1619,-1.1619,-1.1619,-1.1619,-1.1619,-1.1619,-1.1626,-1.1633,-1.1633,-1.214,-1.2436,-1.2457,-1.3139,-1.329,-1.312,-1.3975,-1.4368,-1.4446,-1.4814,-1.4968,-1.4968,-1.4968,-1.4968,-1.4968,0.0,0.0,0.0,0.0,0.0,0.0,0.0,0.0,0.0,0.0,0.0,0.0,0.0,-0.112,-0.1407,-0.2317,-0.2924,-0.3295,-0.3385,-0.3272,-0.3656,-0.47,-0.5146,0.0,-0.6598,-0.6995,-0.722,-0.722,-0.7296,-0.7312,-0.7274,-0.7394,-0.7453,-0.7453,-0.7453,-0.7453,-0.7459,-0.7584,-0.766,-0.7709,-0.778,-0.7834,-0.7872,-0.7872,-0.7872,-0.7933,-0.8122,-0.8366,-0.861,-0.8854,-0.9254,-0.9768,-0.9906,-1.0243,-1.0521,-1.0545,-1.0259,-0.9994,-0.9994,-0.9861,-0.9649,-0.9468,-0.9287,-0.9108,-0.9251,-0.906,-0.9019,-0.954,-0.9663,-0.9735,-1.0023,-0.9879,-0.9735,-0.9879,-1.0095,-1.0455,-1.09,-1.0972,-1.1116,-1.1548,-1.1619,-1.1619,-1.1619,-1.1619,-1.1619,-1.1619,-1.1619,-1.1619,-1.1619,-1.1619,-1.1619,-1.1619,-1.1619,-1.1619,-1.1619,-1.1619,-1.1619,-1.1619,-1.1619,-1.1763,-1.1979,-1.246,-1.2685,-1.286,-1.3649,-1.3858,-1.374,-1.4237,-1.4515,-1.4814,-1.4968,-1.4968,-1.4968,-1.4968,-1.4968,-1.4968,0.0,0.0,0.0,0.0,0.0,0.0,0.0,0.0,0.0,0.0,0.0,0.0,0.0,0.0,-0.2926,-0.3876,-0.429,-0.4591,-0.4736,-0.4564,-0.495,-0.5986,-0.5982,0.0,-0.7214,-0.7232,-0.7248,-0.7274,-0.7317,-0.7298,-0.7342,-0.7524,-0.7578,-0.7584,-0.7622,-0.7616,-0.7589,-0.7709,-0.7758,-0.7763,-0.7839,-0.7872,-0.7872,-0.7872,-0.7872,-0.7933,-0.8183,-0.8305,-0.8433,-0.8671,-0.9069,-0.9456,-0.9589,-0.9954,-1.0457,-1.0624,-1.0518,-1.0392,-1.0392,-1.0193,-0.9994,-0.9927,-0.9655,-0.9454,-0.9515,-0.9365,-0.9439,-0.9827,-1.0023,-1.0167,-1.0455,-1.0383,-1.0245,-1.0245,-1.0462,-1.0822,-1.1116,-1.1188,-1.1332,-1.1548,-1.1619,-1.1619,-1.1619,-1.1619,-1.1619,-1.1619,-1.1619,-1.1619,-1.1619,-1.1619,-1.1619,-1.1619,-1.1619,-1.1619,-1.1619,-1.1619,-1.1619,-1.1619,-1.1763,-1.1907,-1.2194,-1.276,-1.3028,-1.3142,-1.3857,-1.4154,-1.4111,-1.4381,-1.4689,-1.4968,-1.4968,-1.4968,-1.4968,-1.4968,-1.4968,-1.4968,0.0,0.0,0.0,0.0,0.0,0.0,0.0,0.0,0.0,0.0,0.0,0.0,0.0,0.0,0.0,-0.5568,-0.4984,-0.5129,-0.6255,-0.5794,-0.5982,-0.7171,-0.7221,0.0,-0.7339,-0.7225,-0.7279,-0.7519,-0.7347,-0.7352,-0.7529,-0.7649,-0.7709,-0.7709,-0.7823,-0.7812,-0.7714,-0.7823,-0.7872,-0.7872,-0.7872,-0.7872,-0.7872,-0.7872,-0.7872,-0.7872,-0.7872,-0.8122,-0.8372,-0.8372,-0.8705,-0.9087,-0.9285,-0.9707,-1.0259,-1.0585,-1.0717,-1.0717,0.0,0.0,0.0,-1.0326,-1.0193,-1.0063,-0.9653,-0.985,-1.0062,-0.997,-1.0239,-1.0527,-1.0527,-1.0822,-1.1044,-1.1044,-1.1044,-1.1116,-1.1548,-1.1619,-1.1619,-1.1619,-1.1619,-1.1619,-1.1619,-1.1619,-1.1619,-1.1619,-1.1619,-1.1619,-1.1619,-1.1619,-1.1619,-1.1613,-1.1619,-1.1619,-1.1619,-1.1619,-1.1619,-1.1619,-1.1979,-1.2194,-1.2266,-1.2975,-1.3325,-1.3333,-1.3946,-1.4146,-1.4171,-1.4557,-1.4806,-1.4968,-1.4968,-1.4968,-1.4968,-1.4968,-1.4968,-1.4968,0.0,0.0,0.0,0.0,0.0,0.0,0.0,0.0,0.0,0.0,0.0,0.0,0.0,0.0,-0.6737,-0.6737,-0.72,-0.7595,-0.7681,-0.7415,-0.7448,-0.776,-0.753,-0.7547,-0.7812,-0.7547,-0.7453,-0.7519,-0.7573,-0.7616,-0.7655,-0.7769,-0.7823,-0.7823,-0.7856,-0.7856,-0.7823,-0.7856,-0.7872,-0.7872,-0.7872,-0.7872,-0.7872,-0.7872,-0.7872,-0.7872,-0.7872,-0.7933,-0.8055,-0.8055,-0.8386,-0.8985,-0.9732,-1.0261,-1.0585,-1.0658,-1.0717,-1.0717,-1.0717,0.0,0.0,0.0,0.0,0.0,-1.0272,-1.0197,-1.0207,-1.0621,-1.075,-1.0966,-1.1253,-1.1404,-1.1404,-1.1404,-1.1404,-1.1476,-1.1548,-1.1619,-1.1619,-1.1619,-1.1619,-1.1619,-1.1619,-1.1619,-1.1619,-1.1619,-1.1619,-1.1619,-1.1619,-1.1619,-1.1565,-1.1457,-1.1558,-1.1619,-1.1619,-1.1619,-1.1619,-1.1619,-1.1979,-1.2338,-1.2689,-1.3111,-1.3468,-1.3761,-1.3881,-1.4107,-1.4364,-1.4576,-1.4806,-1.4968,-1.4968,-1.4968,-1.4968,-1.4968,-1.4968,-1.4968,0.0,0.0,0.0,0.0,0.0,0.0,0.0,0.0,0.0,0.0,0.0,0.0,0.0,0.0,0.0,-0.8087,-0.838,-0.8558,-0.8507,-0.8171,-0.7979,-0.7979,-0.781,-0.7774,-0.7889,-0.7604,-0.7568,-0.7665,-0.7693,-0.7725,-0.7774,-0.7839,-0.7872,-0.7872,-0.7872,-0.8172,-0.8714,-0.8714,-0.8416,-0.7872,-0.7872,-0.7872,-0.7872,-0.7872,-0.7872,-0.7872,-0.7872,-0.8233,-0.8604,-0.8172,-0.8294,-0.8787,-0.9658,-1.0075,-1.0326,-1.0591,-1.0717,0.0,0.0,0.0,-1.0717,-1.0717,0.0,0.0,-1.0548,-1.0612,-1.0626,-1.0914,-1.1116,-1.1332,-1.1548,-1.1619,-1.1619,-1.1619,-1.1619,-1.1619,-1.1619,-1.1619,-1.1619,-1.1619,-1.1619,-1.1619,-1.1619,-1.1619,-1.1619,-1.1619,-1.1619,-1.1592,-1.1531,-1.1525,-1.1484,-1.1396,-1.1477,-1.1623,-1.1835,-1.1835,-1.1907,-1.2115,-1.2474,-1.276,-1.3039,-1.3396,-1.3682,-1.3904,-1.3904,-1.4066,-1.4343,-1.4521,-1.4741,-1.4968,-1.4968,-1.4968,-1.4968,-1.4968,-1.4968,-1.4968,0.0,0.0,-0.0672,-0.1807,-0.1985,-0.2397,0.0,0.0,0.0,0.0,0.0,0.0,0.0,0.0,0.0,0.0,-0.8748,-0.8469,-0.8767,-0.8306,-0.8026,-0.8084,-0.802,-0.796,-0.784,-0.767,-0.766,-0.7872,-0.7829,-0.7834,-0.7872,-0.7933,-0.7933,-0.7933,-0.8055,-0.8714,-0.9802,-1.0004,-0.9275,-0.8116,-0.8116,-0.8116,-0.8111,-0.7933,-0.7872,-0.7872,-0.7888,-0.8622,-0.9429,-0.8483,-0.83,-0.8552,-0.9211,-0.9563,-0.9794,-1.0459,-1.0651,0.0,0.0,0.0,0.0,-1.0717,-1.0717,0.0,-1.0665,-1.0944,-1.1177,-1.1103,-1.1319,-1.1619,-1.1619,-1.1619,-1.1619,-1.1619,-1.1619,-1.1619,-1.1619,-1.1619,-1.1619,-1.1619,-1.1619,-1.1619,-1.1619,-1.1619,-1.1619,-1.1619,-1.1606,-1.1531,-1.1375,-1.1369,-1.1355,-1.1341,-1.1446,-1.1669,-1.2166,-1.2259,-1.2474,-1.2824,-1.3111,-1.3325,-1.3325,-1.3682,-1.3904,-1.3904,-1.3904,-1.4002,-1.4188,-1.4359,-1.4635,-1.4944,-1.496,-1.4968,-1.4968,-1.4968,-1.4968,-1.4968,-0.2418,-0.2514,-0.2666,-0.3133,-0.3341,0.0,0.0,0.0,0.0,0.0,-0.7333,-0.8678,-0.9323,0.0,0.0,0.0,-0.849,-0.8195,-0.8254,-0.8053,-0.8164,-0.8715,-0.8225,-0.8176,-0.8636,-0.8121,-0.7823,-0.7872,-0.816,-0.816,-0.7933,-0.8183,-0.8183,-0.7933,-0.8958,-0.9566,-0.9869,-1.1103,-1.0775,-0.9444,-0.9444,-0.9444,-0.9323,-0.8294,-0.775,-0.7521,-0.7919,-0.8019,-0.8051,-0.8274,-0.8573,-0.8824,-0.9114,-0.9437,-0.9794,-1.0193,-1.0326,-1.0392,0.0,0.0,0.0,0.0,-1.0717,0.0,-1.0812,-1.1008,-1.1212,-1.1325,-1.146,-1.1619,-1.1619,-1.1835,-1.1979,-1.1619,-1.1835,-1.1979,-1.1619,-1.1619,-1.1619,-1.1619,-1.1619,-1.1619,-1.1619,-1.1619,-1.1619,-1.1619,-1.1504,-1.1369,-1.1212,-1.1206,-1.1151,-1.0968,-1.1545,-1.1896,-1.2073,-1.2479,-1.2681,-1.2824,-1.3111,-1.3325,-1.3325,-1.3682,-1.3904,-1.3904,-1.3904,-1.4002,-1.4188,-1.4359,-1.4562,-1.4773,-1.4911,-1.4968,-1.4968,-1.4968,-1.4968,-1.4968,-0.2706,-0.3069,-0.3482,-0.4288,0.0,0.0,0.0,0.0,-0.6714,-0.7064,-0.7895,-0.8698,-0.9295,-0.8951,0.0,0.0,0.0,0.0,0.0,0.0,-0.8305,-0.861,-0.8488,-0.8421,-0.8421,-0.8421,-0.8305,-0.8122,-0.8488,-0.8549,-0.8421,-0.8549,-0.8462,-0.8206,-0.8878,-0.9834,-1.1078,-1.1853,-1.2519,-1.2865,-1.0893,-0.9614,-0.8884,-0.8092,-0.7681,-0.7561,-0.7807,-0.7933,-0.8124,-0.9016,-0.9103,-0.8772,-0.9033,-0.925,-0.9522,-1.006,-1.0193,-1.0259,-1.0591,0.0,0.0,-1.0717,-1.085,0.0,0.0,-1.1274,-1.144,-1.1733,-1.1818,-1.186,-1.2002,-1.228,-1.2402,-1.2259,-1.2194,-1.2122,-1.1907,-1.1763,-1.1691,-1.1907,-1.1691,-1.1691,-1.1907,-1.1691,-1.1657,-1.1725,-1.1643,-1.149,-1.1337,-1.133,-1.1227,-1.088,-1.151,-1.2013,-1.2233,-1.2742,-1.3182,-1.3325,-1.3539,-1.3611,-1.3611,-1.3833,-1.3904,-1.3904,-1.3904,-1.3953,-1.4058,-1.4326,-1.4489,-1.4594,-1.4862,-1.4968,-1.4968,-1.4968,-1.4968,-1.4968,-0.3067,-0.3517,-0.4258,-0.5283,0.0,0.0,0.0,0.0,-0.7702,-0.8054,-0.8147,-0.8425,-0.9079,-0.8549,-0.8305,-0.861,0.0,0.0,0.0,-0.8366,-0.8244,-0.8372,-0.861,-0.8482,-0.7994,-0.8488,-0.861,-0.8372,-0.8732,-0.8928,-0.8958,-0.9258,-0.9143,-0.8586,-0.9081,-1.0447,-1.2335,-1.262,-1.3815,-1.5244,-1.2083,-1.0166,-0.9218,-0.8511,-0.8103,-0.798,-0.775,-0.7961,-0.8579,-0.9608,-0.9354,-0.8651,-0.8917,-0.8984,-0.9117,-0.9854,-1.0127,-1.0193,-1.0585,-1.0717,0.0,0.0,0.0,-1.115,0.0,0.0,0.0,-1.1989,-1.2004,-1.205,-1.233,-1.2574,-1.279,-1.269,-1.2436,-1.2308,-1.2208,-1.1867,-1.1837,-1.2187,-1.1979,-1.1965,-1.2223,-1.1909,-1.1761,-1.1846,-1.1829,-1.1686,-1.1632,-1.1596,-1.1379,-1.111,-1.1589,-1.2091,-1.254,-1.3122,-1.3508,-1.3904,-1.3904,-1.3904,-1.3904,-1.3904,-1.3904,-1.3904,-1.3904,-1.3904,-1.3928,-1.4286,-1.4432,-1.4464,-1.483,-1.4968,-1.4968,-1.4968,-1.4968,-1.4968,-0.5714,-0.578,-0.5907,-0.6305,0.0,0.0,0.0,0.0,-0.7955,-0.8326,-0.8332,-0.8404,-0.8477,-0.7933,-0.751,-0.7572,-0.7266,-0.7204,-0.7572,-0.751,0.0,-0.8372,-0.8177,-0.8116,-0.8305,-0.8116,-0.8116,-0.8372,-0.8732,-0.8977,-0.91,-1.0638,-1.0468,-0.8846,-1.1232,-1.231,-1.2406,-1.3789,-1.3762,-1.2737,-1.2613,-1.299,-1.3439,-1.0939,-0.9615,-0.9003,-0.7832,-0.7944,-0.8568,-0.8767,-0.8706,-0.859,-0.8651,-0.8656,-0.879,-0.9528,-0.9728,-0.9927,-1.0518,-1.0717,0.0,0.0,-1.0717,0.0,-1.1136,0.0,-1.109,-1.1511,0.0,-1.1739,-1.1808,0.0,0.0,-1.2134,-1.2437,-1.2551,-1.2066,-1.2094,-1.2153,-1.2158,-1.2474,-1.2629,-1.2489,-1.2271,-1.2037,-1.1739,-1.1876,-1.1985,-1.1962,-1.1822,-1.174,-1.1674,-1.2231,-1.2603,-1.2773,-1.33,-1.3679,-1.3904,-1.3904,-1.3904,-1.3904,-1.3904,-1.3904,-1.3904,-1.3904,-1.3904,-1.3928,-1.4286,-1.4432,-1.4464,-1.483,-1.4968,-1.4968,-1.4968,-1.4968,-1.4968,-0.585,-0.615,-0.6284,-0.6399,0.0,0.0,0.0,-0.7174,-0.751,-0.8061,-0.775,-0.7715,-0.8094,-0.7542,-0.6984,-0.6611,-0.6798,-0.686,-0.6611,-0.7175,0.0,-0.7958,-0.8209,-0.8335,-0.8272,-0.8705,-0.8955,-0.8899,-0.9462,-1.0176,0.0,0.0,-1.1136,-1.1532,-1.1027,-1.1456,-1.2645,-1.331,-1.3626,-1.3822,-1.3982,-1.428,-1.4263,-1.0442,-0.8824,-0.8508,-0.7705,-0.7949,-0.859,-0.859,-0.859,-0.859,-0.859,-0.859,-0.8723,-0.9461,-0.9728,-0.9861,-1.0525,0.0,0.0,0.0,0.0,0.0,-1.1512,0.0,-1.1814,0.0,0.0,0.0,0.0,0.0,0.0,0.0,-1.284,-1.2727,-1.2521,-1.2498,-1.2459,-1.2252,-1.24,-1.244,-1.2303,-1.2155,-1.2127,-1.2127,-1.2179,-1.2155,-1.2155,-1.2153,-1.1975,-1.1784,-1.2435,-1.2741,-1.2819,-1.3442,-1.3831,-1.3904,-1.3904,-1.3904,-1.3904,-1.3904,-1.3904,-1.3904,-1.3904,-1.3904,-1.392,-1.418,-1.4343,-1.4456,-1.4716,-1.4879,-1.4968,-1.4968,-1.4968,-1.4968,-0.5494,-0.5945,-0.628,-0.628,-0.653,-0.6785,-0.6936,-0.6965,-0.717,-0.766,-0.7232,-0.7075,-0.7592,-0.6967,-0.6269,-0.5764,-0.6017,-0.608,-0.589,-0.6589,-0.7195,-0.7527,-0.8108,-0.83,-0.8044,-0.8997,-0.9379,-0.9315,-0.9895,-1.0735,0.0,0.0,0.0,-1.3186,-1.1892,-1.1961,-1.2931,-1.2931,-1.3259,-1.3726,-1.3726,-1.353,-1.28,-0.9703,-0.8323,-0.8056,-0.766,-0.7989,-0.859,-0.859,-0.859,0.0,-0.859,-0.859,-0.8723,-0.9322,-0.9594,-0.9794,-1.0392,0.0,0.0,0.0,0.0,0.0,0.0,0.0,0.0,0.0,0.0,0.0,0.0,0.0,0.0,0.0,0.0,-1.2799,-1.2744,-1.2783,-1.271,-1.246,-1.2429,-1.2399,-1.2331,-1.2255,-1.2298,-1.2432,-1.2449,-1.2437,-1.2437,-1.2437,-1.2305,-1.2107,-1.2593,-1.2909,-1.2956,-1.3536,-1.3855,-1.3904,-1.3904,-1.3904,-1.3904,-1.3904,-1.3904,-1.3904,-1.3904,-1.3904,-1.3912,-1.4099,-1.4278,-1.4448,-1.4635,-1.4814,-1.4968,-1.4968,-1.4968,-1.4968,-0.4956,-0.5539,-0.5916,-0.5916,-0.6219,-0.6557,-0.6964,-0.7131,-0.7198,-0.7198,-0.6942,-0.669,-0.6759,-0.5793,-0.5148,-0.5148,-0.4506,-0.4508,-0.5536,-0.5665,-0.6118,-0.7143,-0.7532,-0.7724,-0.773,-0.8428,-0.8997,-0.9315,-0.9634,-1.0082,0.0,0.0,0.0,0.0,-1.507,-1.5144,-1.3259,-1.3259,-1.2339,-1.0836,-1.0836,-1.0041,-0.8851,-0.9371,-0.8978,-0.8056,-0.766,-0.7989,0.0,-0.859,-0.859,0.0,0.0,0.0,0.0,0.0,0.0,0.0,0.0,0.0,0.0,-1.0717,0.0,0.0,0.0,0.0,-1.1446,0.0,0.0,0.0,0.0,0.0,0.0,0.0,0.0,0.0,0.0,-1.2743,-1.2778,-1.278,-1.2934,-1.2966,-1.2629,-1.268,-1.2642,-1.232,-1.2576,-1.2766,-1.2766,-1.2766,-1.2766,-1.2774,-1.3011,-1.3189,-1.3368,-1.3555,-1.3734,-1.3904,-1.3904,-1.3904,-1.3904,-1.3904,-1.3904,-1.3904,-1.3904,-1.3904,-1.3912,-1.4099,-1.4278,-1.4448,-1.4635,-1.4814,-1.4968,-1.4968,-1.4968,-1.4968,-0.3646,-0.4206,-0.4826,-0.527,-0.5456,-0.572,-0.6383,-0.6097,-0.5793,-0.5793,-0.5283,-0.4913,-0.4959,-0.4704,-0.4316,-0.3856,-0.3989,-0.412,-0.3987,-0.5096,-0.5904,-0.6353,-0.7153,-0.7685,-0.7949,-0.8404,-0.8996,-0.9586,-0.9914,-1.1236,-1.3435,-1.3435,0.0,0.0,-1.5544,-1.4428,-1.339,-1.4297,-1.3787,-1.2319,-1.2319,-1.1259,-0.9582,-0.8584,-0.8318,-0.8323,-0.7727,-0.7989,0.0,-0.859,-0.859,-0.859,-0.859,-0.859,-0.8656,-0.8984,-0.9389,-0.9794,0.0,0.0,-1.0717,-1.0717,0.0,0.0,0.0,0.0,0.0,0.0,0.0,0.0,0.0,0.0,0.0,0.0,0.0,0.0,0.0,-1.28,-1.2815,-1.2802,-1.2629,-1.259,-1.2722,-1.274,-1.2774,-1.2634,-1.2774,-1.2774,-1.2774,-1.2774,-1.2889,-1.3003,-1.3181,-1.3368,-1.3547,-1.3725,-1.3847,-1.3904,-1.3904,-1.3904,-1.3904,-1.3904,-1.3904,-1.3904,-1.3904,-1.3904,-1.3904,-1.3969,-1.4164,-1.444,-1.4497,-1.4708,-1.4968,-1.4968,-1.4968,-1.4968,-0.3051,-0.3185,-0.3632,-0.4579,-0.4723,-0.4933,-0.5386,-0.5021,-0.4645,-0.4645,-0.4123,-0.3808,-0.3975,-0.3782,-0.3517,-0.3251,-0.3384,-0.3386,-0.3185,-0.4243,-0.5125,-0.5711,-0.6518,-0.7187,-0.7722,-0.8323,-0.8923,-0.9455,-1.0452,-1.2122,-1.4292,-1.4358,-1.5843,-1.8242,-1.6815,-1.5522,-1.4406,-1.5248,-1.4313,-1.2245,-1.1777,-1.0785,-0.9516,-0.8189,-0.8323,-0.905,0.0,-0.8123,-0.859,-0.859,-0.859,-0.859,-0.859,-0.859,-0.8651,-0.8851,-0.9322,-0.9728,-0.9994,-1.0326,0.0,-1.0717,-1.085,0.0,-1.1512,0.0,-1.2041,0.0,0.0,0.0,0.0,0.0,0.0,0.0,0.0,0.0,0.0,-1.2774,-1.2774,-1.2774,-1.2642,-1.2576,-1.2766,-1.2774,-1.2774,-1.2774,-1.2774,-1.2774,-1.2774,-1.2897,-1.2978,-1.3092,-1.3336,-1.3522,-1.3574,-1.3815,-1.3904,-1.3904,-1.3904,-1.3904,-1.3904,-1.3904,-1.3904,-1.3904,-1.3904,-1.3904,-1.3904,-1.3904,-1.4107,-1.4432,-1.4432,-1.4651,-1.4968,-1.4968,-1.4968,-1.4968,-0.3025,-0.2572,-0.2496,-0.3692,-0.4052,-0.4221,-0.4221,-0.4003,-0.3768,-0.3701,-0.3362,-0.3228,-0.3566,-0.3026,-0.2758,-0.3094,-0.2558,-0.2423,-0.3094,-0.3161,-0.3833,-0.5245,-0.5647,-0.618,-0.692,-0.7984,-0.8717,-0.905,-1.1233,-1.2566,-1.3327,-1.6068,-1.752,-1.7927,-1.9029,-1.8245,-1.6171,-1.6025,-1.3979,-1.0704,-0.9256,-0.8728,-0.8656,-0.8256,-0.8984,-1.0041,-0.859,-0.8323,-0.859,-0.859,-0.859,-0.859,-0.859,-0.859,-0.859,-0.859,-0.9123,-0.9661,-0.9661,-1.0193,-1.0651,-1.0717,-1.0717,0.0,0.0,0.0,-1.138,0.0,0.0,0.0,0.0,0.0,0.0,0.0,0.0,0.0,0.0,-1.2774,-1.2774,-1.2774,-1.2774,-1.2774,-1.2774,-1.2774,-1.2774,-1.2774,-1.2774,-1.2774,-1.2782,-1.3003,-1.31,-1.3124,-1.3465,-1.3574,-1.359,-1.3823,-1.3904,-1.3904,-1.3904,-1.3904,-1.3904,-1.3904,-1.3904,-1.3904,-1.3904,-1.3904,-1.3904,-1.3904,-1.4107,-1.4432,-1.4432,-1.4651,-1.4968,-1.4968,-1.4968,-1.4968,-0.2409,-0.2277,-0.2274,-0.2598,-0.3537,-0.4278,-0.4278,-0.4026,-0.3499,-0.2689,-0.2018,-0.1547,-0.1346,-0.1413,-0.1615,-0.1952,-0.1885,-0.1952,-0.2423,-0.2894,-0.3362,-0.3765,-0.491,-0.5714,-0.618,-0.6982,-0.7851,-0.8717,-1.0565,-1.2355,-1.4116,-1.6155,-1.7694,-1.8747,-1.9076,-1.7455,-1.4557,-1.6613,-1.5479,-1.2157,-1.0953,-1.0331,-1.0041,0.0,-0.9316,-1.0373,-0.8723,-0.8323,-0.859,-0.859,-0.859,-0.859,-0.859,-0.859,-0.859,-0.859,-0.8917,-0.9322,-0.9594,-0.9994,-1.0392,-1.0651,-1.0717,-1.0784,0.0,0.0,0.0,0.0,0.0,0.0,0.0,0.0,0.0,0.0,0.0,0.0,0.0,0.0,-1.2774,-1.2774,-1.2774,-1.2774,-1.2774,-1.2774,-1.2774,-1.2774,-1.2774,-1.2889,-1.3019,-1.3068,-1.3222,-1.349,-1.3526,-1.3639,-1.3831,-1.388,-1.3904,-1.3904,-1.3904,-1.3904,-1.3904,-1.3904,-1.3904,-1.3904,-1.3904,-1.3904,-1.3904,-1.3904,-1.4107,-1.4432,-1.4432,-1.4651,-1.4968,-1.4968,-1.4968,-1.4968,-0.2223,-0.2223,-0.2223,-0.2223,-0.2959,-0.3495,-0.3161,-0.2959,-0.2556,-0.1816,-0.1211,-0.0875,-0.0943,-0.0875,-0.1144,-0.1818,-0.1683,-0.175,-0.2155,-0.2558,-0.2892,-0.3161,-0.3967,-0.4839,-0.5647,-0.6246,-0.7445,-0.931,-1.1276,-1.3468,-1.5688,-1.7598,-1.8855,-1.9591,-1.9483,-1.8165,-1.6065,-1.5974,-1.4763,-1.261,-1.0785,-0.991,0.0,-0.8917,-0.9117,-0.9649,-0.8656,-0.8456,-0.859,-0.859,-0.859,-0.859,-0.859,-0.859,-0.859,-0.859,-0.8851,-0.9183,-0.9594,-0.9927,-1.0259,-1.0591,-1.0717,-1.0717,-1.0916,-1.0982,-1.1115,0.0,-1.1843,-1.2107,0.0,0.0,0.0,0.0,0.0,0.0,0.0,0.0,0.0,-1.2774,-1.2774,-1.2774,-1.2774,-1.2774,-1.2774,-1.2774,-1.2774,-1.2913,-1.3084,-1.3173,-1.3344,-1.3566,-1.3717,-1.3807,-1.3904,-1.3904,-1.3904,-1.3904,-1.3904,-1.3904,-1.3904,-1.3904,-1.3904,-1.3904,-1.3904,-1.3904,-1.3904,-1.3985,-1.418,-1.4448,-1.4603,-1.4789,-1.4968,-1.4968,-1.4968,-1.4968,-0.2227,-0.2231,-0.2165,-0.2161,-0.2362,-0.2291,-0.1548,-0.1548,-0.1481,-0.1077,-0.0741,-0.0741,-0.1414,-0.0943,-0.101,-0.2019,-0.1818,-0.175,-0.2155,-0.2223,-0.249,-0.3026,-0.3161,-0.3833,-0.5245,-0.5644,-0.725,-1.0187,-1.2237,-1.4486,-1.6949,-1.8936,-1.9879,-1.9935,-1.9922,-1.9404,-1.8399,-1.4585,-1.28,-1.2274,-0.9643,-0.859,-0.859,-0.859,-0.859,-0.859,-0.859,-0.859,-0.859,-0.859,-0.859,-0.859,-0.859,-0.859,-0.859,-0.859,-0.8784,-0.9117,-0.9594,-0.9927,-1.0259,-1.0591,-1.0717,-1.0717,-1.0717,-1.0717,-1.0784,-1.1049,-1.1446,-1.1843,0.0,0.0,0.0,0.0,0.0,0.0,0.0,0.0,0.0,0.0,-1.2774,0.0,-1.2898,-1.2964,-1.2898,-1.284,-1.2922,-1.3012,-1.3124,-1.3303,-1.349,-1.3598,-1.3823,-1.3904,-1.3904,-1.3904,-1.3904,-1.3904,-1.3904,-1.3904,-1.3904,-1.3904,-1.3904,-1.3904,-1.3904,-1.3904,-1.3912,-1.4099,-1.4294,-1.4505,-1.4838,-1.4968,-1.4968,-1.4968,-1.4968,-1.4968,-0.2187,-0.2213,-0.2083,-0.1853,-0.1849,-0.1637,-0.0809,-0.1211,-0.1345,-0.0673,-0.0539,-0.0539,-0.0673,-0.0875,-0.1212,-0.1683,-0.1616,-0.175,-0.2155,-0.2223,-0.2221,-0.2356,-0.2892,-0.3631,-0.4504,-0.5178,-0.6951,-1.0072,-1.0617,-1.2255,-1.4973,-1.6766,-1.7744,-1.816,-1.9358,-1.8717,-1.6522,-1.274,-1.1094,-1.0895,-0.925,-0.859,-0.859,-0.859,-0.859,-0.859,-0.859,-0.859,-0.859,-0.859,-0.859,-0.859,-0.859,-0.859,-0.859,-0.859,-0.8651,-0.8856,-0.9528,-0.9728,-0.9927,-1.0518,-1.0717,-1.0717,-1.0717,-1.0717,-1.0717,-1.0784,-1.1049,-1.1446,-1.1843,0.0,0.0,0.0,0.0,0.0,0.0,0.0,0.0,0.0,0.0,-1.303,-1.3678,-1.3678,-1.349,-1.284,-1.3502,-1.3738,-1.3379,-1.3498,-1.3677,0.0,-1.3888,-1.3904,0.0,0.0,-1.3904,-1.3904,-1.3904,-1.3904,-1.3904,-1.3904,-1.3904,-1.3904,-1.3904,-1.3904,-1.3912,-1.4099,-1.4367,-1.4684,-1.4887,-1.4968,-1.4968,-1.4968,-1.4968,-1.4968,-0.2177,-0.2051,-0.1782,-0.143,-0.1224,-0.0882,-0.0337,-0.0542,-0.0678,-0.0539,-0.0673,-0.0875,-0.1077,-0.1077,-0.1346,-0.1885,-0.1762,-0.1837,-0.2178,-0.2193,-0.2202,-0.2202,-0.2477,-0.3231,-0.4395,-0.4741,-0.6465,-0.9662,-1.1084,0.0,0.0,0.0,-1.8755,-1.897,-1.8562,-1.7509,-1.5793,-1.241,-1.0829,-1.0571,-0.9183,-0.859,-0.859,-0.859,-0.859,-0.859,-0.859,-0.859,-0.859,-0.859,-0.859,-0.859,-0.859,-0.859,-0.859,-0.859,-0.859,-0.879,-0.9528,-0.9728,-0.9861,-1.0518,-1.0717,-1.0717,-1.0717,-1.0717,-1.0717,-1.0717,-1.0982,-1.138,-1.1975,-1.2444,0.0,0.0,0.0,0.0,0.0,0.0,-1.297,0.0,0.0,0.0,-1.4174,-1.4909,-1.5005,-1.4174,-1.4121,-1.4103,-1.4121,-1.3805,-1.3725,0.0,0.0,0.0,-1.3904,0.0,-1.4252,-1.3904,-1.3904,-1.3904,-1.3904,-1.3904,-1.3904,-1.3904,-1.3904,-1.3953,-1.4066,-1.4343,-1.4611,-1.4846,-1.4935,-1.4968,-1.4968,-1.4968,-1.5267,-1.5573,-0.1898,-0.1627,-0.1223,-0.0815,-0.0543,-0.0272,0.0068,0.0069,-0.0069,-0.0339,-0.0813,-0.1223,-0.1494,-0.1426,-0.1562,-0.2174,-0.199,-0.1934,-0.221,-0.2232,-0.2175,-0.2175,-0.2175,-0.2945,-0.4482,-0.4482,-0.6159,-0.9446,-1.1211,0.0,0.0,0.0,-1.9149,-1.9575,-1.7669,-1.6141,-1.4791,0.0,-1.0838,-1.0219,-0.909,-0.8611,-0.859,-0.859,-0.859,-0.859,-0.8617,-0.8628,-0.8628,-0.8655,-0.8633,-0.859,-0.859,-0.859,-0.859,-0.859,-0.8656,-0.8856,-0.9528,-0.9728,-0.9927,-1.0518,-1.0717,-1.0731,-1.0758,-1.0772,-1.0778,-1.0806,-1.1147,-1.1614,-1.2214,-1.2621,0.0,0.0,0.0,0.0,0.0,0.0,0.0,0.0,0.0,0.0,-1.466,-1.5759,-1.632,-1.5923,-1.4971,-1.4633,-1.5014,-1.4308,0.0,0.0,0.0,-1.4964,-1.4403,0.0,-1.4679,-1.411,-1.3975,-1.3904,-1.3904,-1.3904,-1.392,-1.3961,-1.3961,-1.4083,-1.431,-1.4819,-1.4966,-1.4968,-1.4968,-1.5113,-1.519,-1.5045,-1.565,-1.6339,-0.0892,-0.0693,-0.0489,0.021,0.014,0.007,0.0489,0.021,0.0,-0.0069,-0.0693,-0.1118,-0.1118,-0.1748,-0.2097,-0.2167,-0.217,-0.2171,-0.2171,-0.2174,-0.2175,-0.2175,-0.2175,-0.2945,-0.4482,-0.4482,-0.6189,-0.9654,-0.8899,-1.0306,0.0,0.0,0.0,-1.7568,0.0,0.0,0.0,-1.1434,-1.0278,-0.8956,-0.8821,-0.8687,-0.859,-0.859,-0.859,-0.86,-0.8715,-0.8753,-0.8769,-0.8878,-0.8769,-0.859,-0.859,-0.859,-0.859,-0.859,-0.8784,-0.9117,-0.9594,-0.9927,-1.0259,-1.0591,-1.0717,-1.0758,-1.0826,-1.086,-1.0894,-1.1097,-1.1736,-1.2224,-1.2292,-1.284,-1.3319,0.0,0.0,0.0,0.0,0.0,-1.3344,-1.3344,0.0,0.0,-1.5282,-1.5555,-1.6245,-1.7739,-1.6491,-1.5672,-1.5788,0.0,0.0,-1.5966,-1.6037,-1.6037,-1.5966,-1.5319,-1.4955,-1.4884,-1.4252,-1.3904,-1.3904,-1.3904,-1.3993,-1.4156,-1.4156,-1.4343,-1.4735,-1.5445,-1.5489,-1.4968,-1.4968,-1.542,-1.6033,-1.5267,-1.5956,-1.7178,-0.0275,-0.0207,-0.0069,0.049,0.0281,0.014,0.0491,0.0212,0.0,0.0,-0.0422,-0.0912,-0.1403,-0.1754,-0.1965,-0.2175,-0.2262,-0.2273,-0.2273,-0.2289,-0.2225,-0.2225,-0.2225,-0.3014,-0.4591,-0.4591,-0.5747,-0.8079,-0.9506,0.0,0.0,0.0,0.0,0.0,0.0,-1.3051,-1.1697,-1.0434,-0.952,-0.8981,-0.891,-0.8851,-0.8807,-0.8807,-0.8807,-0.8812,-0.8861,-0.8878,-0.8889,-0.8863,-0.882,-0.8807,-0.8807,-0.8807,-0.8807,-0.8807,-0.9075,-0.9416,-0.9831,-1.0172,-1.0512,-1.0921,-1.0989,-1.1002,-1.1063,-1.1077,-1.109,-1.1151,-1.1579,-1.1993,-1.2268,-1.2681,-1.3093,-1.3368,0.0,0.0,0.0,0.0,0.0,-1.3539,0.0,-1.5305,-1.5863,-1.6688,-1.7493,-1.8224,-1.7184,-1.654,-1.6747,0.0,0.0,-1.6178,0.0,-1.6673,-1.6178,-1.5895,-1.5461,-1.4955,-1.4252,-1.3961,-1.4066,-1.4066,-1.4164,-1.4335,-1.4967,-1.5317,-1.5462,-1.6406,-1.6648,-1.6415,-1.6415,-1.6644,-1.6873,-1.6568,-1.7178,-1.8092,0.0276,0.0346,0.0417,0.0704,0.0423,0.0212,0.0497,0.0215,-0.0072,-0.0144,-0.0286,-0.0639,-0.1491,-0.1775,-0.1987,-0.22,-0.229,-0.2303,-0.2303,-0.2322,-0.2333,-0.2333,-0.2333,-0.3061,-0.4665,-0.4665,-0.5462,-0.699,-0.9291,0.0,0.0,0.0,0.0,0.0,-1.2366,-1.1586,-1.0868,-0.9644,-0.9166,-0.9057,-0.8971,-0.8917,-0.8884,-0.8884,-0.8884,-0.8884,-0.8922,-0.8933,-0.8938,-0.8976,-0.8987,-0.8971,-0.8906,-0.8884,-0.8954,-0.9023,-0.9365,-0.9781,-1.0127,-1.0543,-1.0819,-1.1165,-1.1234,-1.1241,-1.1219,-1.1226,-1.124,-1.1287,-1.1573,-1.1992,-1.234,-1.2688,-1.3106,-1.3461,0.0,0.0,0.0,-1.3636,0.0,0.0,-1.4752,-1.5683,-1.6178,-1.7168,-1.7942,-1.8363,-1.7715,-1.7416,0.0,0.0,0.0,0.0,0.0,0.0,-1.6815,-1.6603,-1.6278,-1.5756,-1.5051,-1.4652,-1.4619,-1.4677,-1.4769,-1.4894,-1.613,-1.6587,-1.637,-1.7341,-1.7635,-1.7407,-1.7407,-1.755,-1.7711,-1.7483,-1.8092,-1.8926,0.091,0.1122,0.1056,0.1071,0.0787,0.0503,0.0583,0.0292,-0.0146,-0.0511,-0.0219,-0.0292,-0.1094,-0.1822,-0.2258,-0.2331,-0.2333,-0.2333,-0.2333,-0.2333,-0.2333,-0.2333,-0.2333,-0.3061,-0.4665,-0.4665,-0.5462,-0.699,-0.7421,0.0,-0.9595,0.0,-1.2284,-1.1084,-1.1442,-1.0731,-0.9302,-0.9302,-0.9237,-0.9133,-0.9133,-0.8992,-0.8884,-0.8884,-0.8884,-0.8895,-0.9019,-0.9133,-0.915,-0.9264,-0.9302,-0.9258,-0.8954,-0.8884,-0.8954,-0.9365,-0.9781,-1.0197,-1.0474,-1.0889,-1.1165,-1.1234,-1.1234,-1.1206,-1.1355,-1.1389,-1.143,-1.1586,-1.19,-1.233,-1.2745,-1.3103,-1.346,-1.3825,0.0,0.0,0.0,0.0,0.0,-1.3896,-1.3896,-1.4546,-1.6037,-1.6259,-1.6815,-1.8293,-1.8363,0.0,0.0,0.0,0.0,-1.8363,-1.8363,0.0,-1.8363,-1.7661,-1.742,-1.7632,-1.6841,-1.6222,-1.5688,-1.5808,-1.5905,-1.5989,-1.7767,-1.8082,-1.7474,-1.8234,-1.8092,-1.7407,-1.7407,-1.7864,-1.8471,-1.7711,-1.8471,-1.9768,0.1135,0.0853,0.0714,0.0724,0.0435,0.0145,0.0219,0.0073,-0.0073,-0.0146,-0.0584,-0.1313,-0.2621,-0.2041,-0.1751,-0.226,-0.2333,-0.277,-0.386,-0.393,-0.393,-0.393,-0.393,-0.3932,-0.3864,-0.4447,-0.5174,-0.6192,0.0,0.0,0.0,-1.087,-1.0824,-0.9446,-0.9966,-0.9866,-0.9427,-0.9427,-0.941,-0.9367,-0.9285,-0.9226,-0.9193,-0.9193,-0.9193,-0.9198,-0.9237,-0.9253,-0.9258,-0.9291,-0.9302,-0.9363,-0.9501,-0.9407,-0.9264,-0.9686,-1.0042,-1.0469,-1.076,-1.1186,-1.147,-1.147,-1.147,-1.1491,-1.1538,-1.1545,-1.1558,-1.1606,-1.1691,-1.1979,-1.2681,-1.2896,-1.3182,-1.3833,-1.3904,0.0,-1.3904,0.0,-1.3904,-1.3904,-1.483,-1.5683,-1.6178,-1.7097,-1.7872,-1.8363,-1.8433,0.0,0.0,0.0,0.0,0.0,-1.8433,0.0,-1.867,-1.7959,-1.7714,-1.7927,-1.7127,-1.6729,-1.6638,-1.6841,-1.6924,-1.7009,-1.8138,-1.8471,-1.8319,-1.9153,-1.9315,-1.9077,-1.9077,-1.9239,-1.9466,-1.9239,-1.9466,-1.9844,0.1223,0.0793,0.0506,0.0364,0.0146,0.0,0.0,-0.0511,-0.0948,-0.1093,-0.1895,-0.3059,-0.4434,-0.3567,0.0,-0.4003,-0.4073,-0.4509,-0.5525,-0.5597,-0.5597,-0.5597,-0.502,-0.4732,-0.4808,-0.4735,0.0,-0.6261,-0.7489,-0.8285,-0.8652,-0.9513,-0.9513,-0.8729,-0.9238,-0.9489,-0.9635,-0.9489,-0.9927,-1.0644,-0.9696,-0.9735,-1.0305,-0.959,-0.9302,-0.9302,-0.9302,-0.9302,-0.9302,-0.9302,-0.9302,-0.9374,-0.9807,-0.9735,-0.9663,-1.0173,-1.0462,-1.075,-1.1116,-1.1404,-1.1619,-1.1619,-1.1619,-1.1619,-1.1619,-1.1619,-1.1619,-1.1619,-1.1619,-1.1835,-1.2474,-1.2681,-1.2968,-1.3611,-1.3833,-1.3904,-1.3904,0.0,-1.3904,0.0,0.0,0.0,0.0,-1.7308,-1.8082,0.0,-1.8433,0.0,0.0,0.0,-1.8476,-1.8562,-1.8562,-1.8681,-1.8918,-1.8486,-1.8311,-1.8528,-1.7872,-1.7608,-1.767,-1.7805,-1.7864,-1.794,-1.8699,-1.9077,-1.9153,-1.9693,-1.9919,-1.9919,-1.9919,-1.9919,-1.9919,-1.9919,-1.9919,-1.9919,0.0873,0.0584,0.0219,-0.0219,-0.0219,-0.0219,-0.0292,-0.153,-0.2619,-0.2981,-0.4073,-0.5238,-0.6395,-0.625,-0.6395,-0.7259,0.0,0.0,-0.7187,-0.7187,-0.7187,-0.7187,-0.5815,-0.5673,-0.6978,-0.5604,-0.5607,-0.699,-0.7063,-0.7276,-0.7638,-0.8078,-0.844,-0.8729,-0.9374,-0.9735,-0.9879,-0.9735,-1.0803,-1.2516,-1.0521,-1.0659,-1.1944,-1.0161,-0.9446,-0.9302,-0.9302,-0.9302,-0.9374,-0.9374,-0.9374,-0.9446,-0.9879,-0.9951,-1.0095,-1.0828,-1.0972,-1.1116,-1.1476,-1.1619,-1.1619,-1.1619,-1.1619,-1.1619,-1.1619,-1.1619,-1.1619,-1.1619,-1.1619,-1.1763,-1.2194,-1.2545,-1.2896,-1.3253,-1.3682,-1.3904,-1.3904,-1.3904,-1.3904,0.0,0.0,0.0,-1.6127,-1.6905,-1.7691,0.0,-1.8487,0.0,0.0,0.0,-1.8584,-1.8799,-1.881,-1.8928,-1.9103,-1.9103,-1.9295,-1.9521,-1.8984,-1.8699,-1.8699,-1.8699,-1.8699,-1.8774,-1.9542,-1.9919,-1.9919,-1.9919,-1.9919,-1.9919,-1.9919,-1.9919,-1.9919,-1.9919,-1.9919,-1.9919,0.0,-0.2184,-0.2039,-0.3348,-0.2548,-0.2184,-0.3421,-0.393,-0.4148,-0.4291,-0.502,-0.6105,-0.7548,-0.8131,-0.9002,-1.0383,-0.8348,-0.7476,-0.8709,-0.8781,-0.8781,-0.8781,-0.8709,-0.8271,-0.7404,-0.7046,-0.691,-0.699,-0.7851,-0.8068,-0.7638,-0.9147,-0.9441,-0.8801,-1.1592,-1.1736,-1.0023,-1.223,-1.3009,-1.2731,-1.3357,-1.3001,-1.2087,-1.1586,-1.0515,-0.9302,-0.9302,-0.9518,-0.9735,-0.9735,-0.9951,-1.0311,-1.0606,-1.075,-1.075,-1.0972,-1.0972,-1.1116,-1.1476,-1.1619,-1.1619,-1.1619,-1.1619,-1.1619,-1.1619,-1.1619,-1.1619,-1.1619,-1.1619,-1.1835,-1.2545,-1.2753,-1.3039,-1.3682,-1.3833,-1.3904,-1.3904,-1.3904,-1.3904,0.0,-1.5106,-1.6022,-1.6396,-1.7633,-1.8563,0.0,0.0,-1.8932,-1.9058,-1.8942,-1.8932,-1.9058,-1.9058,-1.9176,-1.9413,-1.9413,-1.9531,-1.9768,-1.9671,-1.9617,-1.9617,-1.9617,-1.9617,-1.9617,-1.9844,-1.9919,-1.9919,-1.9919,-1.9919,-1.9919,-1.9919,-1.9919,-1.9919,-1.9919,-1.9919,-1.9919,-0.3782,-0.3419,-0.3419,-0.4511,-0.4003,-0.3712,-0.4584,-0.531,-0.5891,-0.6177,-0.7046,-0.8208,-0.9579,-0.9945,-1.0455,-1.1476,-1.0089,-0.9435,-1.0305,-1.0383,-1.0383,-1.0383,-1.0083,-0.9646,-0.9136,-0.8631,-0.842,-0.8579,-0.9152,-0.9224,-0.8724,-1.0443,-1.0796,-1.0155,-1.2873,-1.3444,-1.2373,-1.4006,-1.4929,-1.5283,-1.5062,-1.4778,-1.4353,-1.3508,-1.2015,-1.0377,-1.0593,-1.0311,-0.9951,-1.0095,-1.0311,-1.0527,-1.0894,-1.0972,-1.1044,-1.1188,-1.126,-1.1332,-1.1548,-1.1619,-1.1619,-1.1619,-1.1763,-1.1835,-1.1619,-1.1763,-1.1835,-1.1619,-1.1619,-1.1763,-1.2402,-1.2681,-1.2968,-1.3539,-1.3761,-1.3928,-1.4018,-1.4026,-1.4058,-1.4131,-1.5515,-1.65,-1.6613,-1.8001,-1.9004,-1.9071,-1.9082,0.0,-1.9305,-1.9305,-1.9305,-1.9305,-1.9305,-1.9424,-1.9661,-1.9661,-1.9725,-1.9919,-1.9919,-1.9919,-1.9919,-1.9919,-1.9919,-1.9919,-1.9919,-1.9919,-1.9919,-1.9919,-1.9919,-1.9919,-1.9919,-1.9919,-1.9919,-1.9919,-1.9919,-1.9919,-0.4073,-0.4291,-0.4657,-0.5238,-0.5165,-0.5093,-0.5383,-0.6471,-0.7557,-0.8203,-0.9224,-1.0311,-1.1332,-1.1188,-1.1188,-1.1548,-1.1619,-1.1619,-1.1619,-1.1619,-1.1619,-1.1691,-1.0809,-1.0659,-1.1312,-1.0437,-1.0149,-1.0377,-1.0665,-1.0665,-1.0305,-1.1944,-1.2445,-1.2015,-1.4148,-1.507,-1.5008,-1.5557,-1.6766,-1.8261,-1.6545,-1.6474,-1.7188,-1.5495,-1.3721,-1.2151,-1.2452,-1.1599,-1.0449,-1.0809,-1.0815,-1.0743,-1.0966,-1.1116,-1.1188,-1.1476,-1.1619,-1.1619,-1.1619,-1.1619,-1.1619,-1.1691,-1.1979,-1.2122,-1.1835,-1.2051,-1.2194,-1.1835,-1.1777,-1.187,-1.2302,-1.2676,-1.2971,-1.3331,-1.369,-1.4034,-1.4124,0.0,-1.427,-1.4416,-1.5827,-1.6793,-1.6821,-1.8236,-1.9146,-1.9252,-1.9252,-1.9338,-1.9542,-1.9553,-1.9553,-1.9553,-1.9553,-1.965,-1.9919,-1.9919,-1.9919,-1.9919,-1.9919,-1.9919,-1.9919,-1.9919,-1.9919,-1.9919,-1.9919,-1.9919,-1.9919,-1.9919,-1.9919,-1.9919,-1.9919,-1.9919,-1.9919,-1.9919,-1.9919,-1.9919,-0.6982,-0.6475,-0.6475,-0.7856,-0.7272,-0.705,-0.8357,-0.8796,-0.9013,-0.9085,-0.959,-1.0095,-1.0599,-1.0894,-1.1188,-1.1548,-1.1619,-1.1619,-1.1619,-1.1619,-1.1763,-1.2122,-1.2252,-1.2538,-1.2968,-1.3111,-1.2244,-1.0377,-1.2022,-1.2523,-1.1872,-1.4069,-1.4503,-1.3666,-1.6856,-1.7067,-1.5221,-1.8051,-1.8971,-1.8482,-1.946,-1.896,-1.7689,-1.7047,-1.5839,-1.4424,-1.4148,-1.3515,-1.2809,-1.2809,-1.2244,-1.1476,-1.1476,-1.1476,-1.1548,-1.1548,-1.1619,-1.1619,-1.1619,-1.1619,-1.1691,-1.2051,-1.2122,-1.2266,-1.2545,-1.2681,-1.2681,-1.261,-1.2431,-1.2532,-1.326,-1.3228,-1.3252,-1.3621,-1.4056,-1.4211,-1.3882,0.0,-1.4399,-1.4432,-1.5827,-1.6849,-1.7038,-1.8471,-1.9531,-1.9725,-1.9811,-1.9758,-1.9865,-1.9865,-1.9865,-1.9865,-1.9865,-1.9887,-1.9919,-1.9919,-1.9919,-1.9919,-1.9919,-1.9919,-1.9919,-1.9919,-1.9919,-1.9919,-1.9919,-1.9919,-1.9919,-1.9919,-1.9919,-1.9919,-1.9919,-1.9919,-1.9919,-1.9919,-1.9919,-1.9919,-0.7566,-0.7276,-0.7349,-0.8222,-0.8145,-0.8145,-0.8868,-0.9157,-0.9374,-0.959,-0.9951,-1.0383,-1.075,-1.1116,-1.1404,-1.1548,-1.1619,-1.1725,-1.2091,-1.1949,-1.1979,-1.2194,-1.276,-1.3253,-1.3611,-1.3833,-1.3396,-1.2323,-1.3595,-1.3808,-1.3167,-1.5646,-1.6362,-1.5504,-1.8342,-1.8912,-1.784,-1.968,-2.011,-1.968,-2.0388,-2.0028,-1.9041,-1.8901,-1.776,-1.6263,-1.6202,-1.5495,-1.4574,-1.4716,-1.4441,-1.388,-1.3103,-1.3451,-1.4098,-1.3313,-1.2395,-1.1619,-1.1619,-1.1818,-1.2098,-1.2315,-1.2743,-1.3094,-1.3102,-1.324,-1.3313,-1.3094,-1.2941,-1.3067,-1.3649,-1.3644,-1.3698,-1.4069,-1.4284,0.0,-1.4271,-1.4437,-1.4611,-1.4708,-1.6139,-1.7152,-1.7256,-1.8772,-1.9811,-1.9919,-1.9919,-1.9919,-1.9919,-1.9919,-1.9919,-1.9919,-1.9919,-1.9919,-1.9919,-1.9919,-1.9919,-1.9919,-1.9919,-2.0221,-2.0812,-2.0145,-2.0221,-2.0812,-2.0145,-1.9919,-1.9919,-1.9919,-1.9919,-1.9919,-1.9919,-1.9919,-1.9919,-1.9919,-1.9919,-1.9919,-0.7421,-0.7566,-0.7788,-0.8078,-0.8512,-0.8874,-0.8874,-0.9085,-0.9446,-0.9879,-1.0167,-1.0527,-1.0972,-1.126,-1.1561,-1.1811,-1.1811,-1.2098,-1.2611,-1.2656,-1.2576,-1.2539,-1.3141,-1.3611,-1.3904,-1.4039,-1.4181,-1.4181,-1.5106,-1.531,-1.4875,-1.7077,-1.7851,-1.7489,-1.9262,-2.011,-2.011,-2.0527,-2.0665,-2.0665,-2.0665,-2.0527,-2.0249,-2.011,-1.9251,-1.811,-1.8261,-1.751,-1.641,-1.6632,-1.6519,-1.6069,-1.4926,-1.5534,-1.6383,-1.536,-1.4107,-1.3074,-1.3074,-1.3172,-1.3271,-1.3344,-1.3664,-1.3839,-1.3624,-1.3765,-1.3913,-1.3624,-1.3506,-1.3611,-1.3976,-1.4082,-1.4113,-1.4338,0.0,-1.4603,-1.49,-1.4849,-1.489,-1.525,-1.6568,-1.7407,-1.7407,-1.9153,-2.0296,-2.0296,-2.0296,-2.0296,-2.0296,-2.007,-1.9919,-1.9919,-1.9919,-1.9919,-1.9919,-1.9919,-1.9919,-1.9919,-2.0145,-2.0586,-2.1187,-2.0586,-2.0661,-2.1187,-2.0296,-1.9919,-1.9919,-1.9919,-1.9919,-1.9919,-1.9919,-1.9919,-1.9919,-1.9919,-1.9919,-1.9919,-0.7063,-0.757,-0.8078,-0.8078,-0.8729,-0.923,-0.923,-0.9302,-0.9446,-0.9879,-0.9951,-1.0239,-1.09,-1.1044,-1.1457,-1.232,-1.2401,-1.2692,-1.323,-1.3593,-1.3656,-1.3509,-1.3706,-1.3904,-1.3904,-1.4537,-1.4884,-1.4884,-1.6381,-1.7298,-1.765,-1.8493,-1.9122,-1.9401,-1.9901,-2.011,-2.011,-2.0527,-2.0665,-2.0665,-2.0665,-2.0665,-2.0596,-2.0249,-2.0249,-2.0388,-2.004,-1.9338,-1.8581,-1.8581,-1.7785,-1.679,-1.6717,-1.68,-1.6882,-1.7175,-1.7448,-1.7646,-1.7646,-1.6571,-1.5571,-1.5947,-1.4933,-1.3987,-1.4284,-1.4358,-1.4358,-1.4358,-1.4188,-1.4156,-1.4533,-1.4517,-1.4406,-1.4406,0.0,0.0,-1.5488,-1.5182,-1.5259,-1.6033,-1.6873,-1.7407,-1.7407,-1.9898,-2.1475,-2.1475,-2.1475,-2.1475,-2.1475,-2.0436,-1.9919,-1.9919,-1.9919,-1.9919,-1.9919,-1.9919,-1.9919,-1.9919,-2.0962,-2.0962,-2.007,-2.1037,-2.0962,-1.9995,-1.9919,-1.9919,-1.9919,-1.9919,-1.9919,-1.9919,-1.9919,-1.9919,-1.9919,-1.9919,-1.9919,-1.9919,-0.7349,-0.7566,-0.786,-0.8078,-0.8584,-0.9018,-0.923,-0.9518,-0.9807,-1.0239,-1.0462,-1.075,-1.1319,-1.1694,-1.214,-1.278,-1.2956,-1.323,-1.3769,-1.3927,-1.4074,-1.4122,-1.4196,-1.4398,-1.4788,-1.5075,-1.5373,-1.5753,-1.6815,-1.752,-1.7931,-1.8912,-1.9541,-1.9901,-2.0318,-2.0457,-2.0457,-2.0665,-2.0665,-2.0665,-2.0665,-2.0971,-2.1328,-2.1117,-2.1426,-2.1857,-2.1715,-2.128,-2.0852,-2.1067,-2.0696,-1.9971,-1.9308,-1.9781,-2.0754,-2.1346,-2.1614,-2.1835,-2.2056,-2.0003,-1.7758,-1.7906,-1.7793,-1.7602,-1.7752,-1.7011,-1.6268,-1.6268,-1.5421,-1.471,-1.4871,-1.4851,-1.4737,-1.4737,0.0,-1.5198,-1.5888,-1.5429,-1.5497,-1.6797,-1.7844,-1.8678,-1.9208,-2.1389,-2.2744,-2.2744,-2.2744,-2.2372,-2.1625,-2.0511,-1.9919,-1.9919,-2.0586,-2.0586,-1.9919,-1.9919,-2.0221,-2.0962,-2.14,-2.2148,-2.319,-2.2893,-2.2446,-2.1999,-2.1262,-2.0962,-2.0887,-2.0221,-2.0296,-2.0887,-2.0145,-1.9919,-1.9919,-1.9919,-1.9919,-1.9919,-0.7566,-0.7783,-0.8,-0.8222,-0.8729,-0.9157,-0.9446,-0.9807,-1.0239,-1.0606,-1.0894,-1.1181,-1.1749,-1.2177,-1.2736,-1.322,-1.346,-1.3777,-1.4318,-1.441,-1.4406,-1.4529,-1.4464,-1.4744,-1.5421,-1.5631,-1.6048,-1.67,-1.7551,-1.8075,-1.8422,-1.9332,-1.997,-2.0318,-2.0596,-2.0665,-2.0747,-2.0762,-2.0868,-2.0868,-2.1023,-2.1451,-2.1824,-2.1965,-2.222,-2.2586,-2.2586,-2.2506,-2.245,-2.2654,-2.2645,-2.2346,-2.1607,-2.2251,-2.3417,-2.3831,-2.4119,-2.4267,-2.4562,-2.2756,-2.0666,-2.0147,-1.9907,-1.9811,-1.9811,-1.8981,-1.8158,-1.8158,-1.6864,-1.5727,-1.5727,-1.5344,-1.4968,-1.4968,-1.5198,-1.5803,-1.7007,-1.6559,-1.6788,-1.8678,-1.9499,-2.0241,-2.0928,-2.2806,-2.3931,-2.3931,-2.3931,-2.3264,-2.17,-2.1187,-2.0661,-1.9919,-2.1412,-2.1625,-2.0447,-2.0812,-2.1412,-2.2148,-2.2521,-2.3413,-2.4609,-2.4153,-2.3783,-2.3339,-2.2521,-2.2148,-2.2073,-2.1337,-2.1262,-2.155,-2.1187,-2.0522,-1.9919,-2.0296,-2.0221,-1.9919,-0.7638,-0.8218,-0.8729,-0.8729,-0.9374,-0.9879,-0.9879,-1.0239,-1.0599,-1.0972,-1.0972,-1.1332,-1.2122,-1.2402,-1.2853,-1.3823,-1.3995,-1.4326,-1.4952,-1.5045,-1.4887,-1.4716,-1.4538,-1.4802,-1.5688,-1.6416,-1.7127,-1.7714,-1.8789,-1.9379,-1.9611,-1.997,-2.0318,-2.0665,-2.0665,-2.0665,-2.069,-2.1026,-2.1135,-2.1159,-2.1842,-2.2097,-2.2169,-2.2456,-2.2599,-2.2599,-2.2599,-2.279,-2.3031,-2.3031,-2.3222,-2.3438,-2.3438,-2.3674,-2.397,-2.397,-2.4267,-2.4636,-2.4636,-2.4636,-2.4179,-2.2595,-2.1014,-1.9811,-1.9811,-1.9811,-1.9811,-1.9811,-1.8537,-1.7398,-1.7398,-1.6109,-1.5045,-1.5045,-1.5727,-1.694,-1.8971,-1.883,-1.952,-2.19,-2.19,-2.1751,-2.2198,-2.4066,-2.5198,-2.5198,-2.5198,-2.4153,-2.1775,-2.2744,-2.2297,-1.9995,-2.2223,-2.2819,-2.1625,-2.2819,-2.3413,-2.3413,-2.4609,-2.4609,-2.3487,-2.4683,-2.4522,-2.3413,-2.3413,-2.3413,-2.3413,-2.3413,-2.267,-2.1775,-2.2967,-2.1999,-2.007,-2.1187,-2.0887,-1.9919,-0.829,-0.8584,-0.8874,-0.9446,-0.9735,-1.0095,-1.0606,-1.075,-1.0966,-1.1404,-1.1404,-1.1619,-1.2122,-1.2429,-1.2978,-1.3831,-1.4111,-1.4536,-1.496,-1.5497,-1.5854,-1.5726,-1.5666,-1.5949,-1.6638,-1.7456,-1.8234,-1.9109,-1.9398,-1.978,-2.0239,-2.0309,-2.0496,-2.0747,-2.0929,-2.1013,-2.1026,-2.1577,-2.183,-2.1842,-2.2275,-2.2713,-2.3194,-2.3267,-2.3601,-2.4003,-2.4003,-2.3836,-2.3767,-2.4061,-2.3966,-2.3883,-2.4119,-2.4341,-2.4414,-2.4414,-2.4488,-2.4636,-2.4636,-2.4636,-2.4488,-2.4031,-2.35,-2.3203,-2.3203,-2.2297,-2.1464,-2.1464,-2.0188,-1.9057,-1.9057,-1.8678,-1.8375,-1.8375,-1.8819,-1.9564,-2.0692,-2.0542,-2.0991,-2.2806,-2.3165,-2.3536,-2.4227,-2.5639,-2.6473,-2.6473,-2.5653,-2.4904,-2.4153,-2.3635,-2.267,-2.1112,-2.3413,-2.4079,-2.2893,-2.319,-2.3857,-2.4683,-2.5051,-2.5419,-2.5946,-2.6312,-2.58,-2.4683,-2.4683,-2.4683,-2.4609,-2.3783,-2.3709,-2.4079,-2.3561,-2.2967,-2.2297,-2.1775,-2.14,-2.0962,-0.8584,-0.8801,-0.9085,-0.959,-0.9951,-1.0311,-1.075,-1.1044,-1.1332,-1.1548,-1.1619,-1.1835,-1.2402,-1.2765,-1.3252,-1.4061,-1.4462,-1.4891,-1.542,-1.5956,-1.6339,-1.6644,-1.695,-1.735,-1.7679,-1.8356,-1.9075,-1.987,-2.0162,-2.0474,-2.065,-2.0793,-2.0923,-2.0991,-2.1361,-2.1505,-2.1518,-2.2147,-2.2488,-2.2488,-2.2964,-2.3396,-2.3784,-2.393,-2.4269,-2.4636,-2.4636,-2.4414,-2.4267,-2.4488,-2.4414,-2.4267,-2.4488,-2.4636,-2.4636,-2.4636,-2.4636,-2.4636,-2.4636,-2.4636,-2.4636,-2.4784,-2.471,-2.4636,-2.4636,-2.3883,-2.3129,-2.3129,-2.1849,-2.0714,-2.0714,-2.0263,-1.9887,-2.0026,-2.0542,-2.1291,-2.241,-2.2484,-2.3017,-2.4596,-2.4891,-2.5185,-2.5873,-2.6546,-2.6983,-2.6983,-2.6326,-2.5726,-2.5198,-2.4978,-2.4079,-2.2372,-2.4683,-2.5345,-2.4153,-2.4596,-2.5198,-2.5946,-2.5946,-2.6312,-2.6983,-2.6983,-2.6619,-2.5946,-2.5946,-2.5946,-2.5873,-2.5405,-2.5405,-2.5625,-2.5332,-2.4361,-2.3178,-2.3042,-2.2223,-2.1124,-0.8729,-0.909,-0.9374,-0.9374,-1.0023,-1.0527,-1.0599,-1.1181,-1.1619,-1.1619,-1.1619,-1.1979,-1.2753,-1.3117,-1.3609,-1.4358,-1.4908,-1.5497,-1.6262,-1.6339,-1.6797,-1.7559,-1.8319,-1.8774,-1.885,-1.9163,-1.9586,-2.0262,-2.0939,-2.1264,-2.1016,-2.139,-2.1607,-2.1583,-2.2028,-2.2159,-2.2231,-2.2797,-2.307,-2.3168,-2.3793,-2.4044,-2.4119,-2.4488,-2.4636,-2.4636,-2.4636,-2.4636,-2.4636,-2.4636,-2.4636,-2.4636,-2.4636,-2.4636,-2.4636,-2.4636,-2.4636,-2.4636,-2.4636,-2.4636,-2.4784,-2.5152,-2.5005,-2.471,-2.4636,-2.4636,-2.4636,-2.4636,-2.3426,-2.2372,-2.2372,-2.1239,-2.0414,-2.0767,-2.1515,-2.2571,-2.3979,-2.4596,-2.5345,-2.6838,-2.6692,-2.6619,-2.6983,-2.6983,-2.6983,-2.6983,-2.6983,-2.6546,-2.5419,-2.6399,-2.5946,-2.3635,-2.58,-2.6385,-2.5198,-2.6458,-2.7056,-2.6983,-2.6983,-2.6983,-2.6983,-2.6983,-2.6983,-2.6983,-2.6983,-2.6983,-2.7056,-2.7783,-2.7463,-2.6575,-2.7768,-2.6196,-2.3536,-2.4918,-2.3674,-2.1331,-0.9085,-0.9518,-0.9879,-1.0167,-1.0606,-1.0966,-1.1325,-1.1476,-1.1691,-1.2051,-1.2051,-1.2266,-1.2753,-1.2939,-1.3544,-1.4859,-1.6108,-1.695,-1.7102,-1.7711,-1.8319,-1.8785,-1.9606,-2.0221,-2.0533,-2.0296,-2.0575,-2.1354,-2.1503,-2.1778,-2.2016,-2.209,-2.2202,-2.2312,-2.2583,-2.2779,-2.2882,-2.3529,-2.3793,-2.3806,-2.4314,-2.4488,-2.4488,-2.4562,-2.4636,-2.4636,-2.4931,-2.5079,-2.5079,-2.5079,-2.4857,-2.4636,-2.4636,-2.4636,-2.4636,-2.4636,-2.4636,-2.4636,-2.5005,-2.5079,-2.5152,-2.558,-2.558,-2.5433,-2.5152,-2.5079,-2.5005,-2.4636,-2.4327,-2.4105,-2.4105,-2.4031,-2.4018,-2.4166,-2.483,-2.5492,-2.5859,-2.6239,-2.6619,-2.6983,-2.691,-2.691,-2.6983,-2.6983,-2.6983,-2.6983,-2.6983,-2.691,-2.6619,-2.6838,-2.6312,-2.483,-2.6239,-2.6385,-2.5198,-2.6969,-2.7565,-2.6983,-2.6983,-2.6983,-2.6983,-2.6983,-2.6983,-2.6983,-2.6983,-2.6983,-2.7056,-2.7783,-2.7913,-2.7768,-2.8707,-2.8563,-2.784,-2.757,-2.7069,-2.621,-0.9518,-0.9879,-1.0239,-1.0455,-1.0959,-1.1397,-1.1541,-1.19,-1.2259,-1.2474,-1.2474,-1.276,-1.3531,-1.377,-1.4416,-1.5943,-1.7077,-1.7864,-1.8243,-1.885,-1.9466,-2.0081,-2.0533,-2.106,-2.1585,-2.1551,-2.1685,-2.1924,-2.2452,-2.2739,-2.2709,-2.3088,-2.3166,-2.3104,-2.3492,-2.364,-2.3722,-2.4105,-2.4267,-2.4267,-2.4488,-2.471,-2.4857,-2.4636,-2.4857,-2.5139,-2.5152,-2.5299,-2.552,-2.552,-2.5226,-2.4857,-2.4857,-2.4784,-2.4636,-2.4857,-2.4784,-2.471,-2.5299,-2.5373,-2.5299,-2.5946,-2.6093,-2.5946,-2.5593,-2.5373,-2.5152,-2.4931,-2.4857,-2.4857,-2.4857,-2.5226,-2.552,-2.574,-2.6107,-2.6473,-2.6692,-2.6838,-2.6983,-2.6983,-2.6983,-2.6983,-2.6983,-2.6983,-2.7129,-2.7492,-2.7202,-2.7347,-2.8072,-2.771,-2.7405,-2.7172,-2.7405,-2.7405,-2.7172,-2.7768,-2.8072,-2.8072,-2.771,-2.7492,-2.7492,-2.7492,-2.7492,-2.7492,-2.7492,-2.7492,-2.7565,-2.8362,-2.8851,-2.9266,-2.964,-2.9593,-2.9231,-2.8966,-2.8341,-2.7348,-1.0023,-1.0383,-1.0671,-1.0671,-1.1312,-1.1821,-1.1821,-1.2466,-1.3039,-1.3111,-1.3182,-1.3682,-1.4671,-1.5058,-1.5894,-1.7308,-1.8065,-1.8744,-1.9466,-1.9919,-2.0447,-2.121,-2.1407,-2.1806,-2.2469,-2.2888,-2.2846,-2.2429,-2.3454,-2.3769,-2.3414,-2.4045,-2.4187,-2.4033,-2.4494,-2.4717,-2.4688,-2.4735,-2.475,-2.471,-2.471,-2.4931,-2.5152,-2.4931,-2.5212,-2.58,-2.552,-2.5593,-2.5873,-2.5873,-2.5653,-2.5299,-2.5299,-2.5079,-2.4857,-2.5226,-2.5079,-2.5005,-2.5726,-2.5667,-2.5593,-2.6326,-2.6473,-2.6385,-2.6093,-2.5667,-2.5373,-2.5299,-2.5299,-2.5299,-2.5299,-2.5653,-2.6019,-2.6326,-2.6473,-2.6619,-2.691,-2.6983,-2.6983,-2.6983,-2.6983,-2.6983,-2.6983,-2.6983,-2.7274,-2.8072,-2.7565,-2.7783,-2.9226,-2.865,-2.865,-2.9298,-2.865,-2.865,-2.9298,-2.8779,-2.8779,-2.9298,-2.8779,-2.8418,-2.8274,-2.8274,-2.8274,-2.8289,-2.8145,-2.8217,-2.8346,-2.901,-2.9744,-3.0508,-3.0634,-3.0346,-2.9838,-3.0226,-2.9302,-2.7754,-1.0383,-1.0959,-1.1462,-1.1462,-1.2108,-1.261,-1.261,-1.3253,-1.3896,-1.4244,-1.4822,-1.539,-1.5895,-1.6992,-1.8083,-1.8863,-1.976,-2.0448,-2.0823,-2.121,-2.1574,-2.2035,-2.2627,-2.3203,-2.3656,-2.4316,-2.4252,-2.3644,-2.4023,-2.4367,-2.4478,-2.4556,-2.479,-2.5101,-2.5528,-2.5635,-2.5527,-2.5548,-2.5384,-2.5092,-2.5092,-2.5166,-2.5226,-2.5506,-2.5726,-2.5873,-2.6093,-2.6253,-2.6326,-2.6326,-2.6019,-2.5726,-2.5726,-2.5653,-2.5653,-2.5726,-2.5653,-2.5726,-2.6166,-2.6253,-2.6326,-2.6765,-2.691,-2.691,-2.6838,-2.6546,-2.618,-2.58,-2.5726,-2.5726,-2.5726,-2.6019,-2.6312,-2.6385,-2.6692,-2.691,-2.6983,-2.6983,-2.6983,-2.6983,-2.6983,-2.6983,-2.6983,-2.6983,-2.7274,-2.8072,-2.7985,-2.8362,-2.9226,-2.9226,-2.9226,-2.9298,-2.9226,-2.9226,-2.9298,-2.9838,-2.9838,-2.9298,-2.9838,-2.9767,-2.9154,-2.9154,-2.9154,-2.9082,-2.8418,-2.8506,-2.9154,-2.9226,-2.9977,-3.096,-3.1625,-3.2062,-3.2273,-3.2685,-3.1933,-3.0731,-1.0743,-1.1606,-1.2252,-1.2252,-1.2753,-1.3253,-1.3674,-1.4173,-1.475,-1.539,-1.5886,-1.6452,-1.7097,-1.8354,-1.9305,-1.9765,-2.0754,-2.1452,-2.1712,-2.2467,-2.2928,-2.3154,-2.3567,-2.4023,-2.4481,-2.4906,-2.5152,-2.5111,-2.5152,-2.5127,-2.4939,-2.5649,-2.595,-2.595,-2.6402,-2.657,-2.6537,-2.6176,-2.5954,-2.5829,-2.5575,-2.5667,-2.5887,-2.58,-2.6093,-2.6473,-2.6692,-2.6765,-2.6765,-2.6765,-2.6473,-2.6166,-2.6166,-2.5946,-2.5873,-2.6093,-2.5946,-2.5946,-2.6546,-2.6546,-2.6473,-2.691,-2.6983,-2.6983,-2.6983,-2.6838,-2.6619,-2.6239,-2.6166,-2.6166,-2.6166,-2.6473,-2.6765,-2.6765,-2.691,-2.6983,-2.6983,-2.6983,-2.6983,-2.6983,-2.6983,-2.6983,-2.6983,-2.7347,-2.7928,-2.8722,-2.8794,-2.9282,-3.0496,-3.014,-3.014,-3.0567,-3.014,-3.014,-3.0567,-3.048,-3.048,-3.0567,-3.0922,-3.0622,-2.991,-2.991,-2.991,-2.991,-2.9552,-2.9552,-2.9942,-3.0137,-3.0749,-3.1654,-3.2219,-3.2672,-3.3066,-3.3443,-3.2607,-3.1331]},{"header":{"parameterUnit":"m.s-1","parameterCategory":1,"la1":30.6,"la2":28.766,"lo1":-90.7593,"lo2":-88.6598,"dy":0.0162,"dx":0.0183,"nx":116,"ny":114,"refTime":"2024-03-17T12:00:00:Z","depth":0,"parameterNumber":3,"parameterNumberName":"V-component_of_WINDS"},"data":[0.0,0.0,0.0,0.0,0.0,0.0,0.0,0.0,0.0,0.0,0.0,0.0,0.0,0.0,0.0,0.0,0.0,0.0,0.0,0.0,0.0,0.0,0.0,0.0,0.0,0.0,0.0,0.0,0.0,0.0,0.0,0.0,0.0,0.0,0.0,0.0,0.0,0.0,0.0,0.0,0.0,0.0,0.0,0.0,0.0,0.0,0.0,0.0,0.0,0.0,0.0,0.0,0.0,0.0,0.0,0.0,0.0,0.0,0.0,0.0,0.0,0.0,0.0,0.0,0.0,0.0,0.0,0.0,0.0,0.0,0.0,0.0,0.0,0.0,0.0,0.0,0.0,0.0,0.0,0.0,0.0,0.0,0.0,0.0,0.0,0.0,0.0,0.0,0.0,0.0,0.0,0.0,0.0,0.0,0.0,0.0,0.0,0.0,0.0,0.0,0.0,0.0,0.0,0.0,0.0,0.0,0.0,0.0,0.0,0.0,0.0,0.0,0.0,0.0,0.0,0.0,0.0,0.0,0.0,0.0,0.0,0.0,0.0,0.0,0.0,0.0,0.0,0.0,0.0,0.0,0.0,0.0,0.0,0.0,0.0,0.0,0.0,0.0,0.0,0.0,0.0,0.0,0.0,0.0,0.0,0.0,0.0,0.0,0.0,0.0,0.0,0.0,0.0,0.0,0.0,0.0,0.0,0.0,0.0,0.0,0.0,0.0,0.0,0.0,0.0,0.0,0.0,0.0,0.0,0.0,0.0,0.0,0.0,0.0,0.0,0.0,0.0,0.0,0.0,0.0,0.0,0.0,0.0,0.0,0.0,0.0,0.0,0.0,0.0,0.0,0.0,0.0,0.0,0.0,0.0,0.0,0.0,0.0,0.0,0.0,0.0,0.0,0.0,0.0,0.0,0.0,0.0,0.0,0.0,0.0,0.0,0.0,0.0,0.0,0.0,0.0,0.0,0.0,0.0,0.0,0.0,0.0,0.0,0.0,0.0,0.0,0.0,0.0,0.0,0.0,0.0,0.0,0.0,0.0,0.0,0.0,0.0,0.0,0.0,0.0,0.0,0.0,0.0,0.0,0.0,0.0,0.0,0.0,0.0,0.0,0.0,0.0,0.0,0.0,0.0,0.0,0.0,0.0,0.0,0.0,0.0,0.0,0.0,0.0,0.0,0.0,0.0,0.0,0.0,0.0,0.0,0.0,0.0,0.0,0.0,0.0,0.0,0.0,0.0,0.0,0.0,0.0,0.0,0.0,0.0,0.0,0.0,0.0,0.0,0.0,0.0,0.0,0.0,0.0,0.0,0.0,0.0,0.0,0.0,0.0,0.0,0.0,0.0,0.0,0.0,0.0,0.0,0.0,0.0,0.0,0.0,0.0,0.0,0.0,0.0,0.0,0.0,0.0,0.0,0.0,0.0,0.0,0.0,0.0,0.0,0.0,0.0,0.0,0.0,0.0,0.0,0.0,0.0,0.0,0.0,0.0,0.0,0.0,0.0,0.0,0.0,0.0,0.0,0.0,0.0,0.0,0.0,0.0,0.0,0.0,0.0,0.0,0.0,0.0,0.0,0.0,0.0,0.0,0.0,0.0,0.0,0.0,0.0,0.0,0.0,0.0,0.0,0.0,0.0,0.0,0.0,0.0,0.0,0.0,0.0,0.0,0.0,0.0,0.0,0.0,0.0,0.0,0.0,0.0,0.0,0.0,0.0,0.0,0.0,0.0,0.0,0.0,0.0,0.0,0.0,0.0,0.0,0.0,0.0,0.0,0.0,0.0,0.0,0.0,0.0,0.0,0.0,0.0,0.0,0.0,0.0,0.0,0.0,0.0,0.0,0.0,0.0,0.0,0.0,0.0,0.0,0.0,0.0,0.0,0.0,0.0,0.0,0.0,0.0,0.0,0.0,0.0,0.0,0.0,0.0,0.0,0.0,0.0,0.0,0.0,0.0,0.0,0.0,0.0,0.0,0.0,0.0,0.0,0.0,0.0,0.0,0.0,0.0,0.0,0.0,0.0,0.0,0.0,0.0,0.0,0.0,0.0,0.0,0.0,0.0,0.0,0.0,0.0,0.0,0.0,0.0,0.0,0.0,0.0,0.0,0.0,0.0,0.0,0.0,0.0,0.0,0.0,0.0,0.0,0.0,0.0,0.0,0.0,0.0,0.0,0.0,0.0,0.0,0.0,0.0,0.0,0.0,0.0,0.0,0.0,0.0,0.0,0.0,0.0,0.0,0.0,0.0,0.0,0.0,0.0,0.0,0.0,0.0,0.0,0.0,0.0,0.0,0.0,0.0,0.0,0.0,0.0,0.0,0.0,0.0,0.0,0.0,0.0,0.0,0.0,0.0,0.0,0.0,0.0,0.0,0.0,0.0,0.0,0.0,0.0,0.0,0.0,0.0,0.0,0.0,0.0,0.0,0.0,0.0,0.0,0.0,0.0,0.0,0.0,0.0,0.0,0.0,0.0,0.0,0.0,0.0,0.0,0.0,0.0,0.0,0.0,0.0,0.0,0.0,0.0,0.0,0.0,0.0,0.0,0.0,0.0,0.0,0.0,0.0,0.0,0.0,0.0,0.0,0.0,0.0,0.0,0.0,0.0,0.0,0.0,0.0,0.0,0.0,0.0,0.0,0.0,0.0,0.0,0.0,0.0,0.0,0.0,0.0,0.0,0.0,0.0,0.0,0.0,0.0,0.0,0.0,0.0,0.0,0.0,0.0,0.0,0.0,0.0,0.0,0.0,0.0,0.0,0.0,0.0,0.0,0.0,0.0,0.0,0.0,0.0,0.0,0.0,0.0,0.0,0.0,0.0,0.0,0.0,0.0,0.0,0.0,0.0,0.0,0.0,0.0,0.0,0.0,0.0,0.0,0.0,0.0,0.0,0.0,0.0,0.0,0.0,0.0,0.0,0.0,0.0,0.0,0.0,0.0,0.0,0.0,0.0,0.0,0.0,0.0,0.0,0.0,0.0,0.0,0.0,0.0,0.0,0.0,0.0,0.0,0.0,0.0,0.0,0.0,0.0,0.0,0.0,0.0,0.0,0.0,0.0,0.0,0.0,0.0,0.0,0.0,0.0,0.0,0.0,0.0,0.0,0.0,0.0,0.0,0.0,0.0,0.0,0.0,0.0,0.0,0.0,0.0,0.0,0.0,0.0,0.0,0.0,0.0,0.0,0.0,0.0,0.0,0.0,0.0,0.0,0.0,0.0,0.0,0.0,0.0,0.0,0.0,0.0,0.0,0.0,0.0,0.0,0.0,0.0,0.0,0.0,0.0,0.0,0.0,0.0,0.0,0.0,0.0,0.0,0.0,0.0,0.0,0.0,0.0,0.0,0.0,0.0,0.0,0.0,0.0,0.0,0.0,0.0,0.0,0.0,0.0,0.0,0.0,0.0,0.0,0.0,0.0,0.0,0.0,0.0,0.0,0.0,0.0,0.0,0.0,0.0,0.0,0.0,0.0,0.0,0.0,0.0,0.0,0.0,0.0,0.0,0.0,0.0,0.0,0.0,0.0,0.0,0.0,0.0,0.0,0.0,0.0,0.0,0.0,0.0,0.0,0.0,0.0,0.0,0.0,0.0,0.0,0.0,0.0,0.0,0.0,0.0,0.0,0.0,0.0,0.0,0.0,0.0,0.0,0.0,0.0,0.0,0.0,0.0,0.0,0.0,0.0,0.0,0.0,0.0,0.0,0.0,0.0,0.0,0.0,0.0,0.0,0.0,0.0,0.0,0.0,0.0,0.0,0.0,0.0,0.0,0.0,0.0,0.0,0.0,0.0,0.0,0.0,0.0,0.0,0.0,0.0,0.0,0.0,0.0,0.0,0.0,0.0,0.0,0.0,0.0,0.0,0.0,0.0,0.0,0.0,0.0,0.0,0.0,0.0,0.0,0.0,0.0,0.0,0.0,0.0,0.0,0.0,0.0,0.0,0.0,0.0,0.0,0.0,0.0,0.0,0.0,0.0,0.0,0.0,0.0,0.0,0.0,0.0,0.0,0.0,0.0,0.0,0.0,0.0,0.0,0.0,0.0,0.0,0.0,0.0,0.0,0.0,0.0,0.0,0.0,0.0,0.0,0.0,0.0,0.0,0.0,0.0,0.0,0.0,0.0,0.0,0.0,0.0,0.0,0.0,0.0,0.0,0.0,0.0,0.0,0.0,0.0,0.0,0.0,0.0,0.0,0.0,0.0,0.0,0.0,0.0,0.0,0.0,0.0,0.0,0.0,0.0,0.0,0.0,0.0,0.0,0.0,0.0,0.0,0.0,0.0,0.0,0.0,0.0,0.0,0.0,0.0,0.0,0.0,0.0,0.0,0.0,0.0,0.0,0.0,0.0,0.0,0.0,0.0,0.0,0.0,0.0,0.0,0.0,0.0,0.0,0.0,0.0,0.0,0.0,0.0,0.0,0.0,0.0,0.0,0.0,0.0,0.0,0.0,0.0,0.0,0.0,0.0,0.0,0.0,0.0,0.0,0.0,0.0,0.0,0.0,0.0,0.0,0.0,0.0,0.0,0.0,0.0,0.0,0.0,0.0,0.0,0.0,0.0,0.0,0.0,0.0,0.0,0.0,0.0,0.0,0.0,0.0,0.0,0.0,0.0,0.0,0.0,0.0,0.0,0.0,0.0,0.0,0.0,0.0,0.0,0.0,0.0,0.0,0.0,0.0,0.0,0.0,0.0,0.0,0.0,0.0,0.0,0.0,0.0,0.0,0.0,0.0,0.0,0.0,0.0,0.0,0.0,0.0,0.0,0.0,0.0,0.0,0.0,0.0,0.0,0.0,0.0,0.0,0.0,0.0,0.0,0.0,0.0,0.0,0.0,0.0,0.0,0.0,0.0,0.0,0.0,0.0,0.0,0.0,0.0,0.0,0.0,0.0,0.0,0.0,0.0,0.0,0.0,0.0,0.0,0.0,0.0,0.0,0.0,0.0,0.0,0.0,0.0,0.0,0.0,0.0,0.0,0.0,0.0,0.0,0.0,0.0,0.0,0.0,0.0,0.0,0.0,0.0,0.0,0.0,0.0,0.0,0.0,0.0,0.0,0.0,0.0,0.0,0.0,0.0,0.0,0.0,0.0,0.0,0.0,0.0,0.0,0.0,0.0,0.0,0.0,0.0,0.0,0.0,0.0,0.0,0.0,0.0,0.0,0.0,0.0,0.0,0.0,0.0,0.0,0.0,0.0,0.0,0.0,0.0,0.0,0.0,0.0,0.0,0.0,0.0,0.0,0.0,0.0,0.0,0.0,0.0,0.0,0.0,0.0,0.0,0.0,0.0,0.0,0.0,0.0,0.0,0.0,0.0,0.0,0.0,0.0,0.0,0.0,0.0,0.0,0.0,0.0,0.0,0.0,0.0,0.0,0.0,0.0,0.0,0.0,0.0,0.0,0.0,0.0,0.0,0.0,0.0,0.0,0.0,0.0,0.0,0.0,0.0,0.0,0.0,0.0,0.0,0.0,0.0,0.0,0.0,0.0,0.0,0.0,0.0,0.0,0.0,0.0,0.0,0.0,0.0,0.0,0.0,0.0,0.0,0.0,0.0,0.0,0.0,0.0,0.0,0.0,0.0,0.0,0.0,0.0,0.0,0.0,0.0,0.0,0.0,0.0,0.0,0.0,0.0,0.0,0.0,0.0,0.0,0.0,0.0,0.0,0.0,0.0,0.0,0.0,0.0,0.0,0.0,0.0,0.0,0.0,0.0,0.0,0.0,0.0,0.0,0.0,0.0,0.0,0.0,0.0,0.0,0.0,0.0,0.0,0.0,0.0,0.0,0.0,0.0,0.0,0.0,0.0,0.0,0.0,0.0,0.0,0.0,0.0,0.0,0.0,0.0,0.0,0.0,0.0,0.0,0.0,0.0,0.0,0.0,0.0,0.0,0.0,0.0,0.0,0.0,0.0,0.0,0.0,0.0,0.0,0.0,0.0,0.0,0.0,0.0,0.0,0.0,0.0,0.0,0.0,0.0,0.0,0.0,0.0,0.0,0.0,0.0,0.0,0.0,0.0,0.0,0.0,0.0,0.0,0.0,0.0,0.0,0.0,0.0,0.0,0.0,0.0,0.0,0.0,0.0,0.0,0.0,0.0,0.0,0.0,0.0,5.3346,5.3463,0.0,0.0,0.0,0.0,0.0,0.0,0.0,0.0,0.0,0.0,0.0,0.0,0.0,0.0,0.0,0.0,0.0,0.0,0.0,0.0,0.0,0.0,0.0,0.0,0.0,0.0,4.6187,4.6385,4.6814,4.7258,4.7696,4.8125,4.8962,4.9435,4.9435,4.9833,5.003,5.003,5.0064,5.0057,5.0048,5.0057,4.9589,4.88,0.0,0.0,0.0,0.0,0.0,0.0,0.0,0.0,0.0,0.0,0.0,0.0,0.0,0.0,0.0,0.0,0.0,0.0,0.0,0.0,0.0,0.0,0.0,0.0,0.0,0.0,0.0,0.0,0.0,0.0,0.0,0.0,0.0,0.0,0.0,0.0,0.0,0.0,0.0,0.0,0.0,0.0,0.0,0.0,0.0,0.0,0.0,0.0,0.0,0.0,0.0,0.0,0.0,0.0,0.0,0.0,0.0,0.0,0.0,0.0,0.0,0.0,0.0,0.0,0.0,0.0,0.0,0.0,0.0,0.0,5.4242,5.4121,0.0,0.0,0.0,0.0,0.0,0.0,0.0,0.0,0.0,0.0,0.0,0.0,0.0,0.0,0.0,0.0,0.0,0.0,0.0,0.0,0.0,0.0,0.0,4.6219,4.6219,4.6219,4.6349,4.6745,4.745,4.7777,4.8257,4.9001,4.9872,5.0345,5.0345,5.1019,5.1414,5.1412,5.1401,5.1396,5.1399,5.1399,5.0611,4.9232,4.9259,0.0,0.0,0.0,0.0,0.0,0.0,0.0,0.0,0.0,0.0,0.0,0.0,0.0,0.0,0.0,0.0,0.0,0.0,0.0,0.0,0.0,0.0,0.0,0.0,0.0,0.0,0.0,0.0,0.0,0.0,0.0,0.0,0.0,0.0,0.0,0.0,0.0,0.0,0.0,0.0,0.0,0.0,0.0,0.0,0.0,0.0,0.0,0.0,0.0,0.0,0.0,0.0,0.0,0.0,0.0,0.0,0.0,0.0,0.0,0.0,0.0,0.0,0.0,5.4351,5.4741,5.5443,5.5443,5.5833,5.6422,5.4975,5.4769,5.545,5.545,0.0,0.0,0.0,0.0,0.0,0.0,0.0,0.0,0.0,0.0,0.0,0.0,0.0,0.0,0.0,0.0,0.0,0.0,0.0,0.0,0.0,4.6219,4.6219,4.6219,4.6881,4.7395,4.7489,4.8908,4.982,4.9911,5.0742,5.1217,5.1217,5.1336,5.141,5.1401,5.1386,5.1386,5.1399,5.1399,5.1279,5.1045,5.1056,5.1063,5.1063,0.0,0.0,0.0,0.0,0.0,0.0,0.0,0.0,0.0,0.0,0.0,0.0,0.0,0.0,0.0,0.0,0.0,0.0,0.0,0.0,0.0,0.0,0.0,0.0,0.0,0.0,0.0,0.0,0.0,0.0,0.0,0.0,0.0,0.0,0.0,0.0,0.0,0.0,0.0,0.0,0.0,5.2083,5.2099,0.0,0.0,0.0,0.0,0.0,0.0,0.0,0.0,0.0,0.0,0.0,0.0,0.0,5.5046,5.5017,5.5798,5.6167,5.6156,5.6156,5.6234,5.6312,5.6312,5.639,5.6507,5.6273,0.0,5.6351,5.6351,0.0,0.0,0.0,0.0,0.0,0.0,0.0,0.0,0.0,0.0,0.0,0.0,0.0,0.0,0.0,0.0,0.0,0.0,0.0,0.0,0.0,4.6219,4.6219,4.6219,4.7015,4.769,4.8206,4.9396,5.0308,5.082,5.1217,5.1414,5.1414,5.1414,5.141,5.1399,5.1391,5.1391,5.1399,5.1399,5.1401,5.1408,5.1412,5.1414,5.1414,5.1414,0.0,0.0,0.0,0.0,0.0,0.0,0.0,0.0,0.0,0.0,0.0,0.0,0.0,0.0,0.0,0.0,0.0,0.0,0.0,0.0,0.0,0.0,0.0,0.0,0.0,0.0,0.0,0.0,0.0,0.0,0.0,0.0,0.0,0.0,0.0,0.0,0.0,0.0,0.0,5.2866,5.3364,5.3345,5.3657,5.3896,0.0,0.0,0.0,0.0,0.0,0.0,0.0,0.0,0.0,5.5345,5.5736,5.5938,5.5915,5.6304,5.6506,5.6515,5.6515,5.6515,5.6515,5.6515,5.6515,5.6515,5.6515,5.6504,5.6516,5.6516,5.6516,5.6519,0.0,0.0,0.0,0.0,5.6516,5.6517,0.0,0.0,0.0,0.0,0.0,0.0,0.0,0.0,0.0,0.0,0.0,0.0,4.6219,4.6219,4.6297,4.6495,4.7336,4.8212,4.9081,4.9957,5.0707,5.1375,5.1414,5.1414,5.1414,5.1412,5.1408,5.1403,5.1399,5.1399,5.1403,5.1403,5.1408,5.1414,5.1414,5.1414,5.1414,5.1414,5.1414,5.1414,0.0,0.0,0.0,0.0,0.0,0.0,0.0,0.0,0.0,0.0,0.0,0.0,0.0,0.0,0.0,0.0,0.0,0.0,0.0,0.0,0.0,0.0,0.0,0.0,0.0,0.0,0.0,0.0,0.0,0.0,0.0,0.0,0.0,0.0,0.0,0.0,0.0,5.3745,5.4281,5.4248,5.4395,5.4554,0.0,0.0,0.0,0.0,0.0,0.0,5.6405,5.6479,5.6515,5.6515,5.6515,5.6517,5.6481,5.6481,5.6521,5.6523,5.6523,5.6523,5.6523,5.6523,5.6523,5.6523,5.6523,5.6523,5.6523,5.6518,5.6515,5.6515,5.6518,5.6518,5.6515,5.6518,5.651,5.6484,0.0,0.0,0.0,0.0,0.0,0.0,0.0,0.0,0.0,0.0,0.0,4.6189,4.6183,4.6219,4.6537,4.7369,4.823,4.9103,4.9989,5.085,5.1364,5.1414,5.1414,5.1414,5.1414,5.1403,5.1403,5.1414,5.1403,5.1403,5.1414,5.1414,5.1414,5.1414,5.1414,5.1414,5.1414,5.1414,5.1414,5.1414,5.1414,0.0,0.0,0.0,0.0,0.0,0.0,0.0,0.0,0.0,0.0,0.0,0.0,0.0,0.0,0.0,0.0,0.0,0.0,0.0,0.0,0.0,0.0,0.0,0.0,0.0,0.0,0.0,0.0,0.0,0.0,0.0,0.0,0.0,0.0,0.0,0.0,0.0,0.0,5.5144,5.5812,0.0,0.0,0.0,0.0,5.6404,5.6444,5.6445,5.6477,5.6515,5.6515,5.6515,5.6515,5.6482,5.6483,5.6483,5.6516,5.6571,5.6571,5.6571,5.6571,5.6571,5.6571,5.6571,5.6571,5.6571,5.6575,5.6523,5.6515,5.6516,5.6484,5.6484,5.6517,5.6484,5.6484,5.6514,0.0,0.0,0.0,0.0,0.0,0.0,0.0,0.0,4.5273,4.608,4.622,4.6201,4.6187,4.6209,4.6547,4.7411,4.829,4.9162,5.003,5.0935,5.141,5.1414,5.1414,5.1414,5.1414,5.141,5.141,5.1414,5.141,5.1683,5.2234,5.2234,5.2546,5.3053,5.3053,5.3053,5.3014,5.1882,5.1414,5.1414,5.1414,5.1726,0.0,0.0,0.0,0.0,0.0,0.0,0.0,0.0,0.0,0.0,0.0,0.0,0.0,0.0,0.0,0.0,0.0,0.0,0.0,0.0,0.0,0.0,0.0,0.0,0.0,0.0,0.0,0.0,0.0,0.0,0.0,0.0,0.0,0.0,0.0,0.0,0.0,5.5971,5.6186,0.0,5.6439,5.6365,5.6335,5.6355,5.6402,5.6436,5.6377,5.6394,5.6443,5.6443,5.6443,5.6436,5.6419,5.6458,5.6449,5.6471,5.6471,5.6482,5.6539,5.6482,5.6533,5.6604,5.6548,5.655,5.6608,5.6588,5.6555,5.6554,5.6548,5.6549,5.6554,5.6546,5.6557,5.6484,0.0,0.0,0.0,0.0,0.0,0.0,0.0,0.0,4.5622,4.6171,4.6242,4.6234,4.6192,4.6456,4.6999,4.7828,4.8698,4.9562,5.0461,5.105,5.1361,5.1393,5.1382,5.1414,5.1414,5.1414,5.1414,5.1414,5.1687,5.2117,5.2704,5.3014,5.3444,5.399,5.399,5.399,5.3912,5.278,5.2273,5.2273,5.2273,5.2624,5.3132,0.0,0.0,0.0,0.0,0.0,0.0,0.0,0.0,0.0,0.0,0.0,0.0,0.0,0.0,0.0,0.0,0.0,0.0,0.0,0.0,0.0,0.0,0.0,0.0,0.0,0.0,0.0,0.0,0.0,0.0,0.0,0.0,0.0,0.0,5.6073,5.6433,5.6352,5.6344,5.6336,5.6355,5.6324,5.6315,5.6308,5.632,5.6347,5.6339,5.6372,5.639,5.639,5.639,5.6546,5.6853,5.6853,5.697,5.7282,5.7282,5.7295,5.7357,5.7295,5.7322,5.745,5.7392,5.7401,5.7426,5.7426,5.7426,5.7387,5.684,5.6762,5.6996,5.6996,5.7164,5.7373,0.0,0.0,0.0,0.0,0.0,0.0,0.0,4.5753,4.6309,4.6286,4.6287,4.6288,4.6211,4.6992,4.7811,4.8617,4.9513,5.0367,5.1258,5.1297,5.1312,5.1406,5.1394,5.1416,5.1414,5.1414,5.1414,5.1453,5.2273,5.2743,5.2782,5.3639,5.4068,5.4068,5.4068,5.4068,5.4068,5.4068,5.4068,5.4068,5.4029,5.4029,5.4029,0.0,0.0,0.0,0.0,0.0,0.0,0.0,0.0,0.0,0.0,0.0,0.0,0.0,0.0,0.0,0.0,0.0,0.0,0.0,0.0,0.0,0.0,0.0,0.0,0.0,0.0,0.0,0.0,0.0,0.0,0.0,0.0,0.0,5.6308,5.6371,5.6389,5.6316,5.6308,5.6308,5.6269,5.6292,5.6284,5.6264,5.6269,5.6334,5.642,5.6425,5.6464,5.6464,5.6464,5.6888,5.7741,5.7741,5.8169,5.8987,5.8987,5.8987,5.8987,5.8987,5.9014,5.9095,5.9095,5.9075,5.91,5.91,5.9102,5.8946,5.7306,5.7153,5.7855,5.7855,5.836,5.9097,0.0,0.0,0.0,0.0,0.0,0.0,0.0,4.6144,4.6303,4.6309,4.6283,4.6286,4.6203,4.6989,4.7808,4.8616,4.9508,5.0362,5.1258,5.1297,5.1312,5.1406,5.1405,5.1398,5.1414,5.1414,5.1726,5.2351,5.2587,5.3368,5.4578,5.481,5.5279,5.5903,5.5903,5.5903,5.5903,5.5903,5.5903,5.5786,5.4498,5.4381,5.4927,0.0,0.0,0.0,0.0,0.0,0.0,0.0,0.0,0.0,0.0,0.0,0.0,0.0,0.0,0.0,0.0,0.0,0.0,0.0,0.0,0.0,0.0,0.0,0.0,0.0,0.0,0.0,0.0,0.0,0.0,0.0,5.6308,5.6308,5.6308,5.6329,5.6312,5.6286,5.6308,5.6036,5.5413,5.5928,5.6026,5.5384,5.5934,5.6562,5.7241,5.728,5.7552,5.8129,5.8129,5.8246,5.8479,5.8518,5.8635,5.8829,5.8829,5.8892,5.8932,5.8892,5.8927,5.901,5.8978,5.8987,5.903,5.903,5.9049,5.8997,5.8587,5.8558,5.8751,5.8691,5.8822,5.9034,0.0,0.0,0.0,0.0,0.0,0.0,0.0,4.6294,4.6251,4.63,4.6312,4.639,4.6674,4.7461,4.8316,4.9136,5.0017,5.0711,5.1222,5.1249,5.1279,5.1306,5.1357,5.1365,5.1366,5.1366,5.1796,5.2656,5.3007,5.3904,5.5263,5.5614,5.6076,5.6606,5.6606,5.6606,5.6606,5.6606,5.6606,5.6528,5.5513,5.5396,5.5825,5.5825,5.6177,5.6606,5.6606,5.6606,5.6606,5.6606,0.0,0.0,0.0,0.0,0.0,0.0,0.0,0.0,0.0,0.0,0.0,0.0,0.0,0.0,0.0,0.0,0.0,0.0,0.0,0.0,0.0,0.0,0.0,0.0,5.6291,5.6447,5.6796,5.6514,5.6297,5.6304,5.6291,5.6253,5.6097,5.6563,5.6758,5.6602,5.7068,5.7573,5.8078,5.8078,5.8311,5.8778,5.8817,5.8972,5.9322,5.9322,5.9516,5.9904,5.9904,5.9925,5.9957,5.9918,5.9963,6.0049,6.0016,5.9999,6.0044,6.0044,6.0062,0.0,0.0,0.0,0.0,0.0,6.0087,6.0049,0.0,0.0,0.0,0.0,0.0,0.0,0.0,4.6238,4.6231,4.6294,4.6298,4.6553,4.731,4.8195,4.9019,4.9815,5.0697,5.1202,5.1202,5.1215,5.1191,5.1203,5.1263,5.1291,5.1297,5.1414,5.188,5.2739,5.3598,5.4476,5.5351,5.6133,5.652,5.6573,5.6608,5.6606,5.6606,5.6606,5.6606,5.6606,5.6606,5.6606,5.6606,5.6606,5.6606,5.6606,5.6606,5.6606,5.6606,5.6606,0.0,0.0,0.0,0.0,0.0,0.0,0.0,0.0,0.0,0.0,0.0,0.0,0.0,0.0,0.0,0.0,0.0,0.0,0.0,0.0,0.0,0.0,0.0,0.0,5.6447,5.6758,5.7619,5.7068,5.6563,5.6563,5.6563,5.6835,5.7541,5.7696,5.8001,5.8622,5.8739,5.8855,5.8933,5.8933,0.0,0.0,0.0,5.9593,6.037,6.0487,6.0914,6.1684,6.1684,6.1684,6.1684,6.1684,6.1726,6.1783,6.1783,6.1773,6.1783,6.1783,6.1788,6.1602,5.9935,5.9772,6.0612,6.1329,6.156,6.1505,0.0,0.0,0.0,0.0,0.0,0.0,0.0,4.6209,4.62,4.6231,4.6236,4.6532,4.7306,4.8195,4.9019,4.9815,5.0697,5.1202,5.1202,5.1186,5.1201,5.1199,5.1218,5.1252,5.1295,5.1997,5.2778,5.3639,5.4457,5.532,5.6188,5.6404,5.6523,5.6522,5.658,5.6606,5.6606,5.6606,5.6606,5.6606,5.6606,5.6606,5.6606,5.6606,5.6606,5.6606,5.6606,5.6606,5.6606,5.6606,5.6606,5.6606,5.6606,5.6606,0.0,0.0,0.0,0.0,0.0,0.0,0.0,0.0,0.0,0.0,0.0,0.0,0.0,0.0,0.0,0.0,0.0,0.0,0.0,5.723,5.7347,5.7619,5.8467,5.8428,5.8311,5.8311,5.8311,5.8117,5.7658,5.8195,5.835,5.7891,5.8428,5.9127,5.9827,5.9865,6.0176,6.0868,6.1575,6.2041,6.2196,6.2896,6.3323,6.3517,6.3517,0.0,6.3517,6.3517,6.3486,6.35,6.35,6.3507,6.3521,6.3521,6.3515,6.3336,6.168,6.1135,6.1305,6.1456,6.1484,6.1428,0.0,0.0,0.0,0.0,0.0,0.0,0.0,4.6187,4.6162,4.62,4.6554,4.7122,4.7977,4.879,4.9659,5.0476,5.0969,5.1202,5.1202,5.1202,5.1186,5.1206,5.1211,5.1234,5.1238,5.206,5.2918,5.3814,5.4628,5.551,5.6368,5.636,5.6422,5.6437,5.6483,5.6522,5.6554,5.6554,5.6585,5.6606,5.6606,5.6606,5.6606,5.6606,5.6606,5.6606,5.6606,5.6606,5.6606,5.6606,5.6606,5.6606,5.6606,5.6606,5.6575,0.0,0.0,0.0,0.0,0.0,0.0,0.0,0.0,0.0,0.0,0.0,0.0,0.0,0.0,5.6447,5.6881,0.0,5.7224,5.804,5.8195,5.8506,5.9322,5.9438,5.9283,5.8855,5.8817,5.8817,5.8855,5.9205,5.9477,5.9516,5.9865,6.0487,6.1342,6.1381,6.1808,6.2663,6.3129,6.3362,6.3362,6.3789,6.3983,6.3983,6.3983,6.3983,6.3983,6.3983,6.3983,6.3983,6.3983,6.3983,6.3983,6.3983,6.4005,6.393,6.3067,6.2786,6.2808,6.2774,6.2735,6.2718,0.0,0.0,0.0,0.0,0.0,0.0,0.0,4.6115,4.6117,4.6162,4.6902,4.7743,4.8603,4.9416,5.0252,5.113,5.1202,5.1202,5.1202,5.1202,5.1202,5.1202,5.1202,5.1202,5.1202,5.2135,5.2989,5.3695,5.4731,5.5602,5.6281,5.6299,5.634,5.6397,5.6406,5.6427,5.6483,5.6484,5.652,5.6579,5.6608,5.6606,5.6606,5.6606,5.6606,5.6606,5.6606,5.6606,5.6606,5.6606,5.6571,5.6579,5.6579,5.6584,5.6554,5.6483,5.6479,0.0,0.0,0.0,0.0,0.0,0.0,0.0,0.0,5.6291,5.6291,5.6291,5.6447,5.6758,5.7463,5.7735,5.8078,5.8933,5.905,5.936,6.0215,6.0332,6.0099,5.9399,5.9322,5.9593,6.0293,6.0332,6.0642,6.1335,6.1568,6.1963,6.2663,6.2857,6.3284,6.3983,6.4139,6.4216,6.4216,6.4411,6.4488,6.4488,6.4488,6.4488,6.4488,6.4488,6.4488,6.4488,6.4488,6.4488,6.4488,6.4488,6.4488,6.4488,6.4488,6.452,6.4521,6.413,6.3994,6.3988,0.0,0.0,0.0,0.0,0.0,0.0,0.0,0.0,4.6027,4.6117,4.6857,4.7747,4.8599,4.9416,5.0252,5.113,5.1202,5.1202,5.1202,5.1202,5.1202,5.1202,5.1202,5.1202,5.1202,5.2756,5.3617,5.3695,5.5288,5.6155,5.6317,5.6285,5.6294,5.6328,5.635,5.6413,5.6419,5.6482,5.6484,5.6522,5.658,5.6606,5.6606,5.6606,5.6606,5.6606,5.6606,5.6606,5.6606,5.6606,5.6549,5.6523,5.6523,5.6481,5.6417,5.6322,5.634,5.632,5.6292,5.6329,5.631,5.6298,5.6291,5.6291,0.0,5.6291,5.6291,5.6291,5.6919,5.7463,5.758,5.8195,5.8933,5.9827,5.9943,6.0254,6.114,6.1257,6.1218,6.1102,6.1102,6.114,6.1257,6.1257,6.1296,6.1373,6.2119,6.2585,6.2701,6.3439,6.3906,6.3983,6.4683,6.5064,6.5064,6.5848,6.6237,6.6237,6.6237,6.6237,6.6237,6.6237,6.6237,6.6237,6.6237,6.6237,6.6237,6.6237,6.6237,6.6237,6.6237,6.6205,6.6065,6.4542,6.3998,6.3998,0.0,0.0,0.0,0.0,0.0,0.0,0.0,0.0,0.0,4.6032,4.7237,4.8243,4.8593,4.9837,5.0798,5.1163,5.1202,5.1202,5.1202,5.1202,5.1202,5.1202,5.1145,5.1133,5.1133,5.2783,5.3631,5.3631,5.5356,5.6223,5.6226,5.6226,5.6269,5.6297,5.6344,5.6355,5.6365,5.6419,5.6433,5.6435,5.6484,5.6484,5.6481,5.6439,5.6438,5.644,5.6522,5.6556,0.0,5.6484,5.6441,5.6433,5.6433,5.6424,5.6399,5.6336,5.6312,5.629,5.629,5.6291,5.6291,5.6291,5.6291,5.6291,5.6291,5.668,5.7075,5.7075,5.7729,5.8467,5.8972,5.9322,5.9827,6.072,6.0875,6.0992,6.1335,6.1412,6.1412,6.1412,6.1412,6.1412,6.1412,6.1847,6.2157,6.2157,6.2973,6.3673,6.4139,6.4488,6.4916,6.5421,6.577,6.5965,6.5965,6.6314,6.6508,6.6508,6.6508,6.6508,6.6508,6.6508,6.6508,6.6508,6.6508,6.6508,6.6508,6.6508,6.6508,6.6508,6.6508,6.6508,6.6431,6.5693,6.546,6.546,0.0,0.0,0.0,0.0,0.0,0.0,0.0,0.0,0.0,0.0,4.7667,4.8794,4.926,5.0425,5.1202,5.1202,5.1202,5.1202,5.1202,5.1202,5.1196,5.119,5.1127,5.1114,5.1102,5.2743,5.3621,5.3621,5.5312,5.6187,5.6185,5.6185,5.6245,5.6278,5.6291,5.6308,5.6315,5.6354,5.6383,5.6386,5.6385,5.638,5.6383,5.6332,5.6287,5.6296,5.6429,5.644,5.6438,5.6415,5.6394,5.6383,5.6389,5.6377,5.6351,5.6329,5.631,5.629,5.6284,5.6291,5.6291,5.6291,5.6291,5.6369,5.6602,5.7153,5.7658,5.7891,5.8583,5.936,5.9982,6.0293,6.0681,6.1296,6.1412,6.1412,6.1412,6.1606,6.1762,6.1762,6.1963,6.2119,6.2119,6.2468,6.2701,6.2701,6.3711,6.4605,6.518,6.5413,6.5848,6.647,6.6508,6.6508,6.6508,6.6508,6.6508,6.6508,6.6508,6.6508,6.6508,6.6508,6.6508,6.6508,6.6508,6.6508,6.6508,6.6508,6.6508,6.6508,6.6508,6.6508,6.6508,6.6508,6.6508,6.6508,0.0,0.0,0.0,0.0,0.0,0.0,0.0,0.0,0.0,0.0,0.0,0.0,0.0,5.1163,5.1202,5.1202,5.1202,5.1202,5.1202,5.1202,5.119,5.1121,5.1114,5.1102,5.1101,5.2729,5.3621,5.3621,5.5281,5.6141,5.618,5.618,5.6202,5.6206,5.6278,5.6298,5.6304,5.6285,5.632,5.6285,5.6312,5.6296,5.6293,5.6293,5.629,5.6287,5.629,5.6293,5.6338,5.6386,5.6347,5.6285,5.6308,5.6285,5.6304,5.6298,5.6298,5.6298,5.6291,5.6291,5.6291,5.6291,5.6291,5.6524,5.7386,5.758,5.7813,5.8583,5.9477,6.006,6.0099,6.0798,6.1373,6.1412,6.1412,6.1412,6.1412,6.2119,6.2663,6.2663,6.3401,6.3906,6.3906,6.3168,6.2701,6.2701,6.4216,6.518,6.518,6.6003,6.647,6.6508,6.6508,6.6508,6.6508,6.6508,6.6508,6.6508,6.6508,6.6508,6.6508,6.6508,6.6508,6.6508,6.6508,6.6508,6.6508,6.6508,6.6508,6.6508,6.6508,6.6508,6.6508,6.6508,6.6508,6.6508,0.0,0.0,0.0,0.0,0.0,0.0,0.0,0.0,0.0,0.0,0.0,0.0,0.0,0.0,0.0,0.0,5.1134,5.1134,5.1134,5.1121,5.1127,5.1114,5.1095,5.1114,5.1101,5.2717,5.3538,5.3538,5.5225,5.6054,5.6141,5.6141,5.6157,5.6202,5.6216,5.6216,5.6231,5.6242,5.6242,5.6246,5.6225,5.6214,5.6175,5.611,5.6103,5.6096,0.0,5.6146,5.6237,5.6247,5.6233,5.6239,5.6214,5.6239,5.6226,5.6285,5.6291,5.6291,5.6291,5.6291,5.6291,5.6291,5.6719,5.723,5.7541,5.8474,5.9322,5.9593,6.037,6.0953,6.0953,6.1179,6.1606,6.2157,6.2274,6.2468,6.3051,6.3362,6.3556,6.3556,6.3828,6.3983,6.3983,6.4216,6.4372,6.4372,6.5421,6.6081,6.6081,6.6353,6.6508,6.6508,6.6508,6.678,6.7363,6.7363,6.7635,6.8218,6.8218,6.8218,6.8218,6.8218,6.8218,6.8218,6.8218,6.8218,6.8218,6.8218,6.8218,6.8218,6.8218,6.8218,6.8218,6.8218,6.7868,6.7285,0.0,0.0,0.0,0.0,0.0,0.0,0.0,0.0,0.0,0.0,0.0,0.0,0.0,0.0,0.0,0.0,0.0,5.1101,5.1101,5.1082,5.1089,5.1082,5.1055,5.1034,5.102,5.2369,5.3188,5.3498,5.489,5.575,5.6054,5.6109,5.6133,5.6157,5.6172,5.6218,5.6187,5.6155,5.6174,5.6164,5.6146,5.6109,5.6046,5.602,5.6012,0.0,5.6012,5.6079,5.6116,5.6148,5.6164,5.618,5.6194,5.6231,5.6226,5.6285,5.6291,5.6291,5.6291,5.6291,5.6369,5.668,5.7191,5.7774,5.8357,5.9315,6.0194,6.0466,6.0956,6.1376,6.1376,6.1344,6.167,6.2524,6.2694,6.3012,6.3867,6.4255,6.4411,6.4411,6.4683,6.4877,6.4877,6.5343,6.553,6.5219,6.6003,6.6508,6.6508,6.6508,6.6625,6.6936,6.6975,6.7363,6.8257,6.8257,6.8567,6.9111,6.9111,6.9111,6.9111,6.9111,6.9111,6.9111,6.9111,6.9111,6.9111,6.9111,6.9111,6.9111,6.9111,6.9095,6.9048,6.9048,6.8691,6.8061,0.0,0.0,0.0,0.0,0.0,0.0,0.0,0.0,0.0,0.0,0.0,0.0,0.0,0.0,0.0,0.0,0.0,0.0,5.1094,5.1094,5.108,5.1005,5.1005,5.099,5.0906,5.1757,5.2616,5.342,5.4349,5.52,5.5935,5.6054,5.607,5.6117,5.6157,5.6172,5.6172,5.6133,5.607,5.6109,5.6029,5.6012,5.6012,5.6012,5.6012,5.6012,5.6012,5.6012,5.6012,5.6062,5.6141,5.6187,5.6185,5.6226,5.6291,5.6291,5.6291,5.6291,5.6291,5.6291,5.6524,5.7386,5.7619,5.8078,5.9749,6.0141,6.0383,6.112,6.1291,6.1297,6.1336,6.1368,6.1671,6.2564,6.2796,6.3129,6.4022,6.4799,6.5258,6.5258,6.6003,6.6508,6.6508,6.6508,6.6159,6.5336,6.6042,6.6508,6.6508,6.6547,6.6936,6.7752,6.7829,6.8296,6.915,6.9228,6.9228,6.9228,6.9228,6.9228,6.9228,6.9228,6.9228,6.9228,6.9228,6.9228,6.9228,6.9228,6.922,6.922,6.922,6.9195,6.9114,6.9114,6.9049,6.8858,0.0,0.0,0.0,0.0,0.0,0.0,0.0,0.0,0.0,0.0,0.0,0.0,0.0,0.0,0.0,0.0,0.0,0.0,5.0929,5.1005,5.102,5.1005,5.1005,5.1005,5.0952,5.1773,5.2306,5.2539,5.4039,5.489,5.5122,5.575,5.6029,5.6029,5.6037,5.6046,5.6046,5.6029,5.6029,5.602,5.6012,5.6012,5.6012,5.6012,5.6012,5.6012,5.6012,5.6012,5.6012,5.6062,5.6141,5.6187,5.6185,5.6206,5.6258,5.6285,5.6291,5.6291,5.6291,5.6291,5.6524,5.7386,5.8058,5.8775,5.9862,6.0569,6.1042,6.1275,6.1306,6.1491,6.2073,6.2222,6.2758,6.4272,6.4536,6.4877,6.5732,6.6042,6.6159,6.6159,6.6353,6.6508,6.6508,6.6508,6.6392,6.6198,6.6353,6.6508,6.6508,6.713,6.7557,6.779,6.8412,6.915,7.0005,7.0626,7.0976,7.0976,7.0976,7.0976,7.0976,7.0976,7.0976,7.0976,7.0976,7.0976,7.0976,7.0976,7.0951,7.0956,7.0956,7.0929,7.0854,7.0854,7.0457,6.9827,0.0,0.0,0.0,0.0,0.0,0.0,0.0,0.0,0.0,0.0,0.0,0.0,0.0,0.0,0.0,0.0,0.0,0.0,0.0,5.0921,5.0975,5.0975,5.0975,5.0975,5.0975,5.1378,5.1834,5.219,5.3188,5.4039,5.4813,5.5277,5.5664,5.6012,5.6012,5.6012,5.6012,5.6012,5.6012,0.0,0.0,5.6012,5.6012,5.6012,5.6012,5.6012,5.6012,5.6037,5.607,5.6133,5.6172,5.6209,5.6213,5.6226,5.6265,5.6285,5.6291,5.6291,5.6291,5.6563,5.7068,5.7923,5.8764,5.9597,6.0429,6.098,6.1297,6.1272,6.1527,6.1935,6.2361,6.2784,6.3524,6.4937,6.5172,6.5514,6.6392,6.6508,6.6508,6.6508,6.6508,6.6508,6.6508,6.6508,6.6508,6.6508,6.6508,6.6508,6.6508,6.7324,6.7985,6.8373,6.9189,7.0044,7.086,7.1365,7.1598,7.1598,7.1598,7.1598,7.1598,7.1598,7.1598,7.1598,7.1598,7.1589,7.1603,7.1603,7.1577,7.1571,7.1571,7.1504,7.1455,7.1455,7.1135,7.0689,0.0,0.0,0.0,0.0,0.0,0.0,0.0,0.0,0.0,0.0,0.0,0.0,0.0,0.0,0.0,0.0,0.0,0.0,0.0,0.0,0.0,5.0898,5.0898,5.0898,5.0898,5.0898,5.1254,5.2028,5.2152,5.3033,5.4619,5.4735,5.5238,5.6012,5.6012,5.6012,5.6012,5.6012,5.6012,5.6012,5.6012,5.6012,5.6012,0.0,5.6012,5.6012,5.6012,5.6062,5.6172,5.6218,5.6209,5.6213,5.6285,5.6291,5.6291,5.6291,5.6291,5.6291,5.6291,5.6958,5.7774,5.8583,5.9431,6.0318,6.1128,6.1283,6.1281,6.1191,6.1842,6.2433,6.2549,6.3284,6.4182,6.5118,6.5325,6.5607,6.6377,6.6501,6.6508,6.6508,6.6508,6.6508,6.6508,6.6508,6.6508,6.6508,6.6625,6.6664,6.6664,6.748,6.8412,6.9422,7.0121,7.0821,7.1598,7.1598,7.1598,7.1598,7.1598,7.1598,7.1589,7.1589,7.1589,7.1581,7.1581,7.1594,7.1589,7.1589,7.1561,7.1485,7.1485,7.1455,7.1405,7.1405,7.1334,7.1291,0.0,0.0,0.0,0.0,0.0,0.0,0.0,0.0,0.0,0.0,5.0341,5.0921,0.0,0.0,0.0,0.0,0.0,0.0,0.0,0.0,0.0,0.0,5.0898,5.0898,5.0898,5.0898,5.0975,5.113,5.1834,5.2724,5.373,5.4465,5.5238,5.6012,5.6012,5.6012,5.6012,5.6012,5.6012,5.6012,5.6012,5.6012,5.6012,5.6012,0.0,0.0,5.6012,5.6046,5.6133,5.6164,5.6231,5.6285,5.6291,5.6291,5.6291,5.6291,5.6291,5.6291,5.6291,5.6958,5.7774,5.8583,5.941,6.0228,6.1089,6.1272,6.1182,6.1137,6.1814,6.2627,6.3323,6.4183,6.5073,6.5973,6.6161,6.6251,6.6414,6.6485,6.6508,6.6508,6.6508,6.6508,6.6508,6.6508,6.6508,6.6508,6.7169,6.7557,6.7557,6.8412,6.9578,7.1131,7.1287,7.1442,7.1598,7.1598,7.1598,7.1598,7.1598,7.162,7.1616,7.1616,7.1559,7.1523,7.1523,0.0,7.1504,7.1504,7.1475,7.1425,7.1425,7.1394,7.1313,7.1313,7.1302,7.1291,0.0,0.0,0.0,0.0,0.0,0.0,0.0,4.785,4.8701,4.9591,5.0395,5.0898,5.0898,5.0898,0.0,0.0,0.0,0.0,0.0,0.0,0.0,0.0,0.0,0.0,5.0898,5.0898,5.0898,5.0898,0.0,5.2182,5.3498,5.3923,5.4774,5.6012,5.6012,5.6012,5.6012,5.6012,5.6012,5.6012,5.6012,5.6012,5.6012,0.0,0.0,0.0,5.6012,5.6037,5.6117,5.6141,5.6202,5.6265,5.6285,5.6291,5.6291,5.6291,5.6291,5.6291,5.6291,5.7224,5.8311,5.87,5.9767,6.0825,6.1197,6.1281,6.1208,6.1127,6.2162,6.3207,6.3642,6.4745,6.5771,6.6225,6.634,6.6346,6.6411,6.6445,6.6439,6.6439,6.6493,6.6508,6.6508,6.6508,6.6508,6.6508,6.7324,6.779,6.779,6.9034,7.0316,7.1559,7.1598,7.1598,7.1598,7.1611,7.1603,7.1603,7.1577,7.155,7.1561,7.1561,7.1513,7.1494,7.1494,7.1475,7.1455,7.1455,7.1425,7.1334,7.1334,7.1313,7.1291,7.1291,7.1291,7.1291,0.0,0.0,0.0,0.0,0.0,0.0,0.0,4.7966,4.8778,4.9823,5.0511,5.0898,5.0898,5.0898,5.0898,0.0,0.0,0.0,0.0,0.0,0.0,0.0,0.0,0.0,0.0,0.0,0.0,5.0898,5.0898,0.0,0.0,0.0,0.0,0.0,5.6012,5.6012,5.6012,5.6012,5.6012,0.0,0.0,5.6012,0.0,0.0,0.0,0.0,0.0,5.6029,5.6062,5.6109,5.6118,5.6185,5.6258,5.6278,5.6291,5.6291,5.6291,5.633,5.6524,5.7651,5.8855,5.905,6.0254,6.1398,6.1322,6.1297,6.1311,6.1369,6.2627,6.3758,6.3952,6.518,6.6234,6.6284,6.6303,6.6322,6.6358,6.6373,6.6406,6.6406,6.6439,6.6508,6.6508,6.6508,6.6508,6.6508,6.7472,6.8132,6.8334,6.9772,7.089,7.1581,7.1581,7.1581,7.1573,7.1568,7.1589,7.1589,7.1552,7.1485,7.1475,7.1475,7.1465,7.1455,7.1455,7.1435,7.1394,7.1394,7.1334,7.1291,7.1291,7.1291,7.1291,7.1291,7.1291,7.1291,0.0,0.0,0.0,0.0,0.0,0.0,0.0,4.8353,4.8972,5.0589,5.0859,5.0898,5.0898,5.0898,5.0898,0.0,0.0,0.0,0.0,0.0,0.0,0.0,0.0,0.0,0.0,0.0,0.0,5.0898,5.0898,0.0,0.0,0.0,0.0,0.0,0.0,5.6012,5.6012,5.6012,0.0,0.0,0.0,0.0,0.0,0.0,0.0,0.0,0.0,5.6012,5.602,5.6062,5.6078,5.6133,5.618,5.6238,5.6291,5.6291,5.6291,5.6486,5.7269,5.8117,5.9011,5.9788,6.072,6.1398,6.1322,6.1297,6.1505,6.2143,6.3052,6.3952,6.4725,6.5605,6.6185,6.6195,6.6274,6.6312,6.6312,6.6346,6.6406,6.6406,6.6439,6.6508,6.6508,6.6508,6.6508,6.6508,6.7984,6.9226,7.0044,7.0976,7.1503,7.1607,7.1607,7.1589,7.1504,7.1504,7.1494,7.1494,7.1494,7.1465,7.1425,7.1425,7.1394,7.1313,7.1313,7.1302,0.0,7.1302,7.1302,7.1291,7.1291,7.1291,7.1291,7.1291,7.1291,7.1291,0.0,0.0,0.0,0.0,0.0,0.0,4.8121,4.8392,4.901,5.0666,5.0898,5.0898,5.0898,5.0898,5.0898,0.0,0.0,0.0,0.0,0.0,0.0,0.0,0.0,0.0,0.0,0.0,5.0898,5.0898,5.0898,0.0,0.0,0.0,0.0,0.0,0.0,5.6012,5.6012,5.6012,0.0,0.0,0.0,0.0,0.0,0.0,0.0,0.0,0.0,0.0,5.6012,5.6029,5.6054,5.6117,5.6133,5.618,5.6231,5.6251,5.6278,5.6486,5.7347,5.8195,5.9011,5.9865,6.0699,6.1329,6.1314,6.1281,6.147,6.2249,6.3091,6.399,6.4841,6.5644,6.6185,6.6185,6.6205,6.6254,6.6254,6.6283,6.6338,6.6403,6.6406,6.6477,6.6508,6.6446,6.6841,6.7864,6.8545,6.9553,7.0968,7.1356,7.1541,7.1523,7.1523,7.1513,7.1494,7.1465,7.1445,7.1445,7.1415,7.1384,7.1324,7.1324,7.1313,7.1291,7.1291,7.1291,0.0,7.1291,7.1291,7.1291,7.1291,7.1291,7.1291,7.1291,7.1269,7.1247,0.0,0.0,0.0,0.0,0.0,4.6689,4.8159,4.8624,4.9281,5.0705,5.0898,5.0898,5.0898,5.0898,5.0898,5.0898,5.0898,0.0,0.0,0.0,0.0,0.0,0.0,0.0,0.0,0.0,5.0898,5.0898,5.1169,5.2051,0.0,0.0,5.4684,5.6085,0.0,0.0,0.0,0.0,0.0,0.0,0.0,0.0,0.0,0.0,0.0,0.0,0.0,0.0,0.0,0.0,0.0,5.6054,5.6054,5.6125,5.6172,5.6185,5.6219,5.6511,5.7651,5.835,5.9088,6.0215,6.0886,6.1306,6.1314,6.1264,6.1483,6.2559,6.3284,6.4029,6.5141,6.5837,6.6185,6.6185,6.6185,6.6185,6.6185,6.6274,6.6322,6.6358,6.6411,6.6414,6.6469,6.6445,6.7101,6.8762,6.8868,6.9644,7.1329,7.1445,7.1455,7.1465,7.1465,7.1465,7.1445,7.1376,7.1355,7.1355,7.1313,7.1291,7.1291,7.1291,7.1291,7.1291,7.1291,7.1291,0.0,7.1291,7.1291,7.1291,7.1291,7.128,7.1269,7.1269,7.1236,7.1178,0.0,0.0,0.0,0.0,0.0,0.0,4.8275,4.9126,4.9977,5.0782,5.0898,5.0898,5.0898,5.0898,5.0898,5.0898,5.0898,0.0,0.0,0.0,0.0,0.0,0.0,0.0,0.0,0.0,5.0898,5.0898,5.1757,5.2661,5.3623,5.4472,5.5392,5.6308,0.0,0.0,0.0,0.0,0.0,0.0,0.0,0.0,0.0,0.0,0.0,0.0,0.0,0.0,0.0,0.0,0.0,0.0,0.0,5.6037,5.6094,5.6178,5.6199,5.6594,5.8298,5.8778,5.9205,6.0946,6.1352,6.1306,6.1314,6.1264,6.1676,6.3342,6.3681,6.4222,6.5876,6.6185,6.6185,6.6185,6.6185,6.6185,6.6185,6.6274,6.6303,6.6303,6.6346,6.6389,6.6385,6.6385,6.7056,6.8665,6.882,6.9526,7.1225,7.1291,7.1324,7.1415,7.1415,7.1355,7.1291,7.1291,7.1291,7.1291,7.1291,7.1291,7.1291,7.1291,7.1291,7.1291,7.1291,7.1291,0.0,7.1291,7.1291,7.1291,7.1291,7.1258,7.1213,7.1213,7.1166,7.1106,0.0,0.0,0.0,0.0,0.0,0.0,0.0,4.9126,4.9977,5.0782,5.0898,5.0898,5.0898,5.0898,5.0898,5.0898,5.0898,0.0,0.0,0.0,0.0,0.0,0.0,0.0,0.0,0.0,5.1056,5.1056,5.1969,5.2845,5.3731,5.4592,5.5424,5.6312,5.6312,5.6294,0.0,0.0,0.0,0.0,0.0,0.0,5.6146,0.0,0.0,0.0,0.0,0.0,0.0,0.0,0.0,0.0,0.0,0.0,0.0,5.6102,5.618,5.659,5.8273,5.8738,5.9165,6.0911,6.1267,6.1225,6.1217,6.1173,6.164,6.3333,6.3719,6.4222,6.5876,6.6185,6.6185,6.6185,6.6185,6.6185,6.6185,6.6205,6.6264,6.6303,6.6367,6.6385,6.634,6.6331,6.7,6.8692,6.8798,6.9533,7.1214,7.1291,7.1302,7.1324,7.1324,7.1313,7.1291,7.1291,7.1291,7.1291,7.1291,7.1291,7.1291,7.1291,7.1291,7.1291,7.1291,7.1291,7.1291,7.1291,7.1269,7.1236,7.1236,7.119,7.113,7.113,7.1093,7.103,0.0,0.0,0.0,0.0,0.0,0.0,0.0,4.9629,5.0318,5.0821,5.0898,5.0898,5.0898,5.0898,5.0898,5.0898,5.0898,0.0,0.0,0.0,0.0,0.0,0.0,0.0,0.0,5.1152,5.1152,5.1152,5.2386,5.3288,5.3858,5.5028,5.5864,5.6394,5.6394,5.6419,0.0,0.0,0.0,0.0,0.0,0.0,5.6242,0.0,0.0,0.0,0.0,0.0,0.0,0.0,0.0,0.0,0.0,0.0,0.0,0.0,5.607,5.649,5.8227,5.87,5.9126,6.0871,6.1264,6.1182,6.1182,6.1146,6.1582,6.3333,6.3719,6.4222,6.5876,6.6185,6.6185,6.6185,6.6185,6.6185,6.6185,6.6185,6.6205,6.6303,6.6322,6.6322,6.6312,6.6284,6.6845,6.8197,6.8622,6.9396,7.075,7.1098,7.1291,7.1291,7.1291,7.1291,7.1291,7.1291,7.1291,7.1291,7.1291,7.1291,7.1291,7.1291,7.1291,7.1291,7.1291,7.1291,0.0,7.1269,7.1236,7.1201,7.1178,7.113,7.1068,7.1068,7.1018,7.0965,0.0,0.0,0.0,0.0,0.0,0.0,0.0,5.0411,5.0914,5.0898,5.0914,5.0914,5.0898,5.0898,5.0898,5.0898,0.0,0.0,0.0,0.0,0.0,0.0,0.0,0.0,0.0,5.1211,5.125,5.1289,5.3007,5.3868,5.4037,5.5712,5.655,5.6601,5.6601,5.6558,0.0,0.0,0.0,0.0,5.6253,5.6275,0.0,0.0,0.0,0.0,0.0,0.0,0.0,0.0,0.0,0.0,0.0,0.0,0.0,0.0,0.0,0.0,0.0,5.8692,5.9118,6.0863,6.1255,6.1182,6.1182,6.1146,0.0,6.3333,6.3719,6.4222,6.5876,6.6185,6.6185,6.6185,6.6185,6.6185,6.6185,6.6185,6.6205,6.6293,6.6254,6.6205,6.6293,6.6254,6.6572,6.7423,6.8313,6.9164,6.9938,7.0827,7.1291,7.1291,7.1291,7.1291,7.1291,7.1291,7.1291,7.1291,7.1291,7.1291,7.1291,7.1291,7.1291,0.0,7.1291,7.1291,7.128,7.1224,7.1201,7.119,7.1118,7.1056,7.0992,7.0992,7.0952,7.0898,0.0,0.0,0.0,0.0,0.0,0.0,0.0,0.0,0.0,0.0,5.1009,5.0998,5.0914,5.0898,5.0898,0.0,0.0,0.0,0.0,0.0,0.0,0.0,0.0,0.0,0.0,5.1279,5.1594,5.2257,5.3382,5.4292,5.4998,5.6053,5.6562,5.6601,5.6601,5.6601,5.656,0.0,0.0,0.0,5.6455,5.6458,0.0,0.0,0.0,0.0,5.6303,5.6203,0.0,0.0,0.0,0.0,0.0,0.0,0.0,0.0,5.6467,5.7211,5.8321,0.0,5.9026,6.0729,6.1146,6.1137,0.0,6.1127,6.1582,6.3333,6.3719,6.4222,6.5876,6.6185,6.6185,6.6185,6.6185,6.6185,6.6185,6.6185,6.6195,6.6205,6.6195,6.6195,6.6205,6.6195,6.6572,6.7423,6.8313,6.9164,6.9938,7.0827,7.1291,7.1291,7.1291,7.1291,7.1291,7.1291,7.1291,7.1291,7.1291,7.1291,7.1291,7.1291,7.1291,7.1291,7.1247,7.1224,7.1224,7.1154,7.1093,7.1056,7.103,7.0979,7.0925,7.0925,7.0912,7.0898,0.0,0.0,0.0,0.0,0.0,0.0,0.0,0.0,0.0,0.0,0.0,0.0,0.0,0.0,0.0,0.0,0.0,0.0,0.0,0.0,0.0,0.0,0.0,0.0,5.1358,5.1358,5.1788,5.2647,5.3554,5.4453,5.5312,5.6172,5.6601,5.6601,5.6601,5.6601,5.6601,5.6601,5.6561,5.6551,5.6497,0.0,0.0,0.0,0.0,0.0,5.634,5.6246,0.0,5.6032,5.6012,5.6012,0.0,0.0,0.0,0.0,5.6622,5.7473,5.8372,5.8874,5.9493,6.077,6.1118,6.1118,6.1118,6.1118,6.1582,6.3333,6.3719,6.4222,6.5876,6.6185,6.6185,6.6185,6.6185,6.6185,6.6185,6.6185,6.6185,6.6185,6.6185,6.6185,6.6185,6.6185,6.6417,6.6882,6.7694,6.8584,6.9396,7.0247,7.0905,7.1291,7.1291,7.1291,7.1291,7.1291,7.1291,7.1291,7.1291,7.1291,7.1291,7.1291,7.128,7.1258,7.1224,7.119,7.1154,7.1081,7.103,7.1005,7.0965,7.0925,7.0898,7.0898,7.0898,7.0898,0.0,0.0,0.0,0.0,0.0,0.0,0.0,0.0,0.0,0.0,0.0,0.0,0.0,0.0,0.0,0.0,0.0,0.0,0.0,0.0,0.0,0.0,0.0,5.1406,5.1406,5.1523,5.2031,5.2891,5.3789,5.4648,5.5508,5.625,5.6601,5.6601,5.6601,5.6601,5.6601,5.6601,5.6601,5.6601,5.6549,0.0,0.0,0.0,0.0,0.0,0.0,0.0,0.0,5.6032,5.6012,5.6012,5.6012,0.0,0.0,0.0,0.0,0.0,5.841,5.9339,6.0267,6.0925,6.1118,6.1118,6.1118,6.1118,6.1582,6.3333,6.3719,6.4222,6.5876,6.6185,6.6185,6.6185,6.6185,6.6185,6.6185,6.6185,6.6185,6.6185,6.6185,6.6185,6.6185,6.6185,6.6185,6.6185,6.6998,6.781,6.8545,6.9473,7.0324,7.1059,7.1214,7.1291,7.1291,7.1291,7.1291,7.1291,7.1291,7.1291,7.128,7.128,7.1247,7.119,7.1178,0.0,7.1081,7.1018,7.0992,7.0979,7.0925,7.0898,7.0898,7.0898,7.0898,7.0898,0.0,0.0,0.0,0.0,0.0,0.0,0.0,0.0,0.0,0.0,0.0,0.0,0.0,0.0,0.0,0.0,0.0,0.0,0.0,0.0,0.0,0.0,5.1406,5.1406,5.1406,5.2109,5.293,5.3789,5.4687,5.5547,5.6406,5.6523,5.6601,5.6601,5.6601,5.6601,5.6601,5.6601,5.6601,5.6601,5.6601,0.0,0.0,0.0,0.0,0.0,0.0,0.0,0.0,5.6032,5.6012,5.6012,5.6012,0.0,0.0,0.0,0.0,0.0,5.8574,5.9725,6.0963,6.1079,6.1118,6.1118,6.1118,6.1118,6.1582,6.3333,6.3719,6.4222,6.5876,6.6185,6.6185,6.6185,6.6185,6.6185,6.6185,6.6185,6.6185,6.6185,6.6185,6.6185,6.6185,6.6185,6.6185,6.6185,6.6998,6.7578,6.7694,6.9164,7.0054,7.0208,7.0905,7.1291,7.1291,7.1291,7.1291,7.1291,7.1291,7.1269,7.1224,7.1224,7.1178,7.1118,0.0,7.103,7.1018,7.0939,7.0912,7.0912,7.0898,7.0898,7.0898,7.0898,7.0898,7.0783,0.0,0.0,0.0,0.0,0.0,0.0,0.0,0.0,0.0,0.0,0.0,0.0,0.0,0.0,0.0,0.0,0.0,0.0,0.0,0.0,0.0,5.1406,5.1406,5.1601,5.2109,5.25,5.3359,5.4687,5.5117,5.5742,5.6601,5.6601,5.6601,5.6601,5.6601,5.6601,5.6601,5.6601,5.6601,5.6601,0.0,0.0,0.0,0.0,0.0,0.0,0.0,0.0,0.0,0.0,5.6012,5.6012,5.6012,0.0,0.0,0.0,0.0,0.0,5.9184,6.019,6.1118,6.1118,6.1118,6.1118,6.1118,6.1118,6.1582,6.3333,6.3719,6.4222,6.5876,6.6185,6.6185,6.6185,6.6185,6.6185,6.6185,6.6185,6.6185,6.6185,6.6185,6.6185,6.6185,6.6185,6.6185,6.6185,6.6572,6.6998,6.7462,6.8236,6.9048,6.9976,7.0402,7.0827,7.1291,7.1258,7.1258,7.1291,7.1258,7.1236,7.1201,7.1166,7.1118,7.1043,0.0,7.0979,7.0939,7.0912,7.0898,7.0898,7.0898,7.0898,7.0898,7.0898,7.0629,7.0206,0.0,0.0,0.0,0.0,0.0,0.0,0.0,0.0,0.0,0.0,0.0,0.0,0.0,0.0,0.0,0.0,0.0,0.0,0.0,0.0,5.1358,5.1406,5.1406,5.1797,5.2695,5.2891,5.375,5.5312,5.5508,5.5937,5.6601,5.6601,5.6601,5.6601,5.6601,5.6601,5.6601,5.6562,5.656,5.656,0.0,0.0,0.0,0.0,0.0,0.0,0.0,0.0,0.0,0.0,0.0,0.0,0.0,0.0,0.0,5.7048,5.7907,5.8806,5.9648,6.0499,6.1118,6.1118,6.1118,6.1118,6.1118,6.1118,6.1582,6.3333,6.3719,6.4222,6.5876,6.6185,6.6185,6.6185,6.6185,6.6185,6.6185,6.6185,6.6185,6.6185,6.6185,6.6185,6.6185,6.6185,6.6185,6.6185,6.6185,6.6495,6.7152,6.7384,6.8081,6.9357,6.9783,7.0324,7.096,7.1108,7.1224,7.1269,7.1213,7.1178,7.1154,7.1106,7.1043,7.0979,7.0979,7.0952,7.0898,7.0898,7.0898,7.0898,7.0898,7.0898,7.0898,7.0898,7.0398,6.9667,0.0,0.0,0.0,0.0,0.0,0.0,0.0,0.0,0.0,0.0,0.0,0.0,0.0,0.0,0.0,0.0,0.0,0.0,0.0,0.0,5.1406,5.1406,5.1406,5.1797,5.2695,5.3476,5.4375,5.5312,5.6094,5.6523,5.6601,5.6601,5.6601,5.6601,5.6601,5.6601,5.6601,5.6546,5.6493,5.6493,5.6489,0.0,0.0,0.0,0.0,0.0,0.0,0.0,0.0,0.0,0.0,0.0,0.0,0.0,5.6158,5.7048,5.7907,5.8806,5.9648,6.0499,6.1118,6.1118,6.1118,6.1118,6.1118,6.1118,6.1582,6.3333,6.3719,6.4222,6.5876,6.6185,6.6185,6.6185,6.6185,6.6185,6.6185,6.6185,6.6185,6.6185,6.6185,6.6185,6.6185,6.6185,6.6185,6.6185,6.6185,6.6224,6.6301,6.7075,6.7578,6.7694,6.9203,6.9993,7.0004,7.0776,7.1213,7.1213,7.1142,7.1081,7.1018,7.1018,7.0965,7.0912,7.0912,7.0898,7.0898,7.0898,7.0898,7.0898,7.0898,7.0898,7.0898,7.0898,7.0398,6.959,0.0,0.0,0.0,0.0,0.0,0.0,0.0,0.0,0.0,0.0,0.0,0.0,0.0,0.0,0.0,0.0,0.0,0.0,0.0,0.0,5.1406,5.1406,5.1406,5.207,5.3476,5.3828,5.4687,5.6094,5.6445,5.6601,5.6601,5.6601,5.6601,5.6601,5.6556,5.6549,5.6546,5.6422,5.6393,5.6351,5.6338,5.6347,0.0,0.0,0.0,0.0,0.0,0.0,0.0,0.0,5.6012,5.6012,5.6012,5.6012,5.6283,5.7675,5.8333,5.8913,6.0267,6.0886,6.1118,6.1118,6.1118,6.1118,6.1118,6.1505,6.224,6.3449,6.4145,6.4831,6.5992,6.6185,6.6185,6.6185,6.6185,6.6185,6.6185,6.6185,6.6185,6.6185,6.6185,6.6185,6.6185,6.6185,6.6185,6.6185,6.6185,6.6185,6.6185,6.6495,6.69,6.7409,6.8066,6.8856,6.9868,7.018,7.058,7.1081,7.1056,7.103,7.1005,7.0952,7.0925,7.0898,7.0898,7.0898,7.0898,7.0898,7.0898,7.0898,7.0898,7.0898,7.0898,7.0898,7.0398,6.959,0.0,0.0,0.0,0.0,0.0,0.0,0.0,0.0,0.0,0.0,0.0,0.0,0.0,0.0,0.0,0.0,0.0,0.0,5.1367,5.1172,5.1133,5.1406,5.1406,5.2226,5.3945,5.3984,5.4844,5.6601,5.6601,5.6601,5.6601,5.6561,5.6559,5.6558,5.6487,5.6425,5.6419,5.6303,5.6261,5.6256,5.6212,5.623,0.0,0.0,0.0,0.0,0.0,0.0,0.0,0.0,5.6012,5.6012,5.6012,5.6197,5.6708,5.8178,5.8797,5.93,6.0731,6.1118,6.1118,6.1118,6.1118,6.1041,6.077,6.1582,6.2665,6.3526,6.4609,6.5528,6.6108,6.6185,6.6185,6.6185,6.6185,6.6185,6.6185,6.6185,6.6185,6.6185,6.6185,6.6185,6.6185,6.6185,6.6185,6.6185,6.6185,6.6175,6.6165,6.6155,6.6404,6.6918,6.7227,6.79,6.9037,6.9566,7.0067,7.058,7.085,7.0965,7.0965,7.0925,7.0898,7.0898,7.0898,7.0898,7.0898,7.0898,7.0898,7.0898,7.0898,7.0898,7.0898,7.0898,7.0552,6.9975,0.0,0.0,0.0,0.0,0.0,0.0,0.0,0.0,0.0,0.0,0.0,0.0,0.0,0.0,0.0,0.0,0.0,0.0,5.1328,5.0664,5.0586,5.1367,5.1406,5.2226,5.3945,5.4023,5.4883,5.6601,5.6601,5.6601,5.6601,5.6546,5.6487,5.6484,5.6347,5.6308,5.6303,5.623,5.6214,5.6214,5.6214,5.6214,5.6214,0.0,0.0,0.0,0.0,0.0,0.0,0.0,5.6012,5.6012,5.6012,5.6583,5.7473,5.8333,5.9223,6.0074,6.0886,6.1118,6.1118,6.1118,6.1079,6.0886,6.0074,6.1195,6.2665,6.3526,6.5025,6.6185,6.6185,6.6185,6.6185,6.6185,6.6185,6.6185,6.6185,6.6185,6.6185,6.6185,6.6185,6.6185,6.6185,6.6185,6.6185,6.6185,6.6185,6.6165,6.6102,6.6102,6.6069,6.6013,6.6823,6.7263,6.7178,6.8924,6.9772,6.9706,7.0514,7.0898,7.0898,7.0898,7.0898,7.0898,7.0898,7.0898,7.0898,7.0898,7.0898,7.0898,7.0898,7.0898,7.0898,7.0898,7.0898,7.0783,0.0,0.0,0.0,0.0,0.0,0.0,0.0,0.0,0.0,0.0,0.0,0.0,0.0,0.0,0.0,0.0,0.0,0.0,5.0585,5.0859,5.1133,5.1406,5.1406,5.2226,5.3945,5.5195,5.6094,5.6601,5.6601,5.6599,5.6545,5.6495,5.647,5.6344,5.6285,5.6236,5.6224,5.6117,5.6048,5.6048,5.6048,5.6048,5.6048,0.0,0.0,0.0,0.0,0.0,0.0,0.0,0.0,0.0,5.6012,5.6583,5.7473,5.8333,5.9223,6.0074,6.0886,6.1118,6.1118,6.1118,6.0654,6.019,5.9957,6.1195,6.282,6.429,6.545,6.6185,6.6185,6.6185,6.6185,6.6185,6.6185,6.6185,6.6185,6.6185,6.6185,6.6185,6.6185,6.6185,6.6185,6.6185,6.6185,6.6185,6.6144,6.6112,6.6102,6.6058,6.6013,6.5993,6.6263,6.6613,6.7116,6.8232,6.9104,6.9706,7.0514,7.0898,7.0898,7.0898,7.0898,7.0898,7.0898,7.0898,7.0898,7.0898,7.0898,7.0898,7.0898,7.0898,7.0898,7.0898,7.0898,7.0769,0.0,0.0,0.0,0.0,0.0,0.0,0.0,0.0,0.0,0.0,5.1402,5.1282,0.0,0.0,0.0,5.0271,5.0623,0.0,5.0703,5.082,5.1055,5.1406,5.1406,5.2226,5.3945,5.5349,5.6205,5.6557,5.6557,5.6549,5.6487,5.64,5.6347,5.6246,5.6155,5.6124,5.6117,5.6015,5.6012,5.6012,5.6012,5.6012,5.6012,0.0,0.0,0.0,0.0,0.0,0.0,0.0,0.0,0.0,5.6012,5.6824,5.7907,5.8449,5.9455,6.046,6.0963,6.1118,6.1118,6.1118,6.0499,5.9996,6.0306,6.1427,6.2975,6.5064,6.5876,6.6185,6.6185,6.6185,6.6185,6.6185,6.6185,6.6185,6.6185,6.6185,6.6185,6.6185,6.6185,6.6185,6.6185,6.6185,6.6175,6.6155,6.6123,6.608,6.6074,6.6029,6.5982,6.596,6.596,6.6178,6.6628,6.7475,6.8321,6.9206,7.0014,7.0591,7.0898,7.0898,7.0898,7.0898,7.0898,7.0898,7.0898,7.0898,7.0898,7.0898,7.0871,7.0857,7.0857,7.0857,7.0843,7.0738,0.0,0.0,5.1406,5.1406,0.0,0.0,0.0,0.0,0.0,5.117,5.1168,5.0892,0.0,0.0,0.0,5.0271,5.0272,5.0585,5.125,5.0664,5.0625,5.1367,5.1484,5.2305,5.3945,5.4787,5.5626,5.6482,5.6482,5.648,5.6472,5.628,5.6207,5.6187,5.604,5.5973,5.5896,5.5896,5.5857,5.578,5.578,5.578,5.578,5.5857,0.0,0.0,0.0,0.0,0.0,0.0,0.0,0.0,5.5995,5.7202,5.8604,5.8604,5.9764,6.1118,6.1118,6.1118,6.1118,6.1118,6.0422,5.9996,6.0886,6.1698,6.3013,6.5566,6.6147,6.6185,6.6185,6.6185,6.6185,6.6185,6.6185,6.6185,6.6185,6.6185,6.6185,6.6175,6.6175,6.6175,6.6175,6.6175,6.6155,6.6102,6.6091,6.6074,6.6008,6.5996,6.5972,6.5897,6.5897,6.5897,6.5897,6.6705,6.7513,6.8282,6.9244,7.009,7.0783,7.086,7.0898,7.0898,7.0898,7.0898,7.0898,7.0898,7.0898,7.0885,7.0815,7.0787,7.0787,7.0787,7.0743,7.0723,0.0,0.0,5.1406,5.1406,0.0,0.0,0.0,0.0,5.0195,4.9531,4.9453,4.9648,5.0117,5.035,0.0,5.0233,5.078,5.0936,5.0507,5.0898,5.1211,5.1406,5.207,5.2888,5.3884,5.4773,5.5569,5.6336,5.6336,5.6303,5.6258,5.62,5.6153,5.6024,5.6029,5.5664,5.5045,5.5045,5.4658,5.4039,5.4039,5.4039,5.4116,5.4813,5.5045,0.0,0.0,0.0,0.0,0.0,0.0,0.0,5.5943,5.712,5.851,5.851,5.9736,6.1118,6.1118,6.1118,6.1118,6.1118,5.9996,5.9261,6.077,6.1234,6.2124,6.4715,6.576,6.6185,6.6185,6.6185,6.6185,6.6185,6.6185,6.6185,6.6185,6.6185,6.6165,6.6123,6.6123,6.6123,6.6123,6.6069,6.6058,6.6091,6.6052,6.6032,6.6008,6.5947,6.5923,6.5897,6.5897,6.5897,6.5897,6.6705,6.7167,6.7398,6.8975,6.9783,6.9975,7.0591,7.0898,7.0898,7.0898,7.0898,7.0898,7.0898,7.0871,7.0815,7.0801,7.0758,7.0699,7.0699,7.0684,7.0708,0.0,0.0,0.0,0.0,0.0,0.0,0.0,0.0,4.957,4.9531,4.9844,5.0117,5.0195,5.0547,0.0,0.0,5.0937,5.121,5.0781,5.1172,5.1406,5.1406,5.1836,5.2652,5.3869,5.4273,5.5042,5.6236,5.6179,5.6181,5.6214,5.6139,5.587,5.5432,5.5432,5.4967,5.4194,5.4194,5.3923,5.3498,5.3498,5.373,5.4155,5.4619,5.5045,5.5432,5.5857,0.0,0.0,0.0,0.0,0.0,0.0,0.0,5.8539,5.8993,6.0056,6.1051,6.107,6.1118,6.0925,6.0112,5.9261,5.9029,6.0731,6.1118,6.1969,6.4948,6.5915,6.6185,6.6185,6.6185,6.6185,6.6185,6.6185,6.6185,6.6185,6.6165,6.6134,6.6102,6.6069,6.6058,6.6058,6.6024,6.6013,6.6052,6.6005,6.5984,6.596,6.5923,6.5897,6.5897,6.5897,6.5897,6.5897,6.632,6.6705,6.709,6.8013,6.8898,6.9744,7.0514,7.0898,7.0898,7.0898,7.0898,7.0898,7.0898,7.0857,7.0787,7.0758,7.0723,7.0647,7.0647,7.0632,7.0547,0.0,0.0,0.0,0.0,0.0,0.0,0.0,0.0,0.0,4.9883,5.0547,5.0781,5.0273,5.0781,5.0976,0.0,0.0,0.0,5.1406,5.1406,5.1406,5.1406,5.1406,5.2178,5.3818,5.3748,5.443,5.5948,5.5846,5.5777,5.5708,5.5769,5.5354,5.4581,5.4581,5.4078,5.3265,5.3265,5.3265,5.3265,5.3265,5.3807,5.4581,5.4735,5.52,5.5818,5.5935,5.6003,5.5986,5.598,0.0,0.0,0.0,0.0,5.8557,5.9505,6.0345,6.1012,6.106,6.1118,6.0692,5.9029,5.8729,5.9223,6.077,6.1234,6.224,6.5528,6.6185,6.6185,6.6185,6.6185,6.6185,6.6185,6.6185,6.6185,6.6175,6.6134,6.6091,6.6069,6.6024,6.599,6.599,6.5978,6.6005,6.6008,6.5996,6.596,6.591,6.5897,6.5897,6.5897,6.5897,6.5897,6.5897,6.5897,6.6244,6.6898,6.7013,6.7936,6.9513,7.0321,7.0783,7.0898,7.0898,7.0898,7.0898,7.0885,7.0843,7.0758,7.0723,7.0632,7.0554,7.0554,7.0506,7.0419,0.0,0.0,0.0,0.0,0.0,0.0,0.0,0.0,0.0,0.0,4.918,4.9492,5.0117,5.0312,5.0586,5.1172,5.1328,5.1406,5.1406,0.0,0.0,5.1406,5.1357,5.2062,5.3705,5.3652,5.4071,5.5001,5.4976,5.4597,5.3886,5.4628,5.4503,5.3652,5.3652,5.3188,5.2384,5.2384,5.2384,5.2384,5.2384,5.2879,5.3768,5.4503,5.4851,5.5045,5.5741,5.5986,5.598,5.5924,5.5885,0.0,0.0,0.0,5.8515,5.9454,6.0315,6.1012,6.106,6.1118,6.0692,5.9029,5.9184,5.9957,6.0886,6.1698,6.2975,6.5644,6.6185,6.6185,6.6185,6.6185,6.6185,6.6185,6.6185,6.6165,6.6123,6.6102,6.6058,6.6005,6.602,6.602,6.602,6.596,6.5947,6.5996,6.5947,6.591,6.5897,6.5897,6.5897,6.5897,6.5897,6.5897,6.5897,6.5897,6.5936,6.6051,6.6782,6.7628,6.859,6.9475,7.0244,7.0898,7.0898,7.0898,7.0898,7.0829,7.0758,7.0723,7.0632,7.0538,7.0435,7.0435,7.0419,7.0419,0.0,0.0,0.0,0.0,0.0,0.0,0.0,0.0,0.0,0.0,0.0,5.0469,5.082,5.0859,5.1015,5.1367,5.1406,5.1406,5.1406,5.1406,5.1366,5.1358,5.1306,5.1804,5.2874,5.2896,5.3268,5.4078,5.4078,5.3614,5.2763,5.3149,5.3149,5.2763,5.2763,5.2298,5.1486,5.1989,5.219,5.2229,5.2724,5.3459,5.4271,5.4658,5.5084,5.55,5.5861,5.5998,5.5961,5.5885,5.5807,5.6018,5.7302,0.0,0.0,0.0,6.0618,6.0969,6.1012,6.106,6.0809,5.9609,5.9609,6.0228,6.1543,6.2124,6.3129,6.5682,6.6185,6.6185,6.6185,6.6185,6.6185,6.6185,6.6185,6.6165,6.6112,6.6069,6.6013,6.6008,6.5972,6.5947,6.5947,6.5923,6.591,6.5947,6.5923,6.5897,6.5897,6.5897,6.5897,6.5897,6.5897,6.5897,6.5897,6.5897,6.5897,6.5897,6.6705,6.7282,6.7705,6.855,6.9396,7.0244,7.0706,7.0871,7.0829,7.0801,7.0752,7.0632,7.0601,7.0522,7.0419,7.0419,7.0419,7.0419,0.0,0.0,0.0,0.0,0.0,0.0,0.0,0.0,0.0,0.0,0.0,5.207,5.2068,0.0,0.0,0.0,5.2069,5.1952,5.1716,5.1716,5.1592,5.1282,5.1263,5.1593,5.2296,5.2298,5.2574,5.3149,5.3149,5.2724,5.1873,5.2113,5.219,5.219,5.219,5.1834,5.1293,5.2144,5.2655,5.2917,5.3575,5.4349,5.5084,5.5084,5.547,5.6003,5.6007,5.598,5.5943,5.5875,5.5951,5.6344,5.783,5.8434,0.0,0.0,0.0,6.0955,6.1,6.1051,6.0887,6.0094,6.0016,6.0558,6.2075,6.2588,6.34,6.5721,6.6185,6.6185,6.6185,6.6185,6.6185,6.6165,6.6165,6.6144,6.6069,6.6013,6.6005,6.5984,6.5935,6.5897,6.5897,6.5897,6.5897,6.5897,6.5897,6.5897,6.5897,6.5897,6.5897,6.5897,6.5897,6.5897,6.5897,6.5897,6.5897,6.5897,6.6513,6.6782,6.6821,6.7601,6.8369,6.9064,7.0088,7.0637,7.0787,7.0743,7.0693,7.0608,7.0554,7.0506,7.0419,7.0419,7.0419,7.0419,0.0,0.0,0.0,0.0,0.0,0.0,0.0,0.0,0.0,0.0,0.0,5.3864,5.3859,5.3859,5.3859,5.3859,5.3859,5.35,5.2613,5.2544,5.214,5.125,5.1123,0.0,5.229,5.2235,5.2237,5.2268,5.2268,5.1834,5.0975,5.1796,5.219,5.219,5.219,5.219,5.219,5.3072,5.3923,5.4658,5.4697,5.5238,5.5935,5.5935,5.5973,5.6003,5.6003,5.5941,5.5905,5.5895,5.6375,5.7099,5.8011,5.8819,5.9638,0.0,0.0,0.0,6.0997,6.0997,6.0825,5.9988,6.0394,6.1215,6.2191,6.3052,6.4106,6.5837,6.6185,6.6185,6.6185,6.6185,6.6165,6.6112,6.6102,6.6069,6.5993,6.6008,6.5984,6.591,6.5897,6.5897,6.5897,6.5897,6.5897,6.5897,6.5897,6.5897,6.5897,6.5897,6.5897,6.5897,6.5897,6.5897,6.5897,6.5897,6.5897,6.5897,6.5936,6.5974,6.5974,6.6717,6.7099,6.7215,6.8795,6.9999,7.0787,7.0662,7.0623,7.0608,7.0451,7.0419,7.0419,7.0419,7.0419,7.0419,0.0,0.0,0.0,0.0,0.0,0.0,0.0,0.0,0.0,0.0,0.0,0.0,0.0,5.4012,5.3731,5.3074,5.2497,5.2005,5.1647,5.1654,5.1472,5.1152,5.1109,0.0,5.1414,5.1401,5.137,5.137,5.1912,5.2028,5.1757,5.2608,5.3033,5.3033,5.3033,5.3033,5.3072,5.3962,5.4503,5.4851,5.5354,5.5741,5.6012,5.6012,5.6012,5.6003,5.6016,5.598,5.5943,5.5905,5.6434,5.7219,5.8028,5.8842,5.9665,6.0573,6.09,6.0944,6.0944,6.0965,6.092,6.0632,6.0779,6.1398,6.2838,6.3458,6.4174,6.5796,6.6134,6.6123,6.608,6.6102,6.6123,6.6102,6.6069,6.6013,6.602,6.6008,6.5984,6.591,6.5897,6.5897,6.5897,6.5897,6.5897,6.5897,6.5897,6.5897,6.5897,6.5897,6.5897,6.5897,6.5897,6.5897,6.5897,6.5897,6.5897,6.5897,6.5897,6.5872,6.5833,6.6022,6.6417,6.694,6.7461,6.8495,6.9873,7.0371,7.0554,7.0451,7.0419,7.0419,7.0419,7.0419,7.0419,7.0419,0.0,0.0,0.0,0.0,0.0,0.0,0.0,0.0,0.0,0.0,0.0,0.0,0.0,0.0,5.3592,5.2944,5.2324,5.1828,5.1541,5.1517,5.1403,5.1056,5.1018,0.0,5.1331,5.1053,5.1169,5.1757,5.2066,5.2345,5.2655,5.3536,5.3923,5.3962,5.4233,5.4194,5.4,5.4851,5.52,5.5238,5.578,5.6012,5.6012,5.6012,5.6012,5.6003,5.6007,5.5989,5.6009,5.5933,5.6464,5.7271,5.8081,5.9089,6.0073,6.0639,6.0816,6.0877,6.0877,6.0911,6.0944,6.0955,6.0959,6.1425,6.3194,6.3611,6.4113,6.5754,6.608,6.6058,6.6013,6.6024,6.6085,6.6085,6.6052,6.5993,6.5984,6.5972,6.5947,6.591,6.5897,6.5897,6.5897,6.5897,6.5897,6.5897,6.5897,6.5897,6.5897,6.5897,6.5897,6.5897,6.5897,6.5897,6.5897,6.5897,6.5897,6.5897,6.5872,6.5846,6.5793,6.5646,6.5872,6.6447,6.6621,6.7676,6.936,6.9903,7.0238,7.0419,7.0419,7.0419,7.0419,7.0419,7.0419,7.0419,0.0,0.0,0.0,0.0,0.0,0.0,0.0,0.0,0.0,0.0,0.0,0.0,0.0,0.0,0.0,5.3539,5.3597,5.3269,5.2362,5.2376,5.2001,5.1022,5.0975,0.0,5.2221,5.1409,5.1796,5.3498,5.2693,5.2732,5.3575,5.4426,5.4851,5.4851,5.5664,5.5586,5.489,5.5664,5.6012,5.6012,5.6012,5.6012,5.6012,5.6012,5.6012,5.6012,5.6012,5.6016,5.6018,5.6018,5.656,5.7371,5.8209,5.9605,6.09,6.0804,6.0781,6.0781,0.0,0.0,0.0,6.0888,6.0911,6.1368,6.3173,6.3538,6.3979,6.5732,6.6047,6.6001,6.6001,6.5993,6.5996,6.5996,6.5996,6.5984,6.591,6.5897,6.5897,6.5897,6.5897,6.5897,6.5897,6.5897,6.5897,6.5897,6.5897,6.5897,6.5897,6.5897,6.5897,6.5859,6.5897,6.5897,6.5897,6.5897,6.5897,6.5897,6.5833,6.5793,6.578,6.5604,6.5494,6.5532,6.6323,6.7638,6.9268,6.9228,6.9655,7.0419,7.0419,7.0419,7.0419,7.0419,7.0419,7.0419,0.0,0.0,0.0,0.0,0.0,0.0,0.0,0.0,0.0,0.0,0.0,0.0,0.0,0.0,5.2499,5.2499,5.2477,5.2382,5.2172,5.2763,5.2995,5.2713,5.2746,5.2862,5.3061,5.2862,5.3033,5.3498,5.3884,5.4194,5.4465,5.5277,5.5664,5.5664,5.5896,5.5896,5.5664,5.5896,5.6012,5.6012,5.6012,5.6012,5.6012,5.6012,5.6012,5.6012,5.6012,5.6003,5.5986,5.5986,5.6964,5.8375,5.9759,6.0503,6.0804,6.0831,6.0781,6.0781,6.0781,0.0,0.0,0.0,0.0,0.0,6.3075,6.3483,6.3996,6.567,6.6005,6.597,6.5921,6.5935,6.5935,6.5935,6.5935,6.5923,6.591,6.5897,6.5897,6.5897,6.5897,6.5897,6.5897,6.5897,6.5897,6.5897,6.5897,6.5897,6.5897,6.5897,6.559,6.4974,6.5551,6.5897,6.5897,6.5897,6.5897,6.5897,6.5833,6.5767,6.566,6.5537,6.5465,6.5444,6.5658,6.6728,6.8311,6.8945,6.9655,7.0419,7.0419,7.0419,7.0419,7.0419,7.0419,7.0419,0.0,0.0,0.0,0.0,0.0,0.0,0.0,0.0,0.0,0.0,0.0,0.0,0.0,0.0,0.0,5.2545,5.2539,5.255,5.2598,5.3086,5.3391,5.3391,5.3456,5.3619,5.3997,5.3683,5.3846,5.4542,5.4735,5.4967,5.5316,5.578,5.6012,5.6012,5.6012,5.5929,5.5808,5.5808,5.5893,5.6012,5.6012,5.6012,5.6012,5.6012,5.6012,5.6012,5.6012,5.5921,5.5904,5.6364,5.7648,5.9235,6.0128,6.0614,6.0888,6.0843,6.0781,0.0,0.0,0.0,6.0781,6.0781,0.0,0.0,6.303,6.3415,6.3927,6.5661,6.5984,6.5947,6.591,6.5897,6.5897,6.5897,6.5897,6.5897,6.5897,6.5897,6.5897,6.5897,6.5897,6.5897,6.5897,6.5897,6.5897,6.5897,6.5897,6.5743,6.5397,6.5359,6.5128,6.4628,6.5089,6.55,6.5859,6.5859,6.5846,6.5768,6.5701,6.5646,6.5552,6.5479,6.542,6.5413,6.5413,6.6178,6.7477,6.8317,6.9349,7.0419,7.0419,7.0419,7.0419,7.0419,7.0419,7.0419,0.0,0.0,5.6011,5.5205,5.512,5.4909,0.0,0.0,0.0,0.0,0.0,0.0,0.0,0.0,0.0,0.0,5.335,5.3474,5.3466,5.3579,5.37,5.3692,5.3662,5.4066,5.4912,5.4147,5.4503,5.6012,5.5268,5.5307,5.6012,5.6003,5.6003,5.6003,5.5986,5.5808,5.5588,5.5671,5.5797,5.5977,5.5977,5.5977,5.5938,5.6003,5.6012,5.6012,5.6128,5.602,5.5969,5.7187,5.8595,5.99,5.9842,6.038,6.0976,6.0866,6.0793,0.0,0.0,0.0,0.0,6.0781,6.0781,0.0,6.2891,6.3279,6.3794,6.5471,6.587,6.5897,6.5897,6.5897,6.5897,6.5897,6.5897,6.5897,6.5897,6.5897,6.5897,6.5897,6.5897,6.5897,6.5897,6.5897,6.5897,6.5897,6.582,6.5397,6.4512,6.4474,6.4397,6.432,6.45,6.4936,6.564,6.5742,6.5701,6.5594,6.5537,6.5494,6.5494,6.542,6.5413,6.5413,6.5413,6.5872,6.6751,6.7553,6.8852,7.0304,7.0381,7.0419,7.0419,7.0419,7.0419,7.0419,5.5377,5.4825,5.427,5.4128,5.4624,0.0,0.0,0.0,0.0,0.0,5.3878,5.3282,5.3213,0.0,0.0,0.0,5.3985,5.4425,5.4417,5.5118,5.5457,5.5413,5.5448,5.5534,5.5702,5.5582,5.5664,5.6012,5.5852,5.5852,5.6003,5.6007,5.6007,5.6003,5.5769,5.5668,5.5615,5.6139,5.6084,5.5689,5.5689,5.5689,5.571,5.5912,5.6029,5.6178,5.6794,5.7056,5.7288,5.8874,5.9582,5.994,6.0529,6.0874,6.0976,6.0911,6.0888,6.0877,0.0,0.0,0.0,0.0,6.0781,0.0,6.2113,6.2832,6.3589,6.464,6.541,6.5897,6.5897,6.5859,6.5833,6.5897,6.5859,6.5833,6.5897,6.5897,6.5897,6.5897,6.5897,6.5897,6.5897,6.5897,6.5897,6.5897,6.5243,6.4474,6.3589,6.3551,6.3243,6.2601,6.3847,6.4577,6.4743,6.5342,6.5622,6.5594,6.5537,6.5494,6.5494,6.542,6.5413,6.5413,6.5413,6.5872,6.6751,6.7553,6.8508,6.9502,7.0151,7.0419,7.0419,7.0419,7.0419,7.0419,5.509,5.511,5.4968,5.448,0.0,0.0,0.0,0.0,5.4195,5.4111,5.4036,5.415,5.4447,5.4583,0.0,0.0,0.0,0.0,0.0,0.0,5.5989,5.5943,5.5961,5.5932,5.5932,5.5932,5.5989,5.6016,5.5961,5.5952,5.5932,5.5952,5.6202,5.6596,5.6454,5.6494,5.6661,5.6983,5.6761,5.6283,5.6697,5.669,5.6493,5.7125,5.7379,5.7434,5.7835,5.8291,5.8738,5.9437,6.0016,6.05,6.0896,6.0982,6.098,6.0933,6.0911,6.09,6.0843,0.0,0.0,6.0781,6.0757,0.0,0.0,6.2348,6.2874,6.3694,6.4552,6.518,6.5154,6.546,6.5715,6.5742,6.5793,6.5807,6.5846,6.5872,6.5885,6.5846,6.5885,6.5885,6.5846,6.5885,6.5692,6.5244,6.4385,6.354,6.2694,6.2656,6.2476,6.2101,6.3258,6.4039,6.4435,6.5172,6.5523,6.5494,6.545,6.5435,6.5435,6.5429,6.5413,6.5413,6.5413,6.5643,6.6139,6.74,6.8165,6.8661,6.9922,7.0419,7.0419,7.0419,7.0419,7.0419,5.5071,5.5514,5.5658,5.4863,0.0,0.0,0.0,0.0,5.3945,5.3894,5.4512,5.5141,5.575,5.5952,5.5989,5.5943,0.0,0.0,0.0,5.598,5.5998,5.6018,5.5943,5.5923,5.5995,5.5961,5.5943,5.6018,5.5924,5.5972,5.6165,5.6077,5.6531,5.7448,5.7332,5.7417,5.772,5.7818,5.7544,5.7142,5.8092,5.8022,5.7389,5.8249,5.8583,5.8639,5.8867,5.9469,6.0094,5.9819,6.0334,6.107,6.1032,6.1022,6.1002,6.0927,6.0922,6.0911,6.0804,6.0781,0.0,0.0,0.0,6.0902,0.0,0.0,0.0,6.2772,6.3604,6.4231,6.4178,6.4688,6.5043,6.4904,6.5112,6.5216,6.5076,6.5218,6.5462,6.5755,6.5833,6.5756,6.555,6.5449,6.5039,6.4308,6.3438,6.267,6.2004,6.1812,6.1773,6.1822,6.2529,6.3309,6.4137,6.4858,6.5297,6.5413,6.5413,6.5413,6.5413,6.5413,6.5413,6.5413,6.5413,6.5413,6.5528,6.7209,6.7897,6.805,6.9769,7.0419,7.0419,7.0419,7.0419,7.0419,5.4938,5.442,5.3935,5.3772,0.0,0.0,0.0,0.0,5.5724,5.5709,5.5748,5.5816,5.5884,5.6003,5.6101,5.6093,5.6133,5.6141,5.6093,5.6101,0.0,5.6018,5.5968,5.5977,5.5989,5.5977,5.5977,5.6018,5.5924,5.6281,5.7052,5.6706,5.7175,5.8317,5.7785,5.7605,5.7745,5.8274,5.816,5.7753,5.9338,5.8897,5.7353,5.7961,5.8235,5.8491,5.9487,6.0339,6.0963,6.0935,6.0983,6.1118,6.107,6.1109,6.109,6.1018,6.0987,6.0955,6.0816,6.0781,0.0,0.0,6.0781,0.0,6.0825,0.0,6.2103,6.2106,0.0,6.3335,6.3322,0.0,0.0,6.2425,6.2883,6.31,6.2438,6.295,6.4013,6.5601,6.5701,6.5353,6.4625,6.3871,6.3399,6.3335,6.2554,6.2017,6.1901,6.1173,6.0751,6.0764,6.149,6.2292,6.3135,6.3944,6.4702,6.5413,6.5413,6.5413,6.5413,6.5413,6.5413,6.5413,6.5413,6.5413,6.5528,6.7209,6.7897,6.805,6.9769,7.0419,7.0419,7.0419,7.0419,7.0419,5.5081,5.5048,5.5151,5.5098,0.0,0.0,0.0,5.5909,5.6101,5.6025,5.6029,5.6231,5.6691,5.6806,5.6877,5.6922,5.69,5.6893,5.6922,5.6893,0.0,5.7538,5.7503,5.7485,5.7494,5.739,5.7352,5.74,5.731,5.7346,0.0,0.0,5.7963,5.8642,5.8779,5.8936,5.9172,5.9426,5.9314,5.8988,5.9673,5.9482,5.8843,5.96,5.994,6.0064,6.0566,6.0889,6.1118,6.1118,6.1118,6.1118,6.1118,6.1118,6.1099,6.1029,6.0987,6.0965,6.0854,0.0,0.0,0.0,0.0,0.0,6.0635,0.0,6.1134,0.0,0.0,0.0,0.0,0.0,0.0,0.0,6.2762,6.2905,6.2588,6.2831,6.3357,6.4153,6.4164,6.3997,6.3666,6.2899,6.2387,6.2387,6.158,6.1107,6.1107,6.0749,6.0546,6.0623,6.1808,6.2623,6.3006,6.4273,6.507,6.5413,6.5413,6.5413,6.5413,6.5413,6.5413,6.5413,6.5413,6.5413,6.549,6.6713,6.7477,6.8012,6.9234,6.9999,7.0419,7.0419,7.0419,7.0419,5.5785,5.5974,5.6213,5.6213,5.6223,5.6272,5.649,5.6722,5.6854,5.6751,5.6846,5.7102,5.7666,5.7784,5.7825,5.7878,5.7852,5.7845,5.7865,5.7829,5.8072,5.8659,5.8621,5.8595,5.863,5.8452,5.8392,5.8402,5.8346,5.8277,0.0,0.0,0.0,5.9173,5.9447,5.9792,6.0189,6.0189,6.0118,6.0053,6.0053,6.0097,6.0217,6.0832,6.1155,6.1191,6.1281,6.1199,6.1118,6.1118,6.1118,0.0,6.1118,6.1118,6.1099,6.101,6.1008,6.0976,6.0877,0.0,0.0,0.0,0.0,0.0,0.0,0.0,0.0,0.0,0.0,0.0,0.0,0.0,0.0,0.0,0.0,6.2213,6.1945,6.2136,6.247,6.2998,6.2845,6.2692,6.2705,6.1964,6.1477,6.145,6.0849,6.0453,6.0453,6.0453,6.048,6.052,6.1896,6.2748,6.2978,6.4373,6.5184,6.5413,6.5413,6.5413,6.5413,6.5413,6.5413,6.5413,6.5413,6.5413,6.5452,6.633,6.7171,6.7973,6.8852,6.9693,7.0419,7.0419,7.0419,7.0419,5.7364,5.6879,5.6291,5.6291,5.6219,5.6456,5.7234,5.8079,5.8622,5.8622,5.8653,5.8722,5.8753,5.8817,5.8838,5.8838,5.889,5.8929,5.8842,5.8829,5.8823,5.8707,5.8698,5.8673,5.8712,5.8576,5.8452,5.8402,5.8351,5.8671,0.0,0.0,0.0,0.0,5.9609,5.963,6.0118,6.0118,6.0313,6.0681,6.0681,6.0817,6.1041,6.0884,6.0983,6.1191,6.1281,6.1199,0.0,6.1118,6.1118,0.0,0.0,0.0,0.0,0.0,0.0,0.0,0.0,0.0,0.0,6.0781,0.0,0.0,0.0,0.0,6.0648,0.0,0.0,0.0,0.0,0.0,0.0,0.0,0.0,0.0,0.0,5.995,6.11,6.2815,6.2185,6.1659,6.1729,6.0961,6.045,6.0556,6.0464,6.0384,6.0384,6.0384,6.0384,6.0422,6.1211,6.2051,6.2892,6.377,6.4611,6.5413,6.5413,6.5413,6.5413,6.5413,6.5413,6.5413,6.5413,6.5413,6.5452,6.633,6.7171,6.7973,6.8852,6.9693,7.0419,7.0419,7.0419,7.0419,5.8558,5.8325,5.8081,5.8042,5.7986,5.8078,5.8284,5.8629,5.8817,5.8817,5.8904,5.9132,5.9677,5.9776,5.9844,5.9837,5.9867,5.9858,5.9828,5.9744,5.9944,6.0448,6.0437,6.0411,6.0377,6.0276,6.0191,6.01,6.0046,5.9893,5.9678,5.9678,0.0,0.0,5.9568,5.9808,6.0089,5.9839,6.0319,6.1234,6.1234,6.112,6.0931,6.1079,6.1116,6.1155,6.1272,6.1199,0.0,6.1118,6.1118,6.1118,6.1118,6.1118,6.1109,6.1022,6.1,6.0976,0.0,0.0,6.0781,6.0781,0.0,0.0,0.0,0.0,0.0,0.0,0.0,0.0,0.0,0.0,0.0,0.0,0.0,0.0,0.0,6.0217,6.0613,6.1215,6.1051,6.086,6.0832,6.0589,6.0422,6.0412,6.0422,6.0422,6.0422,6.0422,6.0637,6.1172,6.2013,6.2892,6.3732,6.4573,6.5146,6.5413,6.5413,6.5413,6.5413,6.5413,6.5413,6.5413,6.5413,6.5413,6.5413,6.5719,6.6636,6.7935,6.8203,6.9196,7.0419,7.0419,7.0419,7.0419,5.9453,5.9524,5.9381,5.9002,5.9187,5.9366,5.9326,5.9633,5.9859,5.9859,5.9897,6.0114,6.0651,6.0742,6.0758,6.0772,6.0765,6.0804,6.0776,6.0672,6.0878,6.1415,6.1373,6.1299,6.1234,6.1155,6.107,6.099,6.0827,6.0596,6.0402,6.0387,6.0176,5.9901,5.9871,6.0017,6.0295,5.9765,6.0197,6.1209,6.1301,6.1166,6.0941,6.1173,6.1155,6.1012,0.0,6.1182,6.1118,6.1118,6.1118,6.1118,6.1118,6.1118,6.107,6.1041,6.101,6.0987,6.0944,6.0888,0.0,6.0781,6.0757,0.0,6.0635,0.0,6.0533,0.0,0.0,0.0,0.0,0.0,0.0,0.0,0.0,0.0,0.0,6.0422,6.0422,6.0422,6.045,6.0464,6.0384,6.0422,6.0422,6.0422,6.0422,6.0422,6.0422,6.0676,6.1058,6.1593,6.2739,6.3618,6.4206,6.4993,6.5413,6.5413,6.5413,6.5413,6.5413,6.5413,6.5413,6.5413,6.5413,6.5413,6.5413,6.5413,6.6369,6.7897,6.7897,6.8929,7.0419,7.0419,7.0419,7.0419,6.0236,6.0414,6.0182,5.9299,5.9824,6.036,6.036,6.108,6.1603,6.1608,6.1588,6.1595,6.1615,6.1605,6.1618,6.1602,6.1666,6.1671,6.1602,6.1598,6.156,6.1495,6.146,6.1369,6.1329,6.1161,6.106,6.1012,6.0608,6.0745,6.1382,6.0763,6.0848,6.1503,6.0352,6.0145,6.0614,5.9804,5.9954,6.0704,6.1021,6.1138,6.1109,6.1164,6.1022,6.0817,6.1118,6.1155,6.1118,6.1118,6.1118,6.1118,6.1118,6.1118,6.1118,6.1118,6.1041,6.0997,6.0997,6.0911,6.0793,6.0781,6.0781,0.0,0.0,0.0,6.066,0.0,0.0,0.0,0.0,0.0,0.0,0.0,0.0,0.0,0.0,6.0422,6.0422,6.0422,6.0422,6.0422,6.0422,6.0422,6.0422,6.0422,6.0422,6.0422,6.046,6.1172,6.1631,6.1745,6.335,6.4206,6.4282,6.5031,6.5413,6.5413,6.5413,6.5413,6.5413,6.5413,6.5413,6.5413,6.5413,6.5413,6.5413,6.5413,6.6369,6.7897,6.7897,6.8929,7.0419,7.0419,7.0419,7.0419,6.132,6.1364,6.1286,6.1038,6.1109,6.1179,6.1179,6.1431,6.1619,6.1582,6.1647,6.166,6.1665,6.1663,6.1658,6.1688,6.169,6.1688,6.1671,6.1651,6.1588,6.1564,6.1523,6.1453,6.1369,6.1283,6.1178,6.106,6.0689,6.039,6.0243,5.9769,5.9495,5.9458,5.9148,5.9403,6.0058,5.94,5.9585,6.043,6.1334,6.1323,6.0817,0.0,6.0972,6.0762,6.1099,6.1155,6.1118,6.1118,6.1118,6.1118,6.1118,6.1118,6.1118,6.1118,6.1032,6.101,6.1008,6.0944,6.0877,6.0793,6.0781,6.0769,0.0,0.0,0.0,0.0,0.0,0.0,0.0,0.0,0.0,0.0,0.0,0.0,0.0,0.0,6.0422,6.0422,6.0422,6.0422,6.0422,6.0422,6.0422,6.0422,6.0422,6.0637,6.1249,6.1478,6.2204,6.3465,6.3976,6.4511,6.507,6.5299,6.5413,6.5413,6.5413,6.5413,6.5413,6.5413,6.5413,6.5413,6.5413,6.5413,6.5413,6.5413,6.6369,6.7897,6.7897,6.8929,7.0419,7.0419,7.0419,7.0419,6.1718,6.1718,6.1718,6.1718,6.1609,6.1541,6.1598,6.1609,6.1627,6.1653,6.1668,6.1712,6.1711,6.1712,6.1708,6.1692,6.1696,6.1694,6.172,6.1666,6.1612,6.1598,6.1552,6.1489,6.146,6.1362,6.1189,6.0933,6.0839,6.0751,6.066,6.0622,6.0489,6.0295,5.9961,5.9883,5.9955,5.9616,5.9766,6.0297,6.1166,6.1274,0.0,6.1032,6.1002,6.092,6.1109,6.1137,6.1118,6.1118,6.1118,6.1118,6.1118,6.1118,6.1118,6.1118,6.1041,6.0992,6.1008,6.0955,6.09,6.0843,6.0781,6.0781,6.0746,6.0734,6.071,0.0,6.0572,6.052,0.0,0.0,0.0,0.0,0.0,0.0,0.0,0.0,0.0,6.0422,6.0422,6.0422,6.0422,6.0422,6.0422,6.0422,6.0422,6.0752,6.1554,6.1975,6.2777,6.4167,6.4535,6.4955,6.5413,6.5413,6.5413,6.5413,6.5413,6.5413,6.5413,6.5413,6.5413,6.5413,6.5413,6.5413,6.5413,6.5796,6.6713,6.7973,6.8699,6.9578,7.0419,7.0419,7.0419,7.0419,6.1835,6.1952,6.1993,6.1876,6.183,6.1754,6.1699,6.1699,6.1701,6.1709,6.1714,6.1714,6.1702,6.1711,6.171,6.1686,6.1692,6.1694,6.172,6.1718,6.1668,6.1605,6.1598,6.156,6.1495,6.1421,6.1252,6.0872,6.1171,6.152,6.1901,6.218,6.2337,6.2278,6.1543,6.0848,6.018,6.0172,6.0217,6.0326,6.0882,6.1118,6.1118,6.1118,6.1118,6.1118,6.1118,6.1118,6.1118,6.1118,6.1118,6.1118,6.1118,6.1118,6.1118,6.1118,6.1051,6.1002,6.1008,6.0955,6.09,6.0843,6.0781,6.0781,6.0781,6.0781,6.0769,6.0722,6.0648,6.0572,0.0,0.0,0.0,0.0,0.0,0.0,0.0,0.0,0.0,0.0,6.0422,0.0,6.0356,6.0342,6.0356,6.0408,6.047,6.0891,6.1745,6.2586,6.3465,6.432,6.5031,6.5413,6.5413,6.5413,6.5413,6.5413,6.5413,6.5413,6.5413,6.5413,6.5413,6.5413,6.5413,6.5413,6.5452,6.633,6.7247,6.8241,6.9807,7.0419,7.0419,7.0419,7.0419,7.0419,6.2618,6.336,6.3638,6.2902,6.2746,6.2517,6.1791,6.1668,6.1626,6.1676,6.1716,6.1716,6.1715,6.1712,6.1707,6.1696,6.1697,6.1694,6.172,6.1718,6.1679,6.1674,6.1612,6.1573,6.1515,6.1501,6.1601,6.1841,6.179,6.1964,6.2368,6.2032,6.1881,6.1801,6.1395,6.0981,6.0601,6.0589,6.0594,6.063,6.0982,6.1118,6.1118,6.1118,6.1118,6.1118,6.1118,6.1118,6.1118,6.1118,6.1118,6.1118,6.1118,6.1118,6.1118,6.1118,6.107,6.108,6.1018,6.0987,6.0955,6.0816,6.0781,6.0781,6.0781,6.0781,6.0781,6.0769,6.0722,6.0648,6.0572,0.0,0.0,0.0,0.0,0.0,0.0,0.0,0.0,0.0,0.0,6.0328,6.0144,6.0144,6.0226,6.0408,6.0904,6.1652,6.261,6.3503,6.4344,0.0,6.5337,6.5413,0.0,0.0,6.5413,6.5413,6.5413,6.5413,6.5413,6.5413,6.5413,6.5413,6.5413,6.5413,6.5452,6.633,6.7591,6.9082,7.0037,7.0419,7.0419,7.0419,7.0419,7.0419,6.2345,6.2662,6.2826,6.2405,6.2332,6.2181,6.1757,6.2068,6.2184,6.1755,6.1715,6.1712,6.1709,6.1709,6.1704,6.169,6.2123,6.2356,6.2384,6.2813,6.3047,6.3047,6.3037,6.2964,6.2854,6.2868,6.2832,6.2776,6.2858,0.0,0.0,0.0,6.2562,6.2048,6.1192,6.0811,6.0794,6.0657,6.0642,6.0727,6.0992,6.1118,6.1118,6.1118,6.1118,6.1118,6.1118,6.1118,6.1118,6.1118,6.1118,6.1118,6.1118,6.1118,6.1118,6.1118,6.1118,6.109,6.1018,6.0987,6.0965,6.0816,6.0781,6.0781,6.0781,6.0781,6.0781,6.0781,6.0734,6.066,6.0546,6.0491,0.0,0.0,0.0,0.0,0.0,0.0,6.1019,0.0,0.0,0.0,6.1393,6.1218,6.1034,6.0791,6.1164,6.201,6.3367,6.3917,6.4573,0.0,0.0,0.0,6.5413,0.0,6.5298,6.5413,6.5413,6.5413,6.5413,6.5413,6.5413,6.5413,6.5413,6.5643,6.6178,6.7477,6.8738,6.9846,7.0266,7.0419,7.0419,7.0419,7.0315,7.0247,6.2119,6.2127,6.2253,6.226,6.2263,6.2265,6.2265,6.2851,6.2969,6.2108,6.2143,6.2253,6.2248,6.2249,6.2246,6.2267,6.2898,6.3291,6.3282,6.3906,6.4299,6.4299,6.4299,6.4229,6.4101,6.4101,6.3962,6.3678,6.3986,0.0,0.0,0.0,6.3626,6.2801,6.1618,6.1309,6.1609,0.0,6.1077,6.1065,6.1282,6.1273,6.1118,6.1118,6.1118,6.1118,6.1311,6.1389,6.1389,6.1582,6.1427,6.1118,6.1118,6.1118,6.1118,6.1118,6.1109,6.108,6.1018,6.0987,6.0955,6.0816,6.0781,6.0858,6.1012,6.1089,6.1127,6.1281,6.126,6.1173,6.1056,6.1013,0.0,0.0,0.0,0.0,0.0,0.0,0.0,0.0,0.0,0.0,6.2563,6.2336,6.1989,6.1568,6.1766,6.2449,6.3764,6.4206,0.0,0.0,0.0,6.5139,6.5305,0.0,6.5204,6.5329,6.5398,6.5413,6.5413,6.5413,6.549,6.5681,6.5681,6.6254,6.7324,6.8613,6.966,7.0419,7.0419,7.0348,7.0331,7.0402,7.023,7.0073,6.2884,6.3512,6.406,6.4062,6.4062,6.4062,6.406,6.414,6.3867,6.3008,6.3551,6.4053,6.4053,6.4078,6.4067,6.4065,6.4143,6.4182,6.4182,6.426,6.4299,6.4299,6.4299,6.4229,6.4101,6.4101,6.4273,6.4595,6.4861,6.4613,0.0,0.0,0.0,6.4162,0.0,0.0,0.0,6.3232,6.2678,6.2249,6.2269,6.1814,6.1118,6.1118,6.1118,6.1195,6.2008,6.2278,6.2394,6.3168,6.2394,6.1118,6.1118,6.1118,6.1118,6.1118,6.1051,6.1002,6.1008,6.0955,6.09,6.0843,6.0781,6.1012,6.1793,6.1985,6.2178,6.2935,6.2938,6.2885,6.2872,6.2762,6.2662,0.0,0.0,0.0,0.0,0.0,6.2777,6.2777,0.0,0.0,6.2454,6.2387,6.2534,6.2898,6.3196,6.3445,6.3617,0.0,0.0,6.4941,6.4924,6.4924,6.4941,6.5057,6.5101,6.5117,6.5298,6.5413,6.5413,6.5413,6.5834,6.6598,6.6598,6.7477,6.8951,6.8955,6.9506,7.0419,7.0419,7.0281,7.0144,7.0315,7.0161,6.9872,6.3007,6.3281,6.3672,6.4217,6.4296,6.4297,6.4295,6.4726,6.4961,6.4609,6.4413,6.429,6.4281,6.4312,6.4306,6.4299,6.4765,6.5077,6.5077,6.5546,6.5783,6.5783,6.5783,6.5751,6.566,6.566,6.5686,6.5795,6.5564,0.0,0.0,0.0,0.0,0.0,0.0,6.4872,6.509,6.4513,6.418,6.3903,6.34,6.2975,6.2665,6.2665,6.2665,6.2704,6.3052,6.3168,6.3245,6.3565,6.3255,6.2665,6.2665,6.2665,6.2665,6.2665,6.2588,6.2537,6.2513,6.2458,6.2402,6.2332,6.232,6.2397,6.2743,6.282,6.2897,6.3243,6.3245,6.3168,6.3115,6.3034,6.2949,6.2892,0.0,0.0,0.0,0.0,0.0,6.3694,0.0,6.4056,6.392,6.3669,6.3615,6.3816,6.3578,6.3668,6.4179,0.0,0.0,6.4888,0.0,6.4763,6.4888,6.4958,6.5023,6.5101,6.5298,6.5681,6.6178,6.6178,6.6636,6.7439,6.7861,6.8384,6.9032,6.9335,6.9679,7.0055,7.0055,7.0001,6.9947,7.0019,6.9872,6.9641,6.332,6.3397,6.367,6.4527,6.4686,6.4765,6.5037,6.5585,6.5976,6.5976,6.5468,6.5075,6.5061,6.5054,6.5048,6.5041,6.5585,6.5936,6.5936,6.6483,6.6795,6.6795,6.6795,6.6766,6.6712,6.6712,6.6612,6.6508,6.6108,0.0,0.0,0.0,0.0,0.0,6.5523,6.5705,6.5827,6.5505,6.5218,6.4957,6.4338,6.3952,6.3719,6.3719,6.3719,6.3719,6.399,6.4068,6.4106,6.4377,6.4454,6.4338,6.3874,6.3719,6.371,6.37,6.3611,6.3548,6.3494,6.3426,6.338,6.332,6.3308,6.3346,6.3628,6.3666,6.3743,6.4012,6.4001,6.3924,6.3857,6.3789,6.3705,6.3671,0.0,0.0,0.0,6.4153,0.0,0.0,6.4867,6.501,6.4888,6.4634,6.4423,6.4304,6.3878,6.3879,0.0,0.0,0.0,0.0,0.0,0.0,6.4726,6.4781,6.4984,6.5314,6.552,6.6091,6.6978,6.7245,6.7665,6.8237,6.8838,6.9091,6.9183,6.955,6.9758,6.9816,6.9816,6.974,6.9739,6.9797,6.9641,6.9419,6.4134,6.4287,6.4562,6.5421,6.5581,6.5857,6.6755,6.6874,6.6875,6.6873,6.6874,6.6874,6.6866,6.6811,6.6759,6.6756,6.6795,6.6795,6.6795,6.6795,6.6795,6.6795,6.6795,6.6766,6.6712,6.6712,6.6612,6.6508,6.6422,0.0,6.4683,0.0,6.4703,6.5792,6.573,6.589,6.6185,6.6185,6.5721,6.4986,6.4986,6.4493,6.3719,6.3719,6.3719,6.3797,6.4687,6.4986,6.5102,6.5915,6.6185,6.5876,6.4222,6.3719,6.371,6.3611,6.3548,6.3483,6.3438,6.3368,6.332,6.3308,6.3308,6.3551,6.4397,6.4589,6.482,6.5705,6.5808,6.5728,6.5569,6.5499,6.5427,6.539,0.0,0.0,0.0,0.0,0.0,6.5375,6.5375,6.5274,6.4924,6.4909,6.4726,6.4324,6.4304,0.0,0.0,0.0,0.0,6.4304,6.4304,0.0,6.4304,6.4501,6.5011,6.5804,6.601,6.6608,6.7618,6.8472,6.8891,6.8912,6.9322,6.9604,6.9759,6.9564,6.9641,6.9816,6.9816,6.97,6.9542,6.9739,6.9542,6.9225,6.5029,6.519,6.5465,6.6324,6.6483,6.6562,6.6874,6.6914,6.6914,6.6914,6.6911,6.6862,6.6706,6.6805,6.6852,6.6798,6.6795,6.6778,6.6685,6.6642,6.6642,6.6642,6.6642,6.6681,6.6763,6.6727,6.6674,6.6588,0.0,0.0,0.0,6.5392,6.5558,6.6165,6.6681,6.7012,6.7075,6.7075,6.6959,6.665,6.6069,6.5644,6.5412,6.5412,6.5412,6.545,6.5721,6.5837,6.5876,6.6108,6.6185,6.6098,6.5526,6.5381,6.5402,6.5301,6.5247,6.518,6.5172,6.51,6.5051,6.5051,6.5051,6.5166,6.5436,6.5474,6.5551,6.582,6.5885,6.5833,6.5622,6.558,6.5523,6.5429,6.5413,0.0,6.5413,0.0,6.5413,6.5413,6.521,6.501,6.4888,6.4652,6.4443,6.4304,6.4284,0.0,0.0,0.0,0.0,0.0,6.4284,0.0,6.511,6.531,6.5822,6.6614,6.6824,6.7408,6.8316,6.915,6.9492,6.9512,6.9508,6.9542,6.9582,6.9357,6.9353,6.9378,6.9378,6.9374,6.931,6.9374,6.931,6.9203,6.5926,6.6089,6.6248,6.6796,6.6914,6.6914,6.6914,6.6873,6.6829,6.6788,6.6809,6.6727,6.6532,6.6662,0.0,6.6638,6.6594,6.6566,6.6489,6.6483,6.6483,6.6483,6.6569,6.6629,6.6663,6.6668,0.0,6.6542,6.6376,6.6281,6.6273,6.6116,6.6116,6.6303,6.6786,6.6987,6.6966,6.6987,6.6924,6.6734,6.6366,6.6123,6.5997,6.6144,6.6185,6.6185,6.6185,6.6185,6.6185,6.6185,6.6185,6.6175,6.6112,6.6123,6.6134,6.6097,6.6052,6.6005,6.5984,6.5935,6.5897,6.5897,6.5897,6.5897,6.5897,6.5897,6.5897,6.5897,6.5897,6.5859,6.5701,6.5622,6.5566,6.5435,6.5429,6.5413,6.5413,0.0,6.5413,0.0,0.0,0.0,0.0,6.4596,6.4384,0.0,6.4284,0.0,0.0,0.0,6.4434,6.4735,6.4735,6.5148,6.5974,6.6096,6.6591,6.7382,6.7882,6.8395,6.8943,6.9473,6.97,6.9681,6.9481,6.9378,6.9357,6.9246,6.9181,6.9181,6.9181,6.9181,6.9181,6.9181,6.9181,6.9181,6.6713,6.6872,6.6874,6.6874,6.6874,6.6874,6.6874,6.6779,6.6667,6.6613,6.6594,6.6552,6.6411,6.6425,6.6411,6.6283,0.0,0.0,6.6291,6.6291,6.6291,6.6291,6.6465,6.6516,6.6392,6.6561,6.66,6.6508,6.6501,6.6439,6.6398,6.6385,6.634,6.6303,6.6175,6.6123,6.6102,6.6123,6.5878,6.5534,6.5963,6.5901,6.5641,6.6019,6.6165,6.6185,6.6185,6.6185,6.6175,6.6175,6.6175,6.6165,6.6102,6.6091,6.6069,6.6032,6.6008,6.5984,6.5923,6.5897,6.5897,6.5897,6.5897,6.5897,6.5897,6.5897,6.5897,6.5897,6.5897,6.5872,6.5793,6.5688,6.558,6.5509,6.542,6.5413,6.5413,6.5413,6.5413,0.0,0.0,0.0,6.4982,6.4784,6.4614,0.0,6.4472,0.0,0.0,0.0,6.481,6.5561,6.5598,6.6011,6.6896,6.6896,6.7288,6.8077,6.9039,6.9481,6.9481,6.9481,6.9481,6.946,6.9289,6.9181,6.9181,6.9181,6.9181,6.9181,6.9181,6.9181,6.9181,6.9181,6.9181,6.9181,0.0,6.6722,6.6727,6.6674,6.6709,6.6722,6.667,6.6642,6.6629,6.658,6.6569,6.6439,6.6251,6.6221,6.6148,6.6024,6.6194,6.6259,6.6148,6.6138,6.6138,6.6138,6.6148,6.6165,6.6267,6.6345,6.6438,6.6508,6.6334,6.6308,6.6398,6.6128,6.6126,6.6293,6.5743,6.5718,6.608,6.5588,6.5398,6.5493,6.5288,6.536,6.5615,6.5705,6.5924,6.6185,6.6185,6.6155,6.6123,6.6123,6.6091,6.6036,6.6029,6.6005,6.6005,6.6008,6.6008,6.5984,6.5923,6.5897,6.5897,6.5897,6.5897,6.5897,6.5897,6.5897,6.5897,6.5897,6.5897,6.5859,6.5688,6.5608,6.5552,6.542,6.5429,6.5413,6.5413,6.5413,6.5413,0.0,6.5106,6.5169,6.576,6.552,6.5547,0.0,0.0,6.6295,6.6462,6.6333,6.6295,6.6462,6.6462,6.6875,6.7701,6.7701,6.8114,6.894,6.9171,6.9268,6.9268,6.9268,6.9268,6.9268,6.9203,6.9181,6.9181,6.9181,6.9181,6.9181,6.9181,6.9181,6.9181,6.9181,6.9181,6.9181,6.6611,6.6631,6.6631,6.6605,6.6638,6.6654,6.66,6.6546,6.6497,6.6432,6.6345,6.6251,6.6067,6.6052,6.6013,6.5923,6.603,6.6088,6.5997,6.6024,6.6024,6.6024,6.5992,6.6018,6.6051,6.6119,6.6185,6.6283,6.6167,6.6157,6.6264,6.5936,6.5839,6.5981,6.5465,6.535,6.5561,6.5192,6.4987,6.4904,6.4916,6.4981,6.5077,6.5297,6.5628,6.5986,6.5951,6.6036,6.6091,6.6069,6.6036,6.6001,6.5982,6.6008,6.5996,6.5972,6.596,6.5947,6.591,6.5897,6.5897,6.5897,6.5872,6.5859,6.5897,6.5872,6.5859,6.5897,6.5897,6.5872,6.5715,6.5622,6.5566,6.545,6.5444,6.5528,6.5948,6.5987,6.6139,6.6483,6.6214,6.6177,6.6632,6.6311,6.6274,6.6783,6.6821,0.0,6.7326,6.7326,6.7326,6.7326,6.7326,6.7739,6.8565,6.8565,6.879,6.9181,6.9181,6.9181,6.9181,6.9181,6.9181,6.9181,6.9181,6.9181,6.9181,6.9181,6.9181,6.9181,6.9181,6.9181,6.9181,6.9181,6.9181,6.9181,6.6594,6.658,6.6595,6.6552,6.6558,6.6563,6.654,6.6443,6.6329,6.6212,6.6157,6.6036,6.5947,6.5972,6.5972,6.591,6.5897,6.5897,6.5897,6.5897,6.5897,6.5885,6.5916,6.5901,6.5832,6.5897,6.5942,6.5986,6.594,6.594,6.5997,6.5641,6.5548,6.5628,6.5161,6.4954,6.5009,6.4799,6.4537,6.4212,6.4554,6.4572,6.4426,6.4854,6.5253,6.5563,6.5586,6.5782,6.5974,6.5916,6.5955,6.5967,6.597,6.5984,6.5972,6.5923,6.5897,6.5897,6.5897,6.5897,6.5897,6.5885,6.5833,6.5807,6.5859,6.582,6.5793,6.5859,6.5949,6.6051,6.5972,6.5981,6.5963,6.5891,6.5818,6.6025,6.6804,0.0,6.7133,6.7821,6.7545,6.7352,6.7466,6.7178,6.7046,6.7138,6.7138,6.7438,6.8152,6.8189,6.8189,6.8189,6.8189,6.8527,6.9181,6.9181,6.9181,6.9181,6.9181,6.9181,6.9181,6.9181,6.9181,6.9181,6.9181,6.9181,6.9181,6.9181,6.9181,6.9181,6.9181,6.9181,6.9181,6.9181,6.9181,6.9181,6.6431,6.6482,6.6482,6.6373,6.64,6.6384,6.6272,6.6254,6.6225,6.6215,6.6144,6.6069,6.599,6.5982,6.5972,6.591,6.5897,6.5897,6.5897,6.5897,6.5872,6.5807,6.5703,6.5649,6.5566,6.5537,6.5665,6.5986,6.5666,6.5572,6.5654,6.5139,6.5083,6.5344,6.4595,6.4539,6.4959,6.4271,6.4046,6.4189,6.3899,6.4009,6.4331,6.4464,6.4731,6.5061,6.5161,6.5335,6.5517,6.5517,6.5665,6.5923,6.5923,6.5923,6.591,6.591,6.5897,6.5897,6.5897,6.5897,6.5885,6.582,6.5807,6.578,6.5688,6.5622,6.5622,6.5635,6.6266,6.6803,6.6663,6.7266,6.7779,6.7706,6.7577,6.7584,6.7852,0.0,6.7744,6.7897,6.7545,6.7579,6.8337,6.8045,6.8114,6.879,6.8806,6.8903,6.8994,6.8994,6.8994,6.8994,6.8994,6.9069,6.9181,6.9181,6.9181,6.9181,6.9181,6.9181,6.9181,6.9181,6.9181,6.9181,6.9181,6.9181,6.9181,6.9181,6.9181,6.9181,6.9181,6.9181,6.9181,6.9181,6.9181,6.9181,6.6406,6.6439,6.6431,6.6367,6.6338,6.6338,6.6245,6.6205,6.6175,6.6144,6.6091,6.6024,6.6005,6.5984,6.5935,6.591,6.5897,6.6077,6.6448,6.6077,6.5833,6.5793,6.5646,6.5509,6.5435,6.5429,6.5479,6.569,6.5359,6.5314,6.5446,6.4858,6.4721,6.4892,6.4229,6.4104,6.433,6.3873,6.378,6.3873,6.3691,6.3764,6.4025,6.4067,6.4311,6.4626,6.4681,6.4854,6.5067,6.5035,6.5137,6.5299,6.5499,6.5747,6.5971,6.6174,6.6074,6.5897,6.5897,6.6179,6.6486,6.6446,6.6724,6.6974,6.7012,6.6945,6.6931,6.6974,6.7362,6.7616,6.7461,6.7821,6.8089,6.8013,6.7928,0.0,6.861,6.8655,6.8738,6.9196,6.8876,6.8792,6.9209,6.8854,6.8806,6.9181,6.9181,6.9181,6.9181,6.9181,6.9181,6.9181,6.9181,6.9181,6.9181,6.9181,6.9181,6.9181,6.9181,6.9094,6.8877,6.9116,6.9094,6.8877,6.9116,6.9181,6.9181,6.9181,6.9181,6.9181,6.9181,6.9181,6.9181,6.9181,6.9181,6.9181,6.6422,6.6406,6.642,6.6385,6.6331,6.6284,6.6284,6.6215,6.6165,6.6102,6.6058,6.6001,6.6008,6.596,6.5987,6.6141,6.6141,6.6486,6.7226,6.6661,6.6238,6.6047,6.569,6.5435,6.5413,6.5345,6.5314,6.5314,6.5106,6.5019,6.5079,6.4577,6.4367,6.4426,6.4,6.378,6.378,6.3647,6.3602,6.3602,6.3602,6.3647,6.3736,6.378,6.3963,6.4214,6.4212,6.4501,6.4911,6.4895,6.5044,6.5358,6.5629,6.5969,6.6327,6.6531,6.6369,6.6102,6.6102,6.66,6.7099,6.7084,6.7538,6.802,6.8104,6.8035,6.8005,6.8104,6.8286,6.8425,6.8311,6.8449,6.8602,6.8556,0.0,6.8699,6.9355,6.9486,6.9677,7.0238,7.0019,6.9816,6.9816,6.9357,6.9072,6.9072,6.9072,6.9072,6.9072,6.9138,6.9181,6.9181,6.9181,6.9181,6.9181,6.9181,6.9181,6.9181,6.9116,6.8945,6.8763,6.8945,6.8923,6.8763,6.9072,6.9181,6.9181,6.9181,6.9181,6.9181,6.9181,6.9181,6.9181,6.9181,6.9181,6.9181,6.6501,6.6445,6.6385,6.6385,6.6303,6.6195,6.6195,6.6185,6.6165,6.6102,6.6091,6.6047,6.602,6.5996,6.6243,6.6882,6.6907,6.725,6.8062,6.795,6.7499,6.6772,6.5894,6.5413,6.5413,6.5236,6.5117,6.5117,6.4797,6.4558,6.4463,6.4227,6.4042,6.3958,6.3845,6.378,6.378,6.3647,6.3602,6.3602,6.3602,6.3602,6.3624,6.3736,6.3736,6.3691,6.3802,6.4507,6.5339,6.5339,6.6086,6.7031,6.7049,6.7068,6.7088,6.7014,6.6862,6.6729,6.6729,6.7085,6.7445,6.7397,6.7709,6.799,6.7928,6.7913,6.7913,6.7913,6.8587,6.9192,6.9113,6.9795,7.0416,7.0416,0.0,0.0,7.0226,7.0293,7.0276,7.0144,6.9947,6.9816,6.9816,6.9106,6.8633,6.8633,6.8633,6.8633,6.8633,6.899,6.9181,6.9181,6.9181,6.9181,6.9181,6.9181,6.9181,6.9181,6.8832,6.8832,6.9138,6.8809,6.8832,6.916,6.9181,6.9181,6.9181,6.9181,6.9181,6.9181,6.9181,6.9181,6.9181,6.9181,6.9181,6.9181,6.6431,6.6406,6.6411,6.6385,6.6322,6.6264,6.6195,6.6155,6.6112,6.6047,6.6052,6.6005,6.587,6.632,6.6717,6.6915,6.7438,6.8062,6.8831,6.8839,6.8411,6.7523,6.7148,6.6666,6.602,6.5955,6.5606,6.4993,6.4726,6.4539,6.4385,6.4104,6.3915,6.3845,6.3714,6.3669,6.3669,6.3602,6.3602,6.3602,6.3602,6.3831,6.4207,6.4276,6.4503,6.4853,6.4901,6.525,6.5634,6.5566,6.5889,6.6357,6.6512,6.678,6.7098,6.7445,6.7523,6.7452,6.738,6.7529,6.775,6.7711,6.8185,6.8679,6.864,6.8867,6.9087,6.9087,6.9561,6.9954,6.996,7.0244,7.0467,7.0467,0.0,7.0369,7.0217,7.0319,7.0264,6.9965,6.9625,6.9405,6.9261,6.8619,6.8222,6.8222,6.8222,6.8346,6.8586,6.8968,6.9181,6.9181,6.8945,6.8945,6.9181,6.9181,6.9094,6.8832,6.8656,6.8418,6.8072,6.8173,6.8321,6.8467,6.874,6.8832,6.8855,6.9094,6.9072,6.8855,6.9116,6.9181,6.9181,6.9181,6.9181,6.9181,6.6406,6.6381,6.6355,6.6367,6.6303,6.6205,6.6165,6.6112,6.6047,6.6029,6.5982,6.5933,6.5795,6.6512,6.7083,6.7228,6.8057,6.887,6.9597,6.9658,6.926,6.8356,6.805,6.755,6.6797,6.6709,6.6208,6.5159,6.4935,6.4629,6.4247,6.3979,6.3823,6.3714,6.3624,6.3602,6.3616,6.3899,6.3988,6.3988,6.4225,6.4577,6.4988,6.494,6.5225,6.5595,6.5595,6.5829,6.6137,6.6026,6.6236,6.6543,6.6746,6.6987,6.7292,6.7768,6.7873,6.782,6.7714,6.7765,6.786,6.8016,6.8575,6.9091,6.9091,6.9323,6.9584,6.9584,6.9909,7.0213,7.0213,7.0298,7.0419,7.0419,7.0369,7.0196,6.9834,6.9981,6.9927,6.9405,6.9139,6.8884,6.872,6.8161,6.7815,6.7815,6.7815,6.8047,6.8562,6.8763,6.8923,6.9181,6.8693,6.8586,6.9027,6.8877,6.8693,6.8418,6.8297,6.7996,6.7614,6.7736,6.7867,6.8021,6.8297,6.8418,6.8442,6.8717,6.874,6.8609,6.8763,6.9005,6.9181,6.9072,6.9094,6.9181,6.6398,6.6329,6.6303,6.6303,6.6175,6.6102,6.6102,6.6047,6.599,6.6008,6.6008,6.5947,6.5807,6.651,6.7299,6.7944,6.8786,6.9635,7.0342,7.0402,7.0037,6.9234,6.8394,6.7817,6.7618,6.7405,6.6824,6.5822,6.5523,6.4903,6.3894,6.3823,6.3714,6.3602,6.3602,6.3602,6.3676,6.447,6.4805,6.4879,6.5517,6.5803,6.5779,6.5681,6.5632,6.5632,6.5632,6.6186,6.6888,6.6888,6.7442,6.807,6.807,6.803,6.7926,6.7926,6.782,6.7687,6.7687,6.7687,6.781,6.8272,6.8734,6.9091,6.9091,6.9091,6.9091,6.9091,6.9484,6.9778,6.9778,7.0126,7.0402,7.0402,7.0213,6.989,6.9286,6.9365,6.9214,6.8416,6.8416,6.8464,6.832,6.7726,6.7396,6.7396,6.7396,6.7736,6.8538,6.8222,6.837,6.916,6.8394,6.8198,6.8586,6.8198,6.7996,6.7996,6.7614,6.7614,6.797,6.7587,6.7604,6.7996,6.7996,6.7996,6.7996,6.7996,6.8247,6.8538,6.8148,6.8467,6.9138,6.8763,6.8855,6.9181,6.632,6.6322,6.6284,6.6165,6.6123,6.6069,6.6029,6.6005,6.597,6.5935,6.5935,6.5897,6.5807,6.7061,6.7951,6.7982,6.936,7.027,7.0381,7.0264,7.0064,6.9853,6.9586,6.9081,6.8316,6.8111,6.7462,6.6366,6.6282,6.5721,6.4681,6.4659,6.4272,6.3616,6.4173,6.4433,6.447,6.5194,6.548,6.5517,6.5619,6.5965,6.6418,6.6393,6.6648,6.7085,6.7085,6.731,6.7583,6.7479,6.7679,6.7915,6.7873,6.7794,6.7767,6.7767,6.7741,6.7687,6.7687,6.7687,6.7741,6.7863,6.8007,6.8109,6.8109,6.837,6.8595,6.8595,6.8981,6.9303,6.9303,6.9405,6.9486,6.9486,6.9327,6.908,6.875,6.8795,6.866,6.8161,6.7998,6.7871,6.771,6.723,6.699,6.699,6.7266,6.7506,6.7736,6.7919,6.8247,6.8786,6.7996,6.7763,6.8173,6.8072,6.7841,6.7587,6.7451,6.7314,6.7154,6.7011,6.721,6.7587,6.7587,6.7587,6.7614,6.7867,6.7893,6.7763,6.7945,6.8148,6.837,6.8538,6.8656,6.8832,6.6322,6.6293,6.6215,6.6144,6.6091,6.6036,6.6005,6.5996,6.5947,6.591,6.5897,6.5859,6.5715,6.7236,6.8177,6.7975,6.9527,7.0435,7.0281,7.0161,7.0073,7.0001,6.9928,6.9588,6.8981,6.8804,6.8203,6.708,6.6992,6.6448,6.5493,6.5448,6.5119,6.4605,6.5018,6.5217,6.5255,6.5951,6.6248,6.6248,6.6457,6.6761,6.7163,6.7111,6.7363,6.7687,6.7687,6.7767,6.782,6.7741,6.7767,6.782,6.7741,6.7687,6.7687,6.7687,6.7687,6.7687,6.7687,6.7687,6.7687,6.7633,6.766,6.7687,6.7687,6.7915,6.8134,6.8134,6.8514,6.8825,6.8825,6.8959,6.9069,6.8988,6.8795,6.8567,6.821,6.8185,6.8049,6.7577,6.7469,6.736,6.7182,6.6961,6.6786,6.6786,6.7048,6.7238,6.7396,6.7478,6.7763,6.8346,6.7587,6.7341,6.7736,6.7577,6.7396,6.7154,6.7154,6.7011,6.6786,6.6786,6.6932,6.7154,6.7154,6.7154,6.7182,6.7277,6.7277,6.7193,6.7305,6.762,6.8035,6.8123,6.8394,6.8823,6.6303,6.6254,6.6175,6.6175,6.608,6.6001,6.599,6.5933,6.5897,6.5897,6.5897,6.5833,6.5608,6.7089,6.8027,6.7913,6.9393,7.0264,7.0091,7.0073,6.9965,6.9778,6.9582,6.946,6.944,6.9395,6.8871,6.786,6.7695,6.7184,6.6402,6.6323,6.6253,6.6179,6.6073,6.5988,6.5964,6.6679,6.6999,6.7047,6.7657,6.7899,6.7873,6.7741,6.7687,6.7687,6.7687,6.7687,6.7687,6.7687,6.7687,6.7687,6.7687,6.7687,6.7687,6.7687,6.7687,6.7687,6.7687,6.7687,6.7633,6.7497,6.7552,6.766,6.7687,6.7687,6.7687,6.7687,6.8033,6.8346,6.8346,6.8665,6.8915,6.8728,6.8497,6.8198,6.7715,6.7577,6.7341,6.6845,6.6903,6.6932,6.6786,6.6786,6.6786,6.6786,6.6786,6.6961,6.7314,6.7019,6.7154,6.7919,6.721,6.6983,6.7396,6.6954,6.6757,6.6786,6.6786,6.6786,6.6786,6.6786,6.6786,6.6786,6.6786,6.6786,6.6757,6.6457,6.6506,6.6823,6.6421,6.6931,6.7871,6.7542,6.803,6.8964,6.6215,6.6155,6.6102,6.6058,6.6029,6.597,6.5909,6.5923,6.5885,6.582,6.582,6.578,6.5608,6.6566,6.7323,6.7725,6.9084,6.9928,6.9891,6.9739,6.9582,6.9498,6.923,6.9094,6.9042,6.9072,6.8908,6.8507,6.846,6.8291,6.801,6.7986,6.7579,6.6925,6.7494,6.7346,6.6691,6.7377,6.7657,6.7694,6.772,6.7741,6.7741,6.7714,6.7687,6.7687,6.7579,6.7524,6.7524,6.7524,6.7606,6.7687,6.7687,6.7687,6.7687,6.7687,6.7687,6.7687,6.7552,6.7524,6.7497,6.7294,6.7294,6.735,6.7497,6.7524,6.7552,6.7687,6.7757,6.7836,6.7836,6.7863,6.7826,6.7773,6.7533,6.7286,6.7146,6.704,6.6932,6.6786,6.6815,6.6815,6.6786,6.6786,6.6786,6.6786,6.6786,6.6815,6.6932,6.6845,6.7011,6.7533,6.704,6.6983,6.7396,6.675,6.6548,6.6786,6.6786,6.6786,6.6786,6.6786,6.6786,6.6786,6.6786,6.6786,6.6757,6.6457,6.6361,6.6421,6.6021,6.6083,6.6391,6.718,6.7636,6.8057,6.6155,6.6102,6.6047,6.6013,6.5931,6.5897,6.5871,6.5808,6.5742,6.5701,6.5701,6.5646,6.5412,6.62,6.7102,6.804,6.9133,6.97,6.9602,6.944,6.931,6.9175,6.9042,6.8884,6.8721,6.9141,6.9304,6.9269,6.91,6.9212,6.9633,6.9508,6.9235,6.8802,6.8712,6.8413,6.793,6.7836,6.782,6.782,6.7741,6.766,6.7606,6.7687,6.7606,6.746,6.7497,6.7442,6.7359,6.7359,6.747,6.7606,6.7606,6.7633,6.7687,6.7606,6.7633,6.766,6.7442,6.7414,6.7442,6.7154,6.7097,6.7154,6.7331,6.7414,6.7497,6.7579,6.7606,6.7606,6.7606,6.747,6.7359,6.7275,6.7134,6.699,6.6903,6.6845,6.6786,6.6786,6.6786,6.6786,6.6786,6.6786,6.6727,6.6578,6.6697,6.6638,6.6336,6.6488,6.6572,6.6625,6.6572,6.6572,6.6625,6.6421,6.6336,6.6336,6.6488,6.6578,6.6578,6.6578,6.6578,6.6578,6.6578,6.6578,6.6548,6.6213,6.5958,6.5732,6.5607,6.5886,6.6431,6.7016,6.8002,6.9206,6.608,6.6024,6.5978,6.5978,6.5832,6.5782,6.5782,6.5663,6.5552,6.5537,6.5523,6.542,6.5166,6.5879,6.6847,6.8149,6.8922,6.9347,6.931,6.9181,6.9027,6.8838,6.894,6.8897,6.8643,6.9409,6.9793,6.9805,6.9591,7.0021,7.1005,7.0835,7.0745,7.0798,6.9895,6.9319,6.8997,6.8191,6.777,6.766,6.766,6.7579,6.7497,6.7579,6.7433,6.721,6.7359,6.7331,6.7182,6.7182,6.7266,6.7442,6.7442,6.7524,6.7606,6.747,6.7524,6.7552,6.7238,6.7303,6.7331,6.7048,6.699,6.6983,6.7097,6.7303,6.7414,6.7442,6.7442,6.7442,6.7442,6.7266,6.7126,6.7048,6.699,6.6932,6.6815,6.6786,6.6786,6.6786,6.6786,6.6786,6.6786,6.6786,6.6668,6.6336,6.6548,6.6457,6.5836,6.6088,6.6088,6.5804,6.6088,6.6088,6.5804,6.599,6.599,6.5804,6.599,6.6146,6.6207,6.6207,6.6207,6.6243,6.6305,6.6274,6.6177,6.5931,6.5646,6.5424,6.5322,6.6015,6.7017,6.71,6.8614,7.0684,6.6024,6.5931,6.5846,6.5846,6.573,6.5635,6.5635,6.5509,6.5375,6.526,6.5172,6.504,6.4958,6.5407,6.6045,6.6883,6.7519,6.8212,6.8915,6.8838,6.8684,6.8578,6.9125,6.9346,6.9193,6.9874,6.9938,6.9403,7.0017,7.0766,7.1595,7.1568,7.1488,7.1379,7.1103,7.0192,6.8733,6.8558,6.8119,6.7561,6.7561,6.7534,6.747,6.7322,6.7238,6.7182,6.7097,6.7076,6.7048,6.7048,6.7126,6.7238,6.7238,6.7266,6.7266,6.7238,6.7266,6.7238,6.7069,6.7076,6.7048,6.6874,6.6815,6.6815,6.6845,6.6961,6.7105,6.721,6.7238,6.7238,6.7238,6.7126,6.7011,6.6983,6.6903,6.6815,6.6786,6.6786,6.6786,6.6786,6.6786,6.6786,6.6786,6.6786,6.6668,6.6336,6.633,6.6213,6.5836,6.5836,6.5836,6.5804,6.5836,6.5836,6.5804,6.5474,6.5474,6.5804,6.5474,6.5507,6.5867,6.5867,6.5867,6.5899,6.6146,6.615,6.5867,6.5836,6.5969,6.6204,6.5933,6.6286,6.7095,6.7763,6.9069,7.0465,6.5967,6.582,6.5703,6.5703,6.5608,6.5509,6.5382,6.5276,6.5188,6.504,6.492,6.4779,6.4652,6.5078,6.5699,6.6459,6.7098,6.778,6.8599,6.889,6.9026,6.895,6.9677,7.0017,6.9858,7.0578,7.0781,7.0422,7.0781,7.1453,7.2428,7.218,7.203,7.203,7.1325,7.0595,6.9814,6.8864,6.828,6.7952,6.7505,6.7303,6.7219,6.721,6.7097,6.699,6.6903,6.6874,6.6874,6.6874,6.699,6.7069,6.7069,6.7154,6.7182,6.7097,6.7154,6.7154,6.6961,6.6961,6.699,6.6815,6.6786,6.6786,6.6786,6.6845,6.6932,6.704,6.7069,6.7069,6.7069,6.699,6.6874,6.6874,6.6815,6.6786,6.6786,6.6786,6.6786,6.6786,6.6786,6.6786,6.6786,6.6638,6.6397,6.6057,6.6025,6.5768,6.5214,6.5379,6.5379,6.518,6.5379,6.5379,6.518,6.5178,6.5178,6.518,6.5013,6.5112,6.5442,6.5442,6.5442,6.5442,6.5604,6.5604,6.5513,6.5939,6.613,6.6178,6.6427,6.6988,6.7796,6.8568,6.953,7.0371]}]]